[[{"header":{"parameterUnit":"m.s-1","parameterCategory":1,"la1":31.0,"la2":29.5877,"lo1":-88.7671,"lo2":-86.6584,"dy":0.0162,"dx":0.0185,"nx":115,"ny":88,"refTime":"2024-03-07T06:00:00:Z","depth":0,"parameterNumber":2,"parameterNumberName":"U-component_of_WINDS"},"data":[0.0,0.0,0.0,0.0,0.0,0.0,0.0,0.0,0.0,0.0,0.0,0.0,0.0,0.0,0.0,0.0,0.0,0.0,0.0,0.0,0.0,0.0,0.0,0.0,0.0,0.0,0.0,0.0,0.0,0.0,0.0,0.0,0.0,0.0,0.0,0.0,0.0,0.0,0.0,0.0,0.0,0.0,0.0,0.0,0.0,0.0,0.0,0.0,0.0,0.0,0.0,0.0,0.0,0.0,0.0,0.0,0.0,0.0,0.0,0.0,0.0,0.0,0.0,0.0,0.0,0.0,0.0,0.0,0.0,0.0,0.0,0.0,0.0,0.0,0.0,0.0,0.0,0.0,0.0,0.0,0.0,0.0,0.0,0.0,0.0,0.0,0.0,0.0,0.0,0.0,0.0,0.0,0.0,0.0,0.0,0.0,0.0,0.0,0.0,0.0,0.0,0.0,0.0,0.0,0.0,0.0,0.0,0.0,0.0,0.0,0.0,0.0,0.0,0.0,0.0,0.0,0.0,0.0,0.0,0.0,0.0,0.0,0.0,0.0,0.0,0.0,0.0,0.0,0.0,0.0,0.0,0.0,0.0,0.0,0.0,0.0,0.0,0.0,0.0,0.0,0.0,0.0,0.0,0.0,0.0,0.0,0.0,0.0,0.0,0.0,0.0,0.0,0.0,0.0,0.0,0.0,0.0,0.0,0.0,0.0,0.0,0.0,0.0,0.0,0.0,0.0,0.0,0.0,0.0,0.0,0.0,0.0,0.0,0.0,0.0,0.0,0.0,0.0,0.0,0.0,0.0,0.0,0.0,0.0,0.0,0.0,0.0,0.0,0.0,0.0,0.0,0.0,0.0,0.0,0.0,0.0,0.0,0.0,0.0,0.0,0.0,0.0,0.0,0.0,0.0,0.0,0.0,0.0,0.0,0.0,0.0,0.0,0.0,0.0,0.0,0.0,0.0,0.0,0.0,0.0,0.0,0.0,0.0,0.0,0.0,0.0,0.0,0.0,0.0,0.0,0.0,0.0,0.0,0.0,0.0,0.0,0.0,0.0,0.0,0.0,0.0,0.0,0.0,0.0,0.0,0.0,0.0,0.0,0.0,0.0,0.0,0.0,0.0,0.0,0.0,0.0,0.0,0.0,0.0,0.0,0.0,0.0,0.0,0.0,0.0,0.0,0.0,0.0,0.0,0.0,0.0,0.0,0.0,0.0,0.0,0.0,0.0,0.0,0.0,0.0,0.0,0.0,0.0,0.0,0.0,0.0,0.0,0.0,0.0,0.0,0.0,0.0,0.0,0.0,0.0,0.0,0.0,0.0,0.0,0.0,0.0,0.0,0.0,0.0,0.0,0.0,0.0,0.0,0.0,0.0,0.0,0.0,0.0,0.0,0.0,0.0,0.0,0.0,0.0,0.0,0.0,0.0,0.0,0.0,0.0,0.0,0.0,0.0,0.0,0.0,0.0,0.0,0.0,0.0,0.0,0.0,0.0,0.0,0.0,0.0,0.0,0.0,0.0,0.0,0.0,0.0,0.0,0.0,0.0,0.0,0.0,0.0,0.0,0.0,0.0,0.0,0.0,0.0,0.0,0.0,0.0,0.0,0.0,0.0,0.0,0.0,0.0,0.0,0.0,0.0,0.0,0.0,0.0,0.0,0.0,0.0,0.0,0.0,0.0,0.0,0.0,0.0,0.0,0.0,0.0,0.0,0.0,0.0,0.0,0.0,0.0,0.0,0.0,0.0,0.0,0.0,0.0,0.0,0.0,0.0,0.0,0.0,0.0,0.0,0.0,0.0,0.0,0.0,0.0,0.0,0.0,0.0,0.0,0.0,0.0,0.0,0.0,0.0,0.0,0.0,0.0,0.0,0.0,0.0,0.0,0.0,0.0,0.0,0.0,0.0,0.0,0.0,0.0,0.0,0.0,0.0,0.0,0.0,0.0,0.0,0.0,0.0,0.0,0.0,0.0,0.0,0.0,0.0,0.0,0.0,0.0,0.0,0.0,0.0,0.0,0.0,0.0,0.0,0.0,0.0,0.0,0.0,0.0,0.0,0.0,0.0,0.0,0.0,0.0,0.0,0.0,0.0,0.0,0.0,0.0,0.0,0.0,0.0,0.0,0.0,0.0,0.0,0.0,0.0,0.0,0.0,0.0,0.0,0.0,0.0,0.0,0.0,0.0,0.0,0.0,0.0,0.0,0.0,0.0,0.0,0.0,0.0,0.0,0.0,0.0,0.0,0.0,0.0,0.0,0.0,0.0,0.0,0.0,0.0,0.0,0.0,0.0,0.0,0.0,0.0,0.0,0.0,0.0,0.0,0.0,0.0,0.0,0.0,0.0,0.0,0.0,0.0,0.0,0.0,0.0,0.0,0.0,0.0,0.0,0.0,0.0,0.0,0.0,0.0,0.0,0.0,0.0,0.0,0.0,0.0,0.0,0.0,0.0,0.0,0.0,0.0,0.0,0.0,0.0,0.0,0.0,0.0,0.0,0.0,0.0,0.0,0.0,0.0,0.0,0.0,0.0,0.0,0.0,0.0,0.0,0.0,0.0,0.0,0.0,0.0,0.0,0.0,0.0,0.0,0.0,0.0,0.0,0.0,0.0,0.0,0.0,0.0,0.0,0.0,0.0,0.0,0.0,0.0,0.0,0.0,0.0,0.0,0.0,0.0,0.0,0.0,0.0,0.0,0.0,0.0,0.0,0.0,0.0,0.0,0.0,0.0,0.0,0.0,0.0,0.0,0.0,0.0,0.0,0.0,0.0,0.0,0.0,0.0,0.0,0.0,0.0,0.0,0.0,0.0,0.0,0.0,0.0,0.0,0.0,0.0,0.0,0.0,0.0,0.0,0.0,0.0,0.0,0.0,0.0,0.0,0.0,0.0,0.0,0.0,0.0,0.0,0.0,0.0,0.0,0.0,0.0,0.0,0.0,0.0,0.0,0.0,0.0,0.0,0.0,0.0,0.0,0.0,0.0,0.0,0.0,0.0,0.0,0.0,0.0,0.0,0.0,0.0,0.0,0.0,0.0,0.0,0.0,0.0,0.0,0.0,0.0,0.0,0.0,0.0,0.0,0.0,0.0,0.0,0.0,0.0,0.0,0.0,0.0,0.0,0.0,0.0,0.0,0.0,0.0,0.0,0.0,0.0,0.0,0.0,0.0,0.0,0.0,0.0,0.0,0.0,0.0,0.0,0.0,0.0,0.0,0.0,0.0,0.0,0.0,0.0,0.0,0.0,0.0,0.0,0.0,0.0,0.0,0.0,0.0,0.0,0.0,0.0,0.0,0.0,0.0,0.0,0.0,0.0,0.0,0.0,0.0,0.0,0.0,0.0,0.0,0.0,0.0,0.0,0.0,0.0,0.0,0.0,0.0,0.0,0.0,0.0,0.0,0.0,0.0,0.0,0.0,0.0,0.0,0.0,0.0,0.0,0.0,0.0,0.0,0.0,0.0,0.0,0.0,0.0,0.0,0.0,0.0,0.0,0.0,0.0,0.0,0.0,0.0,0.0,0.0,0.0,0.0,0.0,0.0,0.0,0.0,0.0,0.0,0.0,0.0,0.0,0.0,0.0,0.0,0.0,0.0,0.0,0.0,0.0,0.0,0.0,0.0,0.0,0.0,0.0,0.0,0.0,0.0,0.0,0.0,0.0,0.0,0.0,0.0,0.0,0.0,0.0,0.0,0.0,0.0,0.0,0.0,0.0,0.0,0.0,0.0,0.0,0.0,0.0,0.0,0.0,0.0,0.0,0.0,0.0,0.0,0.0,0.0,0.0,0.0,0.0,0.0,0.0,0.0,0.0,0.0,0.0,0.0,0.0,0.0,0.0,0.0,0.0,0.0,0.0,0.0,0.0,0.0,0.0,0.0,0.0,0.0,0.0,0.0,0.0,0.0,0.0,0.0,0.0,0.0,0.0,0.0,0.0,0.0,0.0,0.0,0.0,0.0,0.0,0.0,0.0,0.0,0.0,0.0,0.0,0.0,0.0,0.0,0.0,0.0,0.0,0.0,0.0,0.0,0.0,0.0,0.0,0.0,0.0,0.0,0.0,0.0,0.0,0.0,0.0,0.0,0.0,0.0,0.0,0.0,0.0,0.0,0.0,0.0,0.0,0.0,0.0,0.0,0.0,0.0,0.0,0.0,0.0,0.0,0.0,0.0,0.0,0.0,0.0,0.0,0.0,0.0,0.0,0.0,0.0,0.0,0.0,0.0,0.0,0.0,0.0,0.0,0.0,0.0,0.0,0.0,0.0,0.0,0.0,0.0,0.0,-2.1478,0.0,0.0,0.0,0.0,0.0,0.0,0.0,0.0,0.0,0.0,0.0,0.0,0.0,0.0,0.0,0.0,0.0,0.0,0.0,0.0,0.0,0.0,0.0,0.0,0.0,0.0,0.0,0.0,0.0,0.0,0.0,0.0,0.0,0.0,0.0,0.0,0.0,0.0,0.0,0.0,0.0,0.0,0.0,0.0,0.0,0.0,0.0,0.0,0.0,0.0,0.0,0.0,0.0,0.0,0.0,0.0,0.0,0.0,0.0,0.0,0.0,0.0,0.0,0.0,0.0,0.0,0.0,0.0,0.0,0.0,0.0,0.0,0.0,0.0,0.0,0.0,0.0,0.0,0.0,0.0,0.0,0.0,0.0,0.0,0.0,0.0,0.0,0.0,0.0,0.0,0.0,0.0,0.0,0.0,0.0,0.0,0.0,0.0,0.0,0.0,0.0,0.0,0.0,0.0,0.0,0.0,0.0,0.0,0.0,0.0,-2.4034,-2.3569,-2.3548,-2.2934,-2.1593,0.0,0.0,0.0,0.0,0.0,0.0,0.0,0.0,0.0,0.0,0.0,0.0,0.0,0.0,0.0,0.0,0.0,0.0,0.0,0.0,0.0,0.0,0.0,0.0,0.0,0.0,0.0,0.0,0.0,0.0,0.0,0.0,0.0,0.0,0.0,0.0,0.0,0.0,0.0,0.0,0.0,0.0,0.0,0.0,0.0,0.0,0.0,0.0,0.0,0.0,0.0,0.0,0.0,0.0,0.0,0.0,0.0,0.0,0.0,0.0,0.0,0.0,0.0,0.0,0.0,0.0,0.0,0.0,0.0,0.0,0.0,0.0,0.0,0.0,0.0,0.0,0.0,0.0,0.0,0.0,0.0,0.0,0.0,0.0,0.0,0.0,0.0,0.0,0.0,0.0,0.0,0.0,0.0,0.0,0.0,0.0,0.0,0.0,0.0,0.0,0.0,0.0,0.0,0.0,0.0,0.0,0.0,0.0,0.0,0.0,0.0,0.0,-2.4332,-2.3539,-2.1856,0.0,0.0,0.0,0.0,0.0,0.0,0.0,0.0,0.0,0.0,0.0,0.0,0.0,0.0,0.0,0.0,0.0,0.0,0.0,0.0,0.0,0.0,0.0,0.0,0.0,0.0,0.0,0.0,0.0,0.0,0.0,0.0,0.0,0.0,0.0,0.0,0.0,0.0,0.0,0.0,0.0,0.0,0.0,0.0,0.0,0.0,0.0,0.0,0.0,0.0,0.0,0.0,0.0,0.0,0.0,0.0,0.0,0.0,0.0,0.0,0.0,0.0,0.0,0.0,0.0,0.0,0.0,0.0,0.0,0.0,0.0,0.0,0.0,0.0,0.0,0.0,0.0,0.0,0.0,0.0,0.0,0.0,0.0,0.0,0.0,0.0,0.0,0.0,0.0,0.0,0.0,0.0,0.0,0.0,0.0,0.0,0.0,0.0,0.0,0.0,0.0,0.0,0.0,0.0,0.0,0.0,0.0,0.0,0.0,0.0,-2.5234,-2.5112,-2.5088,0.0,-2.269,0.0,0.0,0.0,0.0,0.0,0.0,0.0,0.0,0.0,0.0,0.0,0.0,0.0,0.0,0.0,0.0,0.0,0.0,0.0,0.0,0.0,0.0,0.0,0.0,0.0,0.0,0.0,0.0,0.0,0.0,0.0,0.0,0.0,0.0,0.0,0.0,0.0,0.0,0.0,0.0,0.0,0.0,0.0,0.0,0.0,0.0,0.0,0.0,0.0,0.0,0.0,0.0,0.0,0.0,0.0,0.0,0.0,0.0,0.0,0.0,0.0,0.0,0.0,0.0,0.0,0.0,0.0,0.0,0.0,0.0,0.0,0.0,0.0,0.0,0.0,0.0,0.0,0.0,0.0,0.0,0.0,0.0,0.0,0.0,0.0,0.0,0.0,0.0,0.0,0.0,0.0,0.0,0.0,0.0,0.0,0.0,0.0,0.0,0.0,0.0,0.0,0.0,0.0,0.0,0.0,0.0,0.0,0.0,0.0,0.0,-2.5215,-2.5149,-2.465,-2.3814,0.0,0.0,0.0,0.0,0.0,0.0,0.0,0.0,0.0,0.0,0.0,0.0,0.0,0.0,0.0,0.0,0.0,0.0,0.0,0.0,0.0,0.0,0.0,0.0,0.0,0.0,0.0,0.0,0.0,0.0,0.0,0.0,0.0,0.0,0.0,0.0,0.0,0.0,0.0,0.0,0.0,0.0,0.0,0.0,0.0,0.0,0.0,0.0,0.0,0.0,0.0,0.0,0.0,0.0,0.0,0.0,0.0,0.0,0.0,0.0,0.0,0.0,0.0,0.0,0.0,0.0,0.0,0.0,0.0,0.0,0.0,0.0,0.0,0.0,0.0,0.0,0.0,0.0,0.0,0.0,0.0,0.0,0.0,0.0,0.0,0.0,0.0,0.0,0.0,0.0,0.0,0.0,0.0,0.0,0.0,0.0,0.0,0.0,0.0,0.0,0.0,0.0,0.0,0.0,0.0,0.0,0.0,0.0,0.0,0.0,-2.5136,-2.5099,-2.5024,-2.4429,-2.3563,-2.247,0.0,0.0,0.0,0.0,0.0,0.0,0.0,0.0,0.0,0.0,0.0,0.0,0.0,0.0,0.0,0.0,0.0,0.0,0.0,0.0,0.0,0.0,0.0,0.0,0.0,0.0,0.0,0.0,0.0,0.0,0.0,0.0,0.0,0.0,0.0,0.0,0.0,0.0,0.0,0.0,0.0,0.0,0.0,0.0,0.0,0.0,0.0,0.0,0.0,0.0,0.0,0.0,0.0,0.0,0.0,0.0,0.0,0.0,0.0,0.0,0.0,0.0,0.0,0.0,0.0,0.0,0.0,0.0,0.0,0.0,0.0,0.0,0.0,0.0,0.0,0.0,0.0,0.0,0.0,0.0,0.0,0.0,0.0,0.0,0.0,0.0,0.0,0.0,0.0,0.0,0.0,0.0,0.0,0.0,0.0,0.0,0.0,0.0,0.0,0.0,0.0,0.0,0.0,0.0,0.0,0.0,0.0,0.0,-2.4968,-2.4948,-2.4921,-2.4886,-2.4818,-2.3976,0.0,0.0,0.0,0.0,0.0,0.0,0.0,0.0,0.0,0.0,0.0,0.0,0.0,0.0,0.0,0.0,0.0,0.0,0.0,0.0,0.0,0.0,0.0,0.0,0.0,0.0,0.0,0.0,0.0,0.0,0.0,0.0,0.0,0.0,0.0,0.0,0.0,0.0,0.0,0.0,0.0,0.0,0.0,0.0,0.0,0.0,0.0,0.0,0.0,0.0,0.0,0.0,0.0,0.0,0.0,0.0,0.0,0.0,0.0,0.0,0.0,0.0,0.0,0.0,0.0,0.0,0.0,0.0,0.0,0.0,0.0,0.0,0.0,0.0,0.0,0.0,0.0,0.0,0.0,0.0,0.0,0.0,0.0,0.0,0.0,0.0,0.0,0.0,0.0,0.0,0.0,0.0,0.0,0.0,0.0,0.0,0.0,0.0,0.0,0.0,0.0,0.0,0.0,0.0,0.0,0.0,0.0,0.0,0.0,-2.4842,-2.4808,-2.4757,-2.4719,-2.4673,-2.3885,0.0,0.0,0.0,0.0,0.0,0.0,0.0,0.0,0.0,0.0,0.0,0.0,0.0,0.0,0.0,0.0,0.0,0.0,0.0,0.0,0.0,0.0,0.0,0.0,0.0,0.0,0.0,0.0,0.0,0.0,0.0,0.0,0.0,0.0,0.0,0.0,0.0,0.0,0.0,0.0,0.0,0.0,0.0,0.0,0.0,0.0,0.0,0.0,0.0,0.0,0.0,0.0,0.0,0.0,0.0,0.0,0.0,0.0,0.0,0.0,0.0,0.0,0.0,0.0,0.0,0.0,0.0,0.0,0.0,0.0,0.0,0.0,0.0,0.0,0.0,0.0,0.0,0.0,0.0,0.0,0.0,0.0,0.0,0.0,0.0,0.0,0.0,0.0,0.0,0.0,0.0,0.0,0.0,0.0,0.0,0.0,0.0,0.0,0.0,0.0,0.0,0.0,0.0,0.0,0.0,0.0,0.0,0.0,0.0,-2.4662,0.0,-2.4567,-2.4545,-2.4549,-2.3891,0.0,0.0,0.0,0.0,0.0,0.0,0.0,0.0,0.0,0.0,0.0,0.0,0.0,0.0,0.0,0.0,0.0,0.0,0.0,0.0,0.0,0.0,0.0,0.0,0.0,0.0,0.0,0.0,0.0,0.0,0.0,0.0,0.0,0.0,0.0,0.0,0.0,0.0,0.0,0.0,0.0,0.0,0.0,0.0,0.0,0.0,0.0,0.0,0.0,0.0,0.0,0.0,0.0,0.0,0.0,0.0,0.0,0.0,0.0,0.0,0.0,0.0,0.0,0.0,0.0,0.0,0.0,0.0,0.0,0.0,0.0,0.0,0.0,0.0,0.0,0.0,0.0,0.0,0.0,0.0,0.0,0.0,0.0,0.0,0.0,0.0,0.0,0.0,0.0,0.0,0.0,0.0,0.0,0.0,0.0,0.0,0.0,0.0,0.0,0.0,0.0,0.0,0.0,0.0,0.0,0.0,0.0,0.0,-2.4557,-2.4435,-2.4426,-2.4456,-2.4421,-2.444,-2.4006,0.0,0.0,0.0,0.0,0.0,0.0,0.0,0.0,0.0,0.0,0.0,0.0,0.0,0.0,0.0,0.0,0.0,0.0,0.0,0.0,0.0,0.0,0.0,0.0,0.0,0.0,0.0,0.0,0.0,0.0,0.0,0.0,0.0,0.0,0.0,0.0,0.0,0.0,0.0,0.0,0.0,0.0,0.0,0.0,0.0,0.0,0.0,0.0,0.0,0.0,0.0,0.0,0.0,0.0,0.0,0.0,0.0,0.0,0.0,0.0,0.0,0.0,0.0,0.0,0.0,0.0,0.0,0.0,0.0,0.0,0.0,0.0,0.0,0.0,0.0,0.0,0.0,0.0,0.0,0.0,0.0,0.0,0.0,0.0,0.0,0.0,0.0,0.0,0.0,0.0,0.0,0.0,0.0,0.0,0.0,0.0,0.0,0.0,0.0,0.0,0.0,0.0,0.0,0.0,0.0,0.0,0.0,0.0,0.0,-2.5087,-2.5049,-2.501,-2.5026,-2.5034,-2.4354,0.0,0.0,0.0,0.0,0.0,0.0,0.0,0.0,0.0,0.0,0.0,0.0,0.0,0.0,0.0,0.0,0.0,0.0,0.0,0.0,0.0,0.0,0.0,0.0,0.0,0.0,0.0,0.0,0.0,0.0,0.0,0.0,0.0,0.0,0.0,0.0,0.0,0.0,0.0,0.0,0.0,0.0,0.0,0.0,0.0,0.0,0.0,0.0,0.0,0.0,0.0,0.0,0.0,0.0,0.0,0.0,0.0,0.0,0.0,0.0,0.0,0.0,0.0,0.0,0.0,0.0,0.0,0.0,0.0,0.0,0.0,0.0,0.0,0.0,0.0,0.0,0.0,0.0,0.0,0.0,0.0,0.0,0.0,0.0,0.0,0.0,0.0,0.0,0.0,0.0,0.0,0.0,0.0,0.0,0.0,0.0,0.0,0.0,0.0,0.0,0.0,0.0,0.0,0.0,0.0,0.0,0.0,0.0,0.0,-2.6027,-2.5815,-2.5658,-2.5641,-2.535,-2.4691,-2.365,0.0,0.0,0.0,0.0,0.0,0.0,0.0,0.0,0.0,0.0,0.0,0.0,0.0,0.0,0.0,0.0,0.0,0.0,0.0,0.0,0.0,0.0,0.0,0.0,0.0,0.0,0.0,0.0,0.0,0.0,0.0,0.0,0.0,0.0,0.0,0.0,0.0,0.0,0.0,0.0,0.0,0.0,0.0,0.0,0.0,0.0,0.0,0.0,0.0,0.0,0.0,0.0,0.0,0.0,0.0,0.0,0.0,0.0,0.0,0.0,0.0,0.0,0.0,0.0,0.0,0.0,0.0,0.0,0.0,0.0,0.0,0.0,0.0,0.0,0.0,0.0,0.0,0.0,0.0,0.0,0.0,0.0,0.0,0.0,0.0,0.0,0.0,0.0,0.0,0.0,0.0,0.0,0.0,0.0,0.0,0.0,0.0,0.0,0.0,0.0,0.0,0.0,0.0,0.0,0.0,0.0,0.0,0.0,-2.7164,-2.667,-2.6349,-2.6236,-2.5477,-2.5025,0.0,0.0,0.0,0.0,0.0,0.0,0.0,0.0,0.0,0.0,0.0,0.0,0.0,0.0,0.0,0.0,0.0,0.0,0.0,0.0,0.0,0.0,0.0,0.0,0.0,0.0,0.0,0.0,0.0,0.0,0.0,0.0,0.0,0.0,0.0,0.0,0.0,0.0,0.0,0.0,0.0,0.0,0.0,0.0,0.0,0.0,0.0,0.0,0.0,0.0,0.0,0.0,0.0,0.0,0.0,0.0,0.0,0.0,0.0,0.0,0.0,0.0,0.0,0.0,0.0,0.0,0.0,0.0,0.0,0.0,0.0,0.0,0.0,0.0,0.0,0.0,0.0,0.0,0.0,0.0,0.0,0.0,0.0,0.0,0.0,0.0,0.0,0.0,0.0,0.0,0.0,0.0,0.0,0.0,0.0,0.0,0.0,0.0,0.0,0.0,0.0,0.0,0.0,0.0,0.0,0.0,0.0,0.0,0.0,-2.6863,-2.7304,-2.7312,-2.6793,-2.6013,-2.5273,0.0,0.0,0.0,0.0,0.0,0.0,0.0,0.0,0.0,0.0,0.0,0.0,0.0,0.0,0.0,0.0,0.0,0.0,0.0,0.0,0.0,0.0,0.0,0.0,0.0,0.0,0.0,0.0,0.0,0.0,0.0,0.0,0.0,0.0,0.0,0.0,0.0,0.0,0.0,0.0,0.0,0.0,0.0,0.0,0.0,0.0,0.0,0.0,0.0,0.0,0.0,0.0,0.0,0.0,0.0,0.0,0.0,0.0,0.0,0.0,0.0,0.0,0.0,0.0,0.0,0.0,0.0,0.0,0.0,0.0,0.0,0.0,0.0,0.0,0.0,0.0,0.0,0.0,0.0,0.0,0.0,0.0,0.0,0.0,0.0,0.0,0.0,0.0,0.0,0.0,0.0,0.0,0.0,0.0,0.0,0.0,0.0,0.0,0.0,0.0,0.0,0.0,0.0,0.0,0.0,0.0,0.0,0.0,-2.6202,-2.7066,-2.7552,-2.7566,-2.7095,-2.614,-2.5414,0.0,0.0,0.0,0.0,0.0,0.0,0.0,0.0,0.0,0.0,0.0,0.0,0.0,0.0,0.0,0.0,0.0,0.0,0.0,0.0,0.0,0.0,0.0,0.0,0.0,0.0,0.0,0.0,0.0,0.0,0.0,0.0,0.0,0.0,0.0,0.0,0.0,0.0,0.0,0.0,0.0,0.0,0.0,0.0,0.0,0.0,0.0,0.0,0.0,0.0,0.0,0.0,0.0,0.0,0.0,0.0,0.0,0.0,0.0,0.0,0.0,0.0,0.0,0.0,0.0,0.0,0.0,0.0,0.0,0.0,0.0,0.0,0.0,0.0,0.0,0.0,0.0,0.0,0.0,0.0,0.0,0.0,0.0,0.0,0.0,0.0,0.0,0.0,0.0,0.0,0.0,0.0,0.0,0.0,0.0,0.0,0.0,0.0,0.0,0.0,0.0,0.0,0.0,0.0,0.0,0.0,0.0,0.0,-2.6258,-2.7428,-2.7465,-2.7355,-2.7147,-2.6066,-2.5435,0.0,0.0,0.0,0.0,0.0,0.0,0.0,0.0,0.0,0.0,0.0,0.0,0.0,0.0,0.0,0.0,0.0,0.0,0.0,0.0,0.0,0.0,0.0,0.0,0.0,0.0,0.0,0.0,0.0,0.0,0.0,0.0,0.0,0.0,0.0,0.0,0.0,0.0,0.0,0.0,0.0,0.0,0.0,0.0,0.0,0.0,0.0,0.0,0.0,0.0,0.0,0.0,0.0,0.0,0.0,0.0,0.0,0.0,0.0,0.0,0.0,0.0,0.0,0.0,0.0,0.0,0.0,0.0,0.0,0.0,0.0,0.0,0.0,0.0,0.0,0.0,0.0,0.0,0.0,0.0,0.0,0.0,0.0,0.0,0.0,0.0,0.0,0.0,0.0,0.0,0.0,0.0,0.0,0.0,0.0,0.0,0.0,0.0,0.0,0.0,0.0,0.0,0.0,0.0,0.0,0.0,0.0,0.0,-2.6494,-2.7164,-2.7181,-2.7135,-2.7039,-2.6335,-2.5668,0.0,0.0,0.0,0.0,0.0,0.0,0.0,0.0,0.0,0.0,0.0,0.0,0.0,0.0,0.0,0.0,0.0,0.0,0.0,0.0,0.0,0.0,0.0,0.0,0.0,0.0,0.0,0.0,0.0,0.0,0.0,0.0,0.0,0.0,0.0,0.0,0.0,0.0,0.0,0.0,0.0,0.0,0.0,0.0,0.0,0.0,0.0,0.0,-1.9297,0.0,0.0,0.0,0.0,0.0,0.0,0.0,0.0,0.0,0.0,0.0,0.0,0.0,0.0,0.0,0.0,0.0,0.0,0.0,0.0,0.0,0.0,0.0,0.0,0.0,0.0,0.0,0.0,0.0,0.0,0.0,0.0,0.0,0.0,0.0,0.0,0.0,0.0,0.0,0.0,0.0,0.0,0.0,0.0,0.0,0.0,0.0,0.0,0.0,0.0,0.0,0.0,0.0,0.0,0.0,0.0,0.0,0.0,0.0,-2.6427,-2.6972,-2.7006,-2.6957,-2.6858,-2.6548,-2.5894,0.0,0.0,0.0,0.0,0.0,0.0,0.0,0.0,0.0,0.0,0.0,0.0,0.0,0.0,0.0,0.0,0.0,0.0,0.0,0.0,0.0,0.0,0.0,0.0,0.0,0.0,0.0,0.0,0.0,0.0,0.0,0.0,0.0,0.0,0.0,0.0,0.0,0.0,0.0,0.0,0.0,0.0,0.0,0.0,0.0,0.0,0.0,0.0,0.0,0.0,0.0,0.0,0.0,0.0,0.0,0.0,0.0,0.0,0.0,0.0,0.0,0.0,0.0,0.0,0.0,0.0,0.0,0.0,0.0,0.0,0.0,0.0,0.0,0.0,0.0,0.0,0.0,0.0,0.0,0.0,0.0,0.0,0.0,0.0,0.0,0.0,0.0,0.0,0.0,0.0,0.0,0.0,0.0,0.0,0.0,0.0,0.0,0.0,0.0,0.0,0.0,0.0,0.0,0.0,0.0,0.0,0.0,-2.5668,-2.6375,-2.6859,-2.6859,-2.6826,-2.6691,-2.6708,-2.6063,-2.4724,0.0,0.0,0.0,0.0,0.0,0.0,0.0,0.0,0.0,0.0,0.0,0.0,0.0,0.0,0.0,0.0,0.0,0.0,0.0,0.0,0.0,0.0,0.0,0.0,0.0,0.0,0.0,0.0,0.0,0.0,0.0,0.0,0.0,0.0,0.0,0.0,0.0,0.0,-1.9481,-2.0071,0.0,0.0,0.0,0.0,0.0,0.0,0.0,0.0,-2.0694,0.0,0.0,0.0,0.0,0.0,0.0,0.0,0.0,0.0,0.0,0.0,0.0,0.0,0.0,0.0,0.0,0.0,0.0,0.0,0.0,0.0,0.0,0.0,0.0,0.0,0.0,0.0,0.0,0.0,0.0,0.0,0.0,0.0,0.0,0.0,0.0,0.0,0.0,0.0,0.0,0.0,0.0,0.0,0.0,0.0,0.0,0.0,0.0,0.0,0.0,0.0,0.0,0.0,0.0,0.0,0.0,-2.4632,-2.6041,-2.674,-2.6742,-2.6725,-2.6725,-2.6708,-2.6708,-2.6014,-2.4623,0.0,0.0,0.0,0.0,0.0,0.0,0.0,0.0,0.0,0.0,0.0,0.0,0.0,0.0,0.0,0.0,0.0,0.0,0.0,0.0,0.0,0.0,0.0,0.0,0.0,0.0,0.0,0.0,0.0,0.0,0.0,0.0,0.0,0.0,0.0,0.0,0.0,0.0,0.0,-2.0411,-2.0804,0.0,0.0,0.0,0.0,0.0,0.0,0.0,0.0,-2.1537,0.0,0.0,0.0,0.0,0.0,0.0,0.0,0.0,0.0,0.0,0.0,0.0,0.0,0.0,0.0,0.0,0.0,0.0,0.0,0.0,0.0,0.0,0.0,0.0,0.0,0.0,0.0,0.0,0.0,0.0,0.0,0.0,0.0,0.0,0.0,0.0,0.0,0.0,0.0,0.0,0.0,0.0,0.0,0.0,0.0,0.0,0.0,0.0,0.0,0.0,0.0,0.0,0.0,0.0,0.0,-2.4622,-2.6029,-2.6775,-2.6691,-2.6708,-2.6708,-2.6708,-2.6708,-2.5981,0.0,0.0,0.0,0.0,0.0,0.0,0.0,0.0,0.0,0.0,0.0,0.0,0.0,0.0,0.0,0.0,0.0,0.0,0.0,0.0,0.0,0.0,0.0,0.0,0.0,0.0,0.0,0.0,0.0,0.0,0.0,0.0,0.0,0.0,0.0,0.0,0.0,0.0,0.0,0.0,-2.152,-2.2089,-2.2932,0.0,0.0,0.0,0.0,0.0,0.0,-2.2428,-2.2263,0.0,0.0,0.0,0.0,0.0,0.0,0.0,0.0,0.0,0.0,0.0,0.0,0.0,0.0,0.0,0.0,0.0,0.0,0.0,0.0,0.0,0.0,0.0,0.0,0.0,0.0,0.0,0.0,0.0,0.0,0.0,0.0,0.0,0.0,0.0,0.0,0.0,0.0,0.0,0.0,0.0,0.0,0.0,0.0,0.0,0.0,0.0,0.0,0.0,0.0,0.0,0.0,0.0,0.0,0.0,-2.4541,-2.5946,-2.6708,-2.6708,-2.6674,-2.6674,-2.6674,-2.6674,-2.5932,0.0,0.0,0.0,0.0,0.0,0.0,0.0,0.0,0.0,0.0,0.0,0.0,0.0,0.0,0.0,0.0,0.0,0.0,0.0,0.0,0.0,0.0,0.0,0.0,0.0,0.0,0.0,0.0,0.0,0.0,0.0,0.0,0.0,0.0,0.0,0.0,0.0,0.0,0.0,0.0,0.0,-2.329,-2.4098,-2.4199,0.0,0.0,0.0,0.0,-2.3584,-2.3492,0.0,0.0,0.0,0.0,0.0,0.0,0.0,0.0,0.0,0.0,0.0,0.0,0.0,0.0,0.0,0.0,0.0,0.0,0.0,0.0,0.0,0.0,0.0,0.0,0.0,0.0,0.0,0.0,0.0,0.0,0.0,0.0,0.0,0.0,0.0,0.0,0.0,0.0,0.0,0.0,0.0,0.0,0.0,0.0,0.0,0.0,0.0,0.0,0.0,0.0,0.0,0.0,0.0,0.0,0.0,0.0,-2.4558,-2.5963,-2.6708,-2.6708,-2.664,-2.6606,-2.6606,-2.6554,-2.5816,0.0,0.0,0.0,0.0,0.0,0.0,0.0,0.0,0.0,0.0,0.0,0.0,0.0,0.0,0.0,0.0,0.0,0.0,0.0,0.0,0.0,0.0,0.0,0.0,0.0,0.0,0.0,0.0,0.0,0.0,0.0,0.0,0.0,0.0,0.0,0.0,0.0,0.0,0.0,0.0,0.0,-2.3299,-2.408,-2.4199,-2.4438,0.0,0.0,-2.5246,-2.5136,-2.5117,0.0,0.0,0.0,0.0,0.0,0.0,0.0,0.0,0.0,0.0,0.0,0.0,0.0,0.0,0.0,0.0,0.0,0.0,0.0,0.0,0.0,0.0,0.0,0.0,0.0,0.0,0.0,0.0,0.0,0.0,0.0,0.0,0.0,0.0,0.0,0.0,0.0,0.0,0.0,0.0,0.0,0.0,0.0,0.0,0.0,0.0,0.0,0.0,0.0,0.0,0.0,0.0,0.0,0.0,0.0,-2.4711,-2.5135,-2.6167,-2.6708,-2.6708,-2.664,-2.6623,-2.6623,-2.6537,-2.5765,0.0,0.0,0.0,0.0,0.0,0.0,0.0,0.0,0.0,0.0,0.0,0.0,0.0,0.0,0.0,0.0,0.0,0.0,0.0,0.0,0.0,0.0,0.0,0.0,0.0,0.0,0.0,0.0,0.0,0.0,0.0,0.0,0.0,0.0,0.0,0.0,0.0,0.0,0.0,0.0,0.0,0.0,-2.4842,-2.5273,0.0,0.0,0.0,-2.6098,-2.608,0.0,0.0,0.0,0.0,0.0,0.0,0.0,0.0,0.0,0.0,0.0,0.0,0.0,0.0,0.0,0.0,0.0,0.0,0.0,0.0,0.0,0.0,0.0,0.0,0.0,0.0,0.0,0.0,0.0,0.0,0.0,0.0,0.0,0.0,0.0,0.0,0.0,0.0,0.0,0.0,0.0,0.0,0.0,0.0,0.0,0.0,0.0,0.0,0.0,0.0,0.0,0.0,0.0,0.0,0.0,0.0,0.0,-2.5592,-2.6319,-2.6708,-2.6674,-2.6623,-2.6554,-2.6486,-2.6416,0.0,0.0,0.0,0.0,0.0,0.0,0.0,0.0,0.0,0.0,0.0,0.0,0.0,0.0,0.0,0.0,0.0,0.0,0.0,0.0,0.0,0.0,0.0,0.0,0.0,0.0,0.0,-1.7889,0.0,0.0,0.0,0.0,0.0,0.0,0.0,0.0,0.0,0.0,0.0,0.0,0.0,0.0,-2.5456,-2.5668,-2.6209,-2.6675,0.0,0.0,-2.6906,-2.6906,-2.6403,-2.5925,0.0,0.0,0.0,0.0,0.0,0.0,0.0,0.0,0.0,0.0,0.0,0.0,0.0,0.0,0.0,0.0,0.0,0.0,0.0,0.0,0.0,0.0,0.0,0.0,0.0,0.0,0.0,0.0,0.0,0.0,0.0,0.0,0.0,0.0,0.0,0.0,0.0,0.0,0.0,0.0,0.0,0.0,0.0,0.0,0.0,0.0,0.0,0.0,0.0,0.0,0.0,0.0,0.0,0.0,0.0,-2.5592,-2.6319,-2.6691,-2.6623,-2.6537,-2.6415,-2.6238,-2.6099,-2.5646,0.0,0.0,0.0,0.0,0.0,0.0,0.0,0.0,0.0,0.0,0.0,0.0,0.0,0.0,0.0,0.0,0.0,0.0,0.0,0.0,0.0,0.0,0.0,0.0,0.0,0.0,0.0,0.0,0.0,0.0,0.0,0.0,0.0,0.0,0.0,0.0,0.0,0.0,0.0,0.0,0.0,-2.5607,-2.64,-2.6565,-2.6869,0.0,0.0,-2.7714,-2.7706,-2.7658,-2.7383,-2.6649,0.0,0.0,0.0,0.0,0.0,0.0,0.0,0.0,0.0,0.0,0.0,0.0,0.0,0.0,0.0,0.0,0.0,0.0,0.0,0.0,0.0,0.0,0.0,0.0,0.0,0.0,0.0,0.0,0.0,0.0,0.0,0.0,0.0,0.0,0.0,0.0,0.0,0.0,0.0,0.0,0.0,0.0,0.0,0.0,0.0,0.0,0.0,0.0,0.0,0.0,0.0,0.0,0.0,-2.5526,-2.6202,-2.6944,-2.7262,-2.719,-2.7446,-2.7369,-2.6884,-2.6667,-2.6016,0.0,0.0,0.0,0.0,0.0,0.0,0.0,0.0,0.0,0.0,0.0,0.0,0.0,0.0,0.0,0.0,0.0,0.0,0.0,0.0,0.0,0.0,0.0,0.0,0.0,0.0,0.0,0.0,-1.9188,-1.9872,-2.0546,0.0,0.0,0.0,0.0,0.0,0.0,0.0,0.0,0.0,0.0,-2.686,-2.7215,-2.7702,0.0,0.0,-2.8546,-2.8528,-2.8539,-2.8117,-2.7695,-2.7402,-2.6667,0.0,0.0,0.0,0.0,0.0,0.0,0.0,0.0,0.0,0.0,0.0,0.0,0.0,0.0,0.0,0.0,0.0,0.0,0.0,0.0,0.0,0.0,0.0,0.0,0.0,0.0,0.0,0.0,0.0,0.0,0.0,0.0,0.0,0.0,0.0,0.0,0.0,0.0,0.0,0.0,0.0,0.0,0.0,0.0,0.0,0.0,0.0,0.0,0.0,0.0,0.0,0.0,-2.6,-2.6856,-2.7378,-2.7675,-2.7729,-2.8111,-2.8012,-2.744,-2.7025,-2.6322,0.0,0.0,0.0,0.0,0.0,0.0,0.0,0.0,0.0,0.0,0.0,0.0,0.0,0.0,0.0,0.0,0.0,0.0,0.0,0.0,0.0,0.0,0.0,0.0,0.0,0.0,0.0,0.0,-1.9938,-2.0773,-2.1704,0.0,0.0,0.0,0.0,0.0,0.0,0.0,0.0,0.0,0.0,-2.7662,-2.7988,-2.8516,-2.899,-2.9282,-2.9342,-2.9354,-2.9354,-2.8888,-2.8448,-2.8191,0.0,0.0,0.0,0.0,0.0,0.0,0.0,0.0,0.0,0.0,0.0,0.0,0.0,0.0,0.0,0.0,0.0,0.0,0.0,0.0,0.0,0.0,0.0,0.0,0.0,0.0,0.0,0.0,0.0,0.0,-1.9771,0.0,0.0,0.0,0.0,0.0,0.0,0.0,0.0,0.0,0.0,0.0,0.0,0.0,0.0,0.0,0.0,0.0,0.0,0.0,0.0,0.0,0.0,-2.6168,-2.7437,-2.752,-2.7779,-2.8268,-2.8298,-2.8139,-2.7729,-2.6989,-2.6502,-2.6218,0.0,0.0,0.0,0.0,0.0,0.0,0.0,0.0,0.0,0.0,0.0,0.0,0.0,0.0,0.0,0.0,0.0,0.0,0.0,0.0,0.0,0.0,0.0,0.0,0.0,0.0,-2.0014,-2.0768,-2.1595,0.0,0.0,0.0,0.0,0.0,0.0,0.0,0.0,0.0,0.0,-2.7369,-2.7755,-2.8646,-2.8858,-2.9234,-2.996,-3.0137,-3.0173,-3.0173,-3.0155,-2.9898,0.0,0.0,0.0,0.0,0.0,0.0,0.0,0.0,0.0,0.0,0.0,0.0,0.0,0.0,0.0,0.0,0.0,0.0,0.0,0.0,0.0,0.0,0.0,0.0,0.0,0.0,0.0,-2.0478,-2.0538,0.0,0.0,0.0,0.0,0.0,0.0,0.0,0.0,0.0,0.0,0.0,-2.3589,-2.3928,0.0,0.0,0.0,0.0,0.0,0.0,0.0,0.0,0.0,0.0,0.0,0.0,-2.6947,-2.7319,-2.8191,-2.8705,-2.8829,-2.9144,-2.9035,-2.8433,-2.7944,-2.693,-2.5341,0.0,0.0,0.0,0.0,0.0,0.0,0.0,0.0,0.0,0.0,0.0,0.0,0.0,0.0,0.0,0.0,0.0,0.0,0.0,0.0,0.0,0.0,0.0,0.0,0.0,-2.0991,0.0,0.0,0.0,0.0,0.0,0.0,0.0,0.0,0.0,0.0,0.0,-2.6509,-2.7117,-2.8196,-2.9063,-2.9419,-3.0012,-3.0556,0.0,0.0,0.0,0.0,0.0,0.0,0.0,0.0,0.0,0.0,0.0,0.0,0.0,0.0,-2.7849,-2.6785,-2.6374,-2.6209,-2.619,0.0,0.0,0.0,0.0,0.0,0.0,0.0,0.0,0.0,0.0,0.0,0.0,0.0,0.0,0.0,0.0,-2.1063,0.0,0.0,0.0,0.0,0.0,0.0,0.0,0.0,-2.3688,-2.4283,-2.4694,-2.4989,-2.5369,0.0,-2.5302,-2.4936,0.0,0.0,0.0,0.0,0.0,0.0,0.0,0.0,-2.7342,-2.7487,-2.8526,-2.916,-2.9295,-2.9561,-2.9462,-2.8902,-2.8278,-2.7036,-2.5103,-2.4345,-2.3437,0.0,0.0,0.0,0.0,0.0,0.0,0.0,0.0,0.0,0.0,0.0,0.0,0.0,0.0,0.0,0.0,0.0,0.0,0.0,0.0,0.0,0.0,0.0,-2.1769,0.0,0.0,0.0,0.0,0.0,0.0,0.0,0.0,0.0,-2.5274,-2.6242,-2.717,-2.7817,-2.8878,-2.9742,-3.013,0.0,0.0,0.0,0.0,0.0,0.0,0.0,-3.1715,-3.1452,-3.0962,-3.0613,-3.0613,-3.0191,-2.9831,-2.9824,0.0,0.0,-2.7732,-2.7218,-2.7016,-2.7016,-2.6796,-2.6602,-2.6602,-2.6652,-2.6673,0.0,0.0,0.0,0.0,0.0,0.0,0.0,0.0,-2.1577,-2.1397,0.0,-2.1155,0.0,0.0,0.0,0.0,0.0,0.0,0.0,0.0,-2.5386,-2.5816,-2.5816,-2.5994,-2.6168,-2.6304,-2.6481,-2.6611,-2.6675,-2.5343,0.0,0.0,0.0,0.0,0.0,0.0,-2.7407,-2.7912,-2.8591,-2.9167,-2.9649,-2.9531,-2.935,-2.9044,-2.8054,-2.6885,-2.5601,-2.4748,-2.4056,-2.3451,-2.2709,0.0,0.0,0.0,0.0,0.0,0.0,0.0,0.0,0.0,0.0,0.0,0.0,0.0,0.0,0.0,0.0,0.0,0.0,0.0,0.0,-2.233,0.0,0.0,0.0,0.0,0.0,0.0,0.0,0.0,0.0,0.0,-2.6608,-2.6795,-2.7496,-2.9166,0.0,0.0,0.0,0.0,-3.1379,-3.2219,-3.2452,-3.2532,-3.2532,-3.2585,-3.2362,-3.1623,0.0,0.0,-3.1397,-3.1384,-3.1342,-3.1378,-3.1311,-3.0889,-2.9372,-2.8484,-2.8,-2.7952,-2.7457,-2.6833,-2.6785,-2.709,-2.6998,-2.4599,0.0,0.0,0.0,0.0,-2.303,-2.2989,-2.3002,-2.2864,-2.2882,-2.3129,-2.3201,0.0,0.0,0.0,0.0,0.0,0.0,-2.5151,-2.5345,-2.5548,-2.5901,-2.6336,-2.6027,-2.6136,-2.666,-2.6382,-2.6356,-2.6563,-2.6208,-2.6227,-2.6627,0.0,0.0,0.0,0.0,-2.8204,-2.8298,-2.8874,-2.9211,-2.9275,-2.9152,-2.8936,-2.8612,-2.7829,-2.7149,-2.6596,-2.5445,-2.4499,-2.3844,-2.3173,0.0,0.0,0.0,0.0,0.0,0.0,0.0,0.0,0.0,0.0,0.0,0.0,0.0,0.0,0.0,0.0,0.0,0.0,0.0,-2.3006,-2.3088,-2.3291,0.0,0.0,0.0,0.0,0.0,0.0,0.0,0.0,0.0,-2.7788,-2.8122,-2.8672,0.0,0.0,-3.1163,-3.1494,-3.2195,-3.281,-3.3114,0.0,0.0,0.0,-3.3342,-3.3304,-3.3066,-3.2612,-3.2082,-3.1494,-3.1403,-3.1403,-3.1403,-3.1403,-3.1231,-3.0834,-3.0552,-3.0387,-3.035,-3.0173,-3.0026,-3.0026,-3.0026,-2.9971,-2.5199,-2.436,-2.4463,-2.449,-2.4395,-2.4409,-2.4408,-2.4445,-2.4109,-2.4068,-2.4214,-2.4082,-2.4251,-2.4575,-2.4999,0.0,0.0,0.0,-2.6004,-2.6004,-2.6542,-2.7006,-2.735,-2.7335,-2.7535,-2.7941,-2.7431,-2.7265,-2.7494,-2.7319,-2.7409,-2.7715,0.0,0.0,-2.7427,-2.8057,-2.8299,-2.8237,-2.8842,-2.9098,-2.8975,-2.8795,-2.8534,-2.825,-2.778,-2.7348,-2.6931,-2.6097,-2.5236,-2.4344,-2.3927,-2.336,0.0,0.0,0.0,0.0,0.0,0.0,0.0,0.0,0.0,0.0,0.0,-2.0962,0.0,0.0,0.0,0.0,-2.2763,-2.322,-2.3782,-2.3848,0.0,0.0,0.0,0.0,0.0,0.0,0.0,-2.7027,-2.7638,-2.8304,-2.9076,-2.9434,-2.9839,-3.0407,-3.1089,-3.1827,-3.2608,0.0,-3.3851,-3.428,-3.4392,-3.4451,-3.4513,-3.4568,-3.4607,-3.4649,-3.4,-3.3386,-3.2944,-3.2596,-3.237,-3.2339,-3.2351,-3.2357,-3.2357,-3.2351,-3.2113,-3.1544,-3.1403,-3.1403,-3.1403,-3.1403,-3.1403,-2.5486,-2.5593,-2.5811,-2.5727,-2.5514,-2.5571,-2.5801,-2.6078,-2.525,-2.4926,-2.4974,-2.4336,-2.4226,-2.4529,-2.5077,0.0,-2.564,-2.6395,-2.6782,-2.6871,-2.8113,-2.8682,-2.8712,-2.9322,-2.9675,-2.9768,-2.9162,-2.8953,-2.9011,-2.856,-2.8379,-2.851,-2.7656,-2.7211,-2.717,-2.7759,-2.8007,-2.7941,-2.8552,-2.8818,-2.8708,-2.8508,-2.8226,-2.798,-2.7855,-2.7504,-2.6892,-2.669,-2.6051,-2.4942,-2.4807,-2.4299,-2.3234,0.0,0.0,0.0,0.0,0.0,0.0,0.0,0.0,0.0,0.0,0.0,0.0,0.0,0.0,0.0,-2.4012,0.0,-2.4575,-2.4643,0.0,0.0,0.0,-2.5404,-2.6725,-2.6995,-2.7589,-2.8949,0.0,0.0,-3.0303,0.0,-3.0993,-3.1286,-3.1419,-3.2095,-3.3851,-3.4165,-3.46,-3.5391,-3.5616,-3.5713,-3.5683,-3.5812,-3.5866,-3.5904,-3.5462,-3.4979,-3.4926,-3.4458,-3.4014,-3.3848,-3.388,-3.3825,-3.3807,-3.3678,-3.3348,-3.1929,-3.1659,-3.1641,-3.1709,-3.1727,-3.1751,-2.6388,-2.6442,-2.6659,-2.6252,-2.5514,-2.5514,-2.5574,-2.5678,-2.5572,-2.5773,-2.6126,-2.6313,-2.6554,-2.6852,-2.6559,-2.681,-2.7473,-2.7806,-2.8226,-2.8675,-2.9137,-2.9382,-2.9355,-2.9547,-2.9606,-2.9619,-2.9484,-2.9474,-2.961,-2.9497,-2.9485,-2.96,-2.9409,-2.8935,-2.8241,-2.8389,-2.8349,-2.8134,-2.8264,-2.8293,-2.8177,-2.8128,-2.8005,-2.784,-2.7815,-2.7665,-2.741,-2.6881,-2.6213,-2.5443,-2.4919,-2.4342,-2.3685,-2.3315,0.0,0.0,0.0,0.0,0.0,0.0,0.0,0.0,0.0,-2.2717,-2.3325,0.0,-2.3569,0.0,-2.4222,-2.4668,-2.527,-2.5828,0.0,0.0,-2.7571,-2.8062,-2.8417,-2.8486,-2.8656,-2.8995,-2.9594,-3.004,-3.0228,-3.1456,-3.2347,-3.2481,-3.2773,-3.3212,-3.3876,-3.4545,-3.5092,-3.5473,-3.5594,-3.5571,-3.5724,-3.5815,-3.5975,-3.6012,-3.5881,-3.5753,-3.575,-3.5645,-3.5359,-3.4792,-3.4687,-3.4472,-3.394,-3.3807,-3.3715,-3.3311,-3.322,-3.3238,-3.3238,-3.322,-3.3201,-2.7321,-2.7321,-2.744,-2.7036,-2.6297,-2.6231,-2.6161,-2.6168,-2.6167,-2.6411,-2.685,-2.7193,-2.7479,-2.7711,-2.7629,-2.7877,-2.832,-2.8609,-2.8882,-2.9237,-2.9699,-2.9916,-2.9946,-3.0285,-3.0447,-3.0432,-3.0133,-3.0053,-3.0093,-2.9823,-2.9783,-2.9902,-2.9917,-2.9644,-2.9159,-2.9189,-2.9,-2.857,-2.8265,-2.8054,-2.7905,-2.7905,-2.7855,-2.7725,-2.77,-2.7675,-2.7585,-2.724,-2.6722,-2.6063,-2.5397,-2.4822,-2.4257,-2.3779,-2.3585,0.0,0.0,0.0,0.0,0.0,0.0,0.0,0.0,0.0,0.0,0.0,-2.4249,0.0,-2.5849,0.0,-2.6978,-2.7435,-2.7875,-2.8298,-2.8721,-2.9128,-2.9431,-2.9482,-2.9754,-3.0398,-3.0859,-3.1252,-3.1591,-3.2537,-3.3225,-3.3343,-3.3927,-3.4437,-3.4711,-3.5261,-3.5794,-3.6343,-3.6449,-3.6483,-3.6602,-3.6734,-3.6866,-3.691,-3.6685,-3.6497,-3.651,-3.6246,-3.5893,-3.5491,-3.5411,-3.5312,-3.4887,-3.482,-3.4834,-3.483,-3.4862,-3.4633,-3.3972,-3.3807,-3.3807,-2.8109,-2.8109,-2.8109,-2.7821,-2.7392,-2.7227,-2.7084,-2.6985,-2.6745,-2.6895,-2.7344,-2.7454,-2.764,-2.7846,-2.8269,-2.8553,-2.8682,-2.8993,-2.9219,-2.9337,-3.0051,-3.0417,-3.0432,-3.114,-3.1467,-3.1452,-3.0883,-3.0642,-3.0599,-3.0103,-2.9888,-3.0012,-2.9997,-3.0012,-3.0012,-3.0132,-2.9807,-2.9107,-2.8425,-2.8041,-2.7901,-2.7811,-2.77,-2.76,-2.7585,-2.7585,-2.7585,-2.7585,-2.7285,-2.6617,-2.6048,-2.5473,-2.4942,-2.4487,-2.4326,0.0,-2.4222,0.0,0.0,0.0,0.0,0.0,0.0,0.0,0.0,-2.426,-2.4941,-2.6426,-2.7873,-2.8755,-2.8774,-2.8986,-2.9127,-2.9127,-2.923,-2.9567,-3.0277,-3.0395,-3.0903,-3.2293,-3.2446,-3.2716,-3.322,-3.3645,-3.3878,-3.4085,-3.4855,-3.5528,-3.5819,-3.6066,-3.6501,-3.745,-3.7594,-3.7488,-3.7667,-3.7843,-3.7929,-3.7942,-3.7557,-3.7255,-3.7283,-3.6771,-3.6279,-3.6182,-3.6146,-3.6106,-3.6018,-3.6002,-3.6029,-3.597,-3.6033,-3.5705,-3.4614,-3.4284,-3.4119,-2.8109,-2.8109,-2.8109,-2.8047,-2.7934,-2.7918,-2.7541,-2.7011,-2.6963,-2.7366,-2.8053,-2.7773,-2.7947,-2.8392,-2.8033,-2.8294,-2.8999,-2.9349,-2.9799,-3.0338,-3.0734,-3.0954,-3.0954,-3.1204,-3.1336,-3.1351,-3.1318,-3.1316,-3.1316,-3.1197,-3.1165,-3.1165,-3.1165,-3.1165,-3.1165,0.0,0.0,0.0,-2.882,-2.8464,-2.8423,-2.791,-2.7625,-2.7585,-2.7585,0.0,-2.7585,-2.7585,-2.7285,-2.6632,-2.6467,0.0,0.0,0.0,0.0,0.0,0.0,0.0,0.0,0.0,0.0,0.0,-2.6492,-2.655,-2.6908,-2.7013,-2.7287,-2.7852,-2.821,-2.8472,-2.8624,-2.9292,-2.9724,-2.9758,-3.0357,-3.1055,-3.1769,-3.1887,-3.2242,-3.3068,-3.3203,-3.3237,-3.3457,-3.4041,-3.4542,-3.4736,-3.5524,-3.616,-3.6322,-3.6606,-3.6948,-3.728,-3.7484,-3.7613,-3.7649,-3.7775,-3.7898,-3.7915,-3.7861,-3.7768,-3.7798,-3.7792,-3.7461,-3.7017,-3.6932,-3.6744,-3.6164,-3.6015,-3.6121,-3.603,-3.6082,-3.6014,-3.5871,-3.5807,-3.5826,-2.8938,0.0,-2.8938,-2.8787,0.0,-2.8474,-2.8192,-2.7682,-2.7787,-2.8092,-2.8485,-2.8236,-2.8315,-2.8602,-2.853,-2.8802,-2.9355,-2.9567,-2.9919,-3.0371,-3.0702,-3.0851,-3.0851,-3.1087,-3.1205,-3.122,-3.1293,-3.1336,-3.1424,-3.1424,-3.1438,-3.1496,-3.1496,-3.1496,-3.1496,-3.1496,-3.1017,-3.0043,-2.94,-2.9086,-2.9041,-2.8468,-2.8109,-2.8094,0.0,0.0,0.0,0.0,0.0,0.0,0.0,0.0,0.0,0.0,0.0,-2.5948,-2.6153,-2.6334,-2.6452,-2.6563,-2.6829,-2.7232,-2.7644,-2.7794,-2.7522,-2.7987,-2.8367,-2.8587,-2.9061,-2.9417,-2.9553,-3.0399,-3.0938,-3.1015,-3.1695,-3.2381,-3.2763,-3.2831,-3.3119,-3.3778,-3.3947,-3.4066,-3.4455,-3.488,-3.5244,-3.5343,-3.5844,-3.6276,-3.6419,-3.665,-3.6908,-3.7142,-3.7298,-3.7447,-3.7484,-3.7613,-3.7739,-3.7775,-3.7846,-3.7898,-3.7933,-3.7985,-3.7892,-3.7564,-3.754,-3.7424,-3.7134,-3.7055,-3.7137,-3.7137,-3.715,-3.7213,-3.7269,-3.6735,-3.6153,-2.9779,-2.9779,-2.9779,-2.9528,-2.9038,-2.9051,-2.89,-2.8705,0.0,0.0,0.0,-2.8765,-2.8768,-2.8866,-2.9293,-2.9581,-2.9799,-2.9992,-3.0148,-3.0332,-3.0557,-3.0681,-3.0742,-3.091,-3.1014,-3.1058,-3.1073,-3.1161,-3.1263,-3.1263,-3.1351,-3.1467,-3.1482,-3.1467,-3.1496,-3.1496,-3.1227,-3.0687,-3.0058,-2.9786,-2.9729,-2.9116,-2.8771,-2.8771,-2.8113,-2.7779,-2.7779,-2.766,-2.7585,-2.7585,-2.7091,-2.6791,-2.6737,-2.6354,-2.6124,-2.6163,-2.6327,-2.642,-2.6443,-2.6543,-2.6903,-2.7574,-2.831,-2.8396,-2.7678,-2.8356,-2.8952,-2.9231,-3.0067,-3.0632,-3.0849,-3.1603,-3.2139,-3.2228,-3.2807,-3.3275,-3.3533,-3.3571,-3.388,-3.4539,-3.4692,-3.4912,-3.5447,-3.5616,-3.579,-3.5817,-3.5954,-3.6165,-3.6297,-3.6523,-3.6766,-3.6946,-3.7105,-3.7257,-3.7278,-3.741,-3.7539,-3.7558,-3.7667,-3.7793,-3.7811,-3.781,-3.7828,-3.7827,-3.7915,-3.793,-3.7966,-3.7995,-3.8224,-3.8241,-3.8272,-3.832,-3.8211,-3.7285,-3.6466,-2.9792,-2.9779,-2.9779,-2.9741,-2.9679,-2.9666,-2.9744,-2.9809,-2.9224,-2.9009,-2.9153,-2.9311,-2.9502,-2.9812,-3.0038,-3.0276,-3.0478,-3.0978,-3.1176,0.0,-3.1027,-3.1037,-3.1164,-3.0843,-3.0732,-3.0866,-3.1028,-3.1102,-3.1146,-3.1146,-3.119,-3.1307,-3.1307,-3.138,-3.1511,-3.1496,-3.1451,-3.1361,-3.0717,-3.0372,-3.0357,-2.9759,-2.9472,-2.9415,-2.8801,-2.8457,-2.8457,-2.7914,-2.7585,-2.7585,-2.751,-2.745,-2.745,-2.737,-2.7405,-2.7519,-2.7544,-2.7603,-2.7716,-2.7741,-2.7859,-2.8082,-2.8326,-2.8567,-2.883,-2.8962,-2.9485,-3.0471,-3.0745,-3.125,-3.2099,-3.2436,-3.2669,-3.28,-3.3057,-3.3455,-3.41,-3.4271,-3.4607,-3.5295,-3.5447,-3.543,-3.5549,-3.5622,-3.5667,-3.5773,-3.5839,-3.5949,-3.6187,-3.6516,-3.6702,-3.6745,-3.6908,-3.7027,-3.7066,-3.7201,-3.7316,-3.7334,-3.7372,-3.7428,-3.7503,-3.7594,-3.7649,-3.7721,-3.781,-3.7881,-3.7899,-3.7934,-3.7969,-3.7969,-3.7985,-3.7985,-3.7985,-3.7697,-3.7655,-3.0658,-3.0658,-3.0658,-3.0495,-3.0218,-2.993,-2.9856,-2.9922,-2.9706,-2.9544,-2.9499,-2.9379,-2.9495,-2.9754,-2.9929,-3.0158,-3.0433,-3.0692,-3.0928,-3.1116,-3.1181,-3.1263,-3.1364,-3.1349,-3.1346,-3.1411,-3.1264,-3.1227,-3.1274,-3.1071,-3.1014,-3.119,-3.119,-3.1263,-3.138,-3.138,-3.1453,-3.1496,-3.1197,-3.1061,-3.1017,-3.0432,-3.0088,-3.0073,-2.9475,-2.9131,-2.9131,-2.8513,-2.8128,-2.8154,-2.7794,-2.7585,-2.7585,-2.7585,-2.7625,-2.7675,-2.769,-2.7725,-2.779,-2.8188,-2.8627,-2.9026,-2.9261,-2.9489,-2.9788,-2.9745,-3.0085,-3.0967,-3.1323,-3.1693,-3.222,-3.2827,-3.3224,-3.3377,-3.3884,-3.4387,-3.4779,-3.4953,-3.5194,-3.5498,-3.5577,-3.56,-3.5616,-3.5616,-3.5622,-3.5689,-3.5751,-3.5883,-3.6075,-3.6289,-3.6496,-3.6582,-3.6745,-3.6809,-3.6829,-3.6948,-3.7046,-3.7106,-3.7164,-3.7222,-3.7334,-3.741,-3.7447,-3.7485,-3.7558,-3.7613,-3.7613,-3.7685,-3.7739,-3.7793,-3.7775,-3.781,-3.7864,-3.7899,-3.7969,-3.1386,-3.1386,-3.1386,-3.116,-3.0758,-3.0331,-3.0156,-3.0182,-3.0326,-3.0317,-3.0186,-2.9686,-2.9568,-2.9761,-2.9975,-3.0246,-3.0527,-3.0632,-3.0875,-3.1172,-3.134,-3.1486,-3.1559,-3.1726,-3.1805,-3.1828,-3.1578,-3.1476,-3.1515,-3.128,-3.1142,-3.1234,-3.1161,-3.1132,-3.1263,-3.1263,-3.1307,-3.1424,-3.1453,-3.1467,-3.1481,-3.0972,-3.0746,-3.0702,-3.0118,-2.9801,-2.9786,-2.916,-2.8816,-2.8801,-2.8349,-2.8049,-2.8064,-2.8049,-2.8049,-2.8049,-2.8049,-2.8064,-2.8079,-2.8632,-2.9211,-2.9765,-3.0008,-3.0239,-3.0529,-3.0507,-3.0746,-3.1334,-3.1789,-3.2144,-3.2586,-3.3215,-3.3804,-3.4024,-3.4629,-3.5045,-3.5228,-3.5377,-3.5486,-3.5492,-3.5543,-3.5594,-3.5616,-3.5752,-3.5971,-3.6197,-3.622,-3.6315,-3.6427,-3.6554,-3.6706,-3.6788,-3.6783,-3.6661,-3.6643,-3.6728,-3.6829,-3.6908,-3.697,-3.7029,-3.7124,-3.7163,-3.7201,-3.7239,-3.7298,-3.7373,-3.7374,-3.7448,-3.754,-3.7577,-3.7595,-3.7631,-3.7703,-3.7739,-3.7811,-3.1411,-3.1386,-3.1436,-3.1373,-3.1311,-3.1235,-3.1198,-3.1198,-3.1263,-3.1398,-3.1358,-3.0663,-3.0404,-3.058,-3.0753,-3.0937,-3.1196,-3.1606,-3.1834,-3.1969,-3.167,-3.1702,-3.195,-3.1638,-3.1542,-3.1735,-3.1795,-3.1817,-3.185,-3.1958,-3.1942,-3.1715,-3.1323,-3.1102,-3.1117,-3.1117,-3.1132,-3.1146,-3.1263,-3.1365,-3.1496,-3.1436,-3.1406,-3.1406,-3.0776,-3.0417,-3.0417,-2.9819,-2.9517,-2.9517,-2.9415,-2.9412,-2.937,-2.9397,-2.9412,-2.9382,-2.9397,-2.9427,-2.9427,-2.9472,-2.9615,-2.9783,-2.9897,-3.0258,-3.1029,-3.1243,-3.1514,-3.198,-3.2149,-3.2666,-3.3718,-3.3972,-3.4162,-3.4445,-3.4745,-3.497,-3.5088,-3.5245,-3.5377,-3.5492,-3.5576,-3.556,-3.5797,-3.6299,-3.6907,-3.7381,-3.7458,-3.7528,-3.7591,-3.7683,-3.7809,-3.7763,-3.724,-3.6672,-3.6641,-3.664,-3.6893,-3.6844,-3.6795,-3.6905,-3.698,-3.6954,-3.6888,-3.7044,-3.7068,-3.7164,-3.7222,-3.7316,-3.7316,-3.7334,-3.7334,-3.7353,-3.7353,-3.7372,-3.7484,-3.2378,-3.2432,-3.239,-3.2177,-3.1863,-3.1537,-3.1386,-3.1386,-3.1386,-3.1439,-3.1483,-3.1149,-3.0992,-3.0984,-3.0878,-3.0911,-3.1136,-3.1434,-3.1656,-3.184,-3.1766,-3.1874,-3.2097,-3.2075,-3.2097,-3.2263,-3.2193,-3.2145,-3.2122,-3.2055,-3.1969,-3.1841,-3.1437,-3.124,-3.1302,-3.1041,-3.0984,-3.1087,-3.1161,-3.122,-3.1293,-3.1424,-3.1496,-3.1481,-3.1227,-3.1077,-3.1017,-3.0477,-3.0133,-3.0103,-2.9801,-2.9621,-2.9621,-2.9621,-2.9621,-2.9621,-2.9621,-2.9744,-3.0088,-3.0133,-3.034,-3.0773,-3.093,-3.1218,-3.1609,-3.1778,-3.2052,-3.2387,-3.2694,-3.3097,-3.3569,-3.3899,-3.4176,-3.4333,-3.4546,-3.4715,-3.4835,-3.4994,-3.5245,-3.5773,-3.6038,-3.634,-3.6774,-3.7199,-3.755,-3.7855,-3.7936,-3.8028,-3.796,-3.8044,-3.808,-3.8052,-3.7701,-3.76,-3.7585,-3.7659,-3.775,-3.7875,-3.7953,-3.7887,-3.7391,-3.7346,-3.7324,-3.6931,-3.6919,-3.6941,-3.6926,-3.6946,-3.6965,-3.7025,-3.7105,-3.7143,-3.7147,-3.7184,-3.7298,-3.2982,-3.2982,-3.3068,-3.2842,-3.2428,-3.2026,-3.1892,-3.1851,-3.1851,-3.1851,-3.1838,-3.1687,-3.1562,-3.1425,-3.1138,-3.1087,-3.1291,-3.1325,-3.1486,-3.1622,-3.1713,-3.1853,-3.2023,-3.2191,-3.2359,-3.2506,-3.2402,-3.2388,-3.2422,-3.2159,-3.2028,-3.2041,-3.1675,-3.1519,-3.1541,-3.1132,-3.0934,-3.1129,-3.1028,-3.0984,-3.1043,-3.1249,-3.1395,-3.138,-3.1424,-3.1438,-3.1423,-3.1017,-3.0791,-3.0776,-3.0357,-3.0118,-3.0118,-3.0118,-3.0118,-3.0118,-3.0118,-3.0313,-3.0761,-3.0776,-3.0972,-3.1436,-3.1641,-3.1784,-3.1912,-3.2038,-3.2191,-3.2453,-3.2839,-3.3049,-3.3319,-3.3642,-3.3924,-3.4075,-3.43,-3.4497,-3.4898,-3.5077,-3.5495,-3.6264,-3.6625,-3.7086,-3.7797,-3.8089,-3.8222,-3.8531,-3.8565,-3.8514,-3.8497,-3.8611,-3.8625,-3.8574,-3.8663,-3.8559,-3.8419,-3.8248,-3.8459,-3.8544,-3.8491,-3.8306,-3.8001,-3.7953,-3.7741,-3.7272,-3.7033,-3.6838,-3.6818,-3.6763,-3.6719,-3.6766,-3.6849,-3.6928,-3.695,-3.6989,-3.7009,-3.2723,-3.2779,-3.2995,-3.3068,-3.3061,-3.3011,-3.2968,-3.2935,-3.2998,-3.3011,-3.2842,-3.2416,-3.2164,-3.2118,-3.1807,-3.1769,-3.1867,-3.1642,-3.1617,-3.1757,-3.1514,-3.1461,-3.1633,-3.1817,-3.2063,-3.2273,-3.234,-3.2522,-3.2876,-3.2506,-3.2382,-3.2523,-3.2075,-3.186,-3.1821,-3.1325,-3.1106,-3.1267,-3.0915,-3.0701,-3.0821,-3.0999,-3.1073,-3.1102,-3.1234,-3.1322,-3.1322,-3.1408,-3.1436,-3.1451,-3.1361,-3.1361,-3.1376,-3.1361,-3.1331,-3.1346,-3.1361,-3.1376,-3.1406,-3.1391,-3.1436,-3.1496,-3.1524,-3.1597,-3.1813,-3.1841,-3.1999,-3.2221,-3.249,-3.2777,-3.3291,-3.3504,-3.366,-3.4055,-3.414,-3.4632,-3.5454,-3.562,-3.6108,-3.6812,-3.7245,-3.7778,-3.8622,-3.8748,-3.9118,-3.9623,-3.9926,-3.9876,-3.9774,-3.9859,-3.985,-3.9833,-3.9807,-3.9602,-3.8536,-3.8572,-3.8487,-3.8631,-3.8848,-3.8402,-3.83,-3.8208,-3.7927,-3.7654,-3.7551,-3.7313,-3.6901,-3.6716,-3.6692,-3.6696,-3.6661,-3.6705,-3.6748,-3.6725,-3.6766,-3.339,-3.3189,-3.332,-3.3277,-3.3136,-3.3124,-3.3124,-3.3124,-3.3124,-3.3124,-3.3099,-3.2855,-3.2767,-3.2754,-3.2651,-3.2297,-3.183,-3.1789,-3.1872,-3.1925,-3.1967,-3.2123,-3.2277,-3.2125,-3.2128,-3.23,-3.2162,-3.225,-3.2583,-3.2589,-3.2583,-3.2605,-3.224,-3.2081,-3.2055,-3.1678,-3.1511,-3.1615,-3.1137,-3.0883,-3.0917,-3.0709,-3.0598,-3.0598,-3.0984,-3.1161,-3.1146,-3.1292,-3.138,-3.1365,-3.1467,-3.1496,-3.1496,-3.1496,-3.1496,-3.1496,-3.1496,-3.1496,-3.1496,-3.1496,-3.1496,-3.1496,-3.1496,-3.1612,-3.1771,-3.1828,-3.2036,-3.257,-3.2833,-3.3226,-3.3789,-3.3964,-3.4005,-3.424,-3.4819,-3.5325,-3.5821,-3.6049,-3.644,-3.7442,-3.8214,-3.8913,-3.9167,-3.9463,-3.9615,-3.991,-4.002,-4.007,-4.0113,-4.0113,-4.0113,-4.0113,-4.0096,-3.9968,-3.9619,-3.953,-3.9603,-3.9658,-3.9689,-3.9399,-3.9228,-3.9023,-3.8791,-3.8174,-3.8042,-3.7932,-3.7538,-3.7176,-3.7055,-3.655,-3.6515,-3.6617,-3.6523,-3.6502,-3.6582,-3.3789,-3.3694,-3.3747,-3.3682,-3.3533,-3.3608,-3.3608,-3.3583,-3.342,-3.3332,-3.3363,-3.3212,-3.3124,-3.3124,-3.3124,-3.2777,-3.2183,-3.2174,-3.2153,-3.2181,-3.223,-3.234,-3.2422,-3.2293,-3.2304,-3.2443,-3.2204,-3.2102,-3.2155,-3.2322,-3.2467,-3.2511,-3.2303,-3.2298,-3.2346,-3.1979,-3.1805,-3.1839,-3.1409,-3.1148,-3.1201,-3.0957,-3.0707,-3.061,-3.0887,-3.1041,-3.1014,-3.1146,-3.1234,-3.1234,-3.1292,-3.138,-3.1409,-3.1482,-3.1496,-3.1496,-3.1496,-3.1496,-3.1496,-3.1496,-3.1496,-3.1525,-3.172,-3.1883,-3.2014,-3.2209,-3.2628,-3.3107,-3.3331,-3.3647,-3.4186,-3.453,-3.4666,-3.4719,-3.5229,-3.5847,-3.6356,-3.6497,-3.7096,-3.805,-3.8784,-3.9295,-3.9563,-3.9677,-3.9781,-3.9858,-4.0003,-4.0037,-4.007,-4.0113,-4.0113,-4.0113,-4.0113,-4.0096,-3.9918,-3.9908,-3.9932,-4.0024,-4.0056,-3.9944,-3.9849,-3.9695,-3.9412,-3.8798,-3.8491,-3.8429,-3.8196,-3.7786,-3.7267,-3.6666,-3.6573,-3.6724,-3.6547,-3.6314,-3.6408,-3.3759,-3.3964,-3.4214,-3.421,-3.4214,-3.4427,-3.4618,-3.4467,-3.411,-3.3897,-3.3847,-3.3395,-3.3232,-3.3174,-3.3224,-3.3124,-3.294,-3.2651,-3.2532,-3.2507,-3.2243,-3.2147,-3.2201,-3.2365,-3.2448,-3.262,-3.2484,-3.2117,-3.1739,-3.1934,-3.2104,-3.2218,-3.2282,-3.2357,-3.264,-3.2096,-3.1924,-3.1985,-3.1632,-3.149,-3.1674,-3.1673,-3.1425,-3.1016,-3.1008,-3.1015,-3.0878,-3.0999,-3.1073,-3.1087,-3.1102,-3.1161,-3.1292,-3.1409,-3.1467,-3.1482,-3.1497,-3.154,-3.1526,-3.163,-3.1735,-3.1795,-3.2153,-3.2527,-3.2632,-3.3036,-3.3441,-3.3668,-3.3759,-3.3925,-3.4363,-3.5,-3.5389,-3.532,-3.5477,-3.5966,-3.6662,-3.7146,-3.7665,-3.8493,-3.8925,-3.9094,-3.9272,-3.9432,-3.959,-3.9798,-3.9875,-3.9952,-4.002,-4.0062,-4.0087,-4.0113,-4.0113,-4.0113,-4.0113,-4.0096,-4.0096,-4.0104,-4.0095,-4.0052,-4.0051,-3.9915,-3.9795,-3.9302,-3.9231,-3.9136,-3.8557,-3.8165,-3.7848,-3.7388,-3.72,-3.6989,-3.6884,-3.6727,-3.6358,-3.4078,-3.4037,-3.4271,-3.4284,-3.4114,-3.4305,-3.4441,-3.4429,-3.4435,-3.4417,-3.4437,-3.4286,-3.401,-3.3696,-3.3646,-3.3445,-3.3124,-3.2965,-3.2902,-3.2907,-3.2942,-3.2911,-3.2915,-3.2829,-3.2647,-3.2539,-3.2555,-3.2395,-3.2035,-3.2131,-3.2121,-3.186,-3.1817,-3.195,-3.2155,-3.2087,-3.2171,-3.2266,-3.1903,-3.1735,-3.1714,-3.15,-3.1245,-3.1124,-3.1311,-3.1472,-3.14,-3.1,-3.0821,-3.091,-3.1028,-3.1102,-3.1176,-3.119,-3.1234,-3.1264,-3.1753,-3.205,-3.2109,-3.2542,-3.2796,-3.2901,-3.308,-3.317,-3.3185,-3.3395,-3.377,-3.4161,-3.4345,-3.4604,-3.5198,-3.5644,-3.5814,-3.563,-3.6091,-3.658,-3.712,-3.7664,-3.8132,-3.8451,-3.8738,-3.8914,-3.9094,-3.9228,-3.9432,-3.9606,-3.9677,-3.9807,-3.9926,-3.9961,-4.0011,-4.0087,-4.0087,-4.0087,-4.007,-4.0087,-4.0113,-4.0113,-4.0113,-4.0113,-4.0121,-4.0104,-3.996,-3.9883,-3.9831,-3.9576,-3.8999,-3.8642,-3.8418,-3.8067,-3.7784,-3.7609,-3.749,-3.72,-3.6853,-3.4243,-3.4198,-3.4426,-3.4542,-3.4472,-3.4693,-3.4833,-3.4922,-3.4886,-3.4948,-3.4956,-3.4756,-3.4537,-3.4248,-3.4211,-3.401,-3.3696,-3.3483,-3.3395,-3.3375,-3.326,-3.3283,-3.3288,-3.3153,-3.2931,-3.2632,-3.2704,-3.2513,-3.2085,-3.2266,-3.217,-3.1746,-3.1766,-3.1809,-3.182,-3.189,-3.2023,-3.2051,-3.1918,-3.1834,-3.1801,-3.1674,-3.1461,-3.1349,-3.1565,-3.162,-3.1481,-3.1087,-3.1001,-3.1201,-3.1461,-3.1613,-3.1659,-3.1794,-3.1795,-3.1899,-3.224,-3.2567,-3.2612,-3.2986,-3.3331,-3.3376,-3.3616,-3.3796,-3.3903,-3.4023,-3.4472,-3.4788,-3.4956,-3.5187,-3.5629,-3.5864,-3.5934,-3.5845,-3.6414,-3.7013,-3.7358,-3.7756,-3.8046,-3.8205,-3.846,-3.8655,-3.8794,-3.904,-3.9245,-3.9388,-3.9537,-3.9677,-3.9798,-3.9849,-3.9901,-3.9977,-3.9986,-3.9986,-3.9995,-4.0045,-4.0113,-4.0113,-4.0113,-4.0113,-4.0096,-4.0096,-4.0036,-4.0019,-3.9977,-3.9943,-3.9468,-3.9451,-3.9265,-3.8831,-3.8347,-3.8133,-3.7959,-3.767,-3.7341,-3.4162,-3.4396,-3.4628,-3.4824,-3.509,-3.5318,-3.5545,-3.5771,-3.5409,-3.5326,-3.5399,-3.5086,-3.4818,-3.4743,-3.4776,-3.4688,-3.4568,-3.4173,-3.3947,-3.3822,-3.3576,-3.3312,-3.3167,-3.325,-3.314,-3.2979,-3.2915,-3.2636,-3.2191,-3.2379,-3.2227,-3.1876,-3.1939,-3.1906,-3.1686,-3.1601,-3.1652,-3.1669,-3.1776,-3.1859,-3.1859,-3.211,-3.2044,-3.1539,-3.1708,-3.1675,-3.141,-3.1464,-3.1617,-3.1889,-3.2115,-3.2309,-3.2584,-3.2832,-3.2777,-3.2702,-3.2941,-3.3031,-3.3031,-3.3301,-3.3393,-3.3517,-3.3981,-3.4312,-3.4482,-3.4887,-3.52,-3.5337,-3.54,-3.5494,-3.5623,-3.572,-3.58,-3.6022,-3.6414,-3.6877,-3.7268,-3.7387,-3.7594,-3.786,-3.8135,-3.8391,-3.8448,-3.8766,-3.8985,-3.9202,-3.9352,-3.9468,-3.9599,-3.9651,-3.9694,-3.9772,-3.9875,-3.9858,-3.9884,-3.9893,-3.9961,-3.9961,-3.9986,-4.002,-4.0087,-4.0113,-4.0113,-4.0113,-4.0096,-4.0079,-4.0045,-3.991,-3.974,-3.9342,-3.8952,-3.8633,-3.8454,-3.8299,-3.8028,-3.353,-3.3618,-3.4064,-3.4408,-3.4628,-3.4884,-3.5175,-3.5404,-3.5473,-3.5612,-3.5777,-3.5749,-3.5481,-3.5307,-3.5282,-3.5082,-3.4813,-3.4542,-3.4512,-3.4487,-3.4387,-3.3784,-3.3219,-3.3167,-3.322,-3.3212,-3.3204,-3.3071,-3.2685,-3.2729,-3.2474,-3.1974,-3.2015,-3.1863,-3.159,-3.1665,-3.1606,-3.1463,-3.1559,-3.1696,-3.1683,-3.1743,-3.175,-3.1652,-3.1875,-3.1973,-3.1943,-3.2199,-3.2178,-3.1909,-3.1982,-3.208,-3.2202,-3.241,-3.255,-3.2626,-3.3156,-3.3519,-3.3607,-3.4027,-3.436,-3.4451,-3.451,-3.472,-3.4815,-3.5094,-3.5246,-3.5294,-3.5392,-3.5489,-3.5539,-3.5668,-3.5814,-3.6005,-3.6396,-3.6724,-3.6907,-3.7224,-3.7447,-3.7535,-3.7847,-3.8171,-3.8387,-3.859,-3.8786,-3.8991,-3.9199,-3.9351,-3.9634,-3.9724,-3.9867,-3.9768,-3.9763,-3.9772,-3.9755,-3.9781,-3.9781,-3.9781,-3.9833,-3.9893,-3.9986,-4.0087,-4.0113,-4.0113,-4.0113,-4.0096,-4.0096,-4.0028,-3.9842,-3.969,-3.9639,-3.9377,-3.9343,-3.9216,-3.886,-3.3081,-3.3331,-3.3641,-3.3965,-3.4298,-3.4543,-3.4787,-3.5078,-3.532,-3.5572,-3.5812,-3.5968,-3.5876,-3.5731,-3.5846,-3.5717,-3.5416,-3.5119,-3.5031,-3.4981,-3.4768,-3.4223,-3.3558,-3.3287,-3.3167,-3.3283,-3.3283,-3.3148,-3.3022,-3.3068,-3.2778,-3.2345,-3.2337,-3.2177,-3.177,-3.1784,-3.1669,-3.1368,-3.1453,-3.1501,-3.125,-3.141,-3.1471,-3.1508,-3.178,-3.1963,-3.2096,-3.2322,-3.2429,-3.237,-3.2447,-3.2548,-3.2601,-3.2816,-3.2915,-3.293,-3.3508,-3.3796,-3.3873,-3.4278,-3.4572,-3.4668,-3.4735,-3.4835,-3.4887,-3.5001,-3.5082,-3.5082,-3.518,-3.5246,-3.5436,-3.5749,-3.6077,-3.6345,-3.6706,-3.6886,-3.6677,-3.6892,-3.7088,-3.7317,-3.7761,-3.8235,-3.8456,-3.8795,-3.9188,-3.9516,-3.9785,-3.991,-4.0077,-4.0073,-4.0117,-4.012,-4.0244,-4.0394,-4.0391,-4.0368,-4.0227,-4.016,-3.9871,-3.9915,-3.9985,-4.0121,-4.0087,-4.007,-4.007,-4.0087,-4.0087,-4.0087,-4.0045,-3.9977,-4.0096,-4.0037,-3.9884,-3.9758,-3.9437,-3.2695,-3.3131,-3.317,-3.353,-3.3977,-3.42,-3.4445,-3.4738,-3.4969,-3.5223,-3.5524,-3.5777,-3.5835,-3.5955,-3.6081,-3.6332,-3.6223,-3.5759,-3.5621,-3.5433,-3.5107,-3.4587,-3.4173,-3.352,-3.3338,-3.3262,-3.3174,-3.3099,-3.3109,-3.3275,-3.309,-3.2722,-3.28,-3.2564,-3.2171,-3.2083,-3.1789,-3.1485,-3.1539,-3.1448,-3.1176,-3.1261,-3.1333,-3.1395,-3.1511,-3.172,-3.1853,-3.2059,-3.2282,-3.2783,-3.3086,-3.3199,-3.3402,-3.3632,-3.3707,-3.3671,-3.3705,-3.3831,-3.3874,-3.3997,-3.4176,-3.4346,-3.4481,-3.4664,-3.4731,-3.4871,-3.5056,-3.507,-3.503,-3.537,-3.5592,-3.6134,-3.6507,-3.6778,-3.7297,-3.7276,-3.6871,-3.6785,-3.694,-3.7172,-3.8011,-3.8463,-3.8852,-3.9414,-4.0116,-3.9812,-4.0086,-4.0199,-4.0361,-4.0443,-4.0606,-4.0802,-4.0998,-4.1259,-4.1161,-4.1056,-4.0867,-4.0694,-4.0217,-4.0062,-4.0074,-4.0136,-4.0054,-4.002,-3.9944,-3.9961,-3.9986,-4.0011,-4.0037,-4.0011,-3.9961,-4.0011,-4.0003,-3.991,-3.9708,-3.1885,-3.1997,-3.2505,-3.2969,-3.3431,-3.353,-3.384,-3.4296,-3.4518,-3.4774,-3.4981,-3.5284,-3.5464,-3.5668,-3.5955,-3.6098,-3.6086,-3.6113,-3.6182,-3.6107,-3.5617,-3.5307,-3.4919,-3.4236,-3.3771,-3.3646,-3.3269,-3.3106,-3.3149,-3.3179,-3.3104,-3.2991,-3.2962,-3.2828,-3.2472,-3.2371,-3.2199,-3.189,-3.1867,-3.1791,-3.16,-3.1357,-3.1345,-3.1435,-3.1425,-3.1501,-3.1609,-3.172,-3.1793,-3.2023,-3.2521,-3.2977,-3.2973,-3.3108,-3.3213,-3.3283,-3.3486,-3.364,-3.3689,-3.3836,-3.398,-3.4066,-3.4212,-3.4103,-3.4166,-3.4922,-3.5214,-3.5448,-3.5922,-3.6222,-3.6355,-3.6699,-3.697,-3.7148,-3.7473,-3.7707,-3.7561,-3.7803,-3.7971,-3.8177,-3.8542,-3.8984,-3.9219,-3.9471,-3.9895,-4.0078,-4.0307,-4.0425,-4.0656,-4.0872,-4.1105,-4.1341,-4.1413,-4.1566,-4.1626,-4.146,-4.1215,-4.0994,-4.0574,-4.0313,-4.0338,-4.0194,-4.0139,-3.9973,-3.9781,-3.9807,-3.9884,-3.9833,-3.9833,-3.9807,-3.9807,-3.9833,-3.9884,-3.991,-3.9935,-3.2034,-3.2306,-3.263,-3.3045,-3.3572,-3.3828,-3.4123,-3.4369,-3.4498,-3.4752,-3.4939,-3.5016,-3.5175,-3.5416,-3.5668,-3.5812,-3.586,-3.6086,-3.6263,-3.6295,-3.6044,-3.5943,-3.5793,-3.5115,-3.4562,-3.4261,-3.3734,-3.3495,-3.342,-3.3219,-3.3111,-3.3124,-3.3124,-3.3016,-3.2806,-3.2786,-3.2537,-3.219,-3.2186,-3.2125,-3.182,-3.1698,-3.1598,-3.1717,-3.1669,-3.1745,-3.1938,-3.2079,-3.2155,-3.2357,-3.2707,-3.2758,-3.2454,-3.2561,-3.2704,-3.2775,-3.3002,-3.3353,-3.3528,-3.3797,-3.403,-3.4298,-3.4469,-3.4576,-3.469,-3.5239,-3.5496,-3.5653,-3.6033,-3.6449,-3.6705,-3.7205,-3.7384,-3.7643,-3.8027,-3.8367,-3.8447,-3.8353,-3.8262,-3.8437,-3.8822,-3.927,-3.9574,-3.9846,-4.0339,-4.0817,-4.0912,-4.1071,-4.1354,-4.1559,-4.1635,-4.1759,-4.174,-4.1829,-4.1915,-4.1786,-4.1444,-4.1177,-4.0868,-4.0732,-4.0739,-4.0486,-4.0232,-4.0017,-3.9733,-3.972,-3.9755,-3.9703,-3.9651,-3.9703,-3.9729,-3.9703,-3.9703,-3.9755,-3.9807,-3.2372,-3.2814,-3.2868,-3.3189,-3.3774,-3.4163,-3.4391,-3.4554,-3.4713,-3.4883,-3.5029,-3.4877,-3.4979,-3.5211,-3.5344,-3.5524,-3.5668,-3.5812,-3.6038,-3.625,-3.6225,-3.6223,-3.6157,-3.5793,-3.5403,-3.4939,-3.4324,-3.406,-3.3884,-3.3508,-3.3319,-3.3262,-3.3093,-3.3086,-3.3099,-3.3056,-3.2847,-3.2475,-3.2521,-3.2465,-3.206,-3.2047,-3.1975,-3.1877,-3.1932,-3.2,-3.2199,-3.2344,-3.2567,-3.2843,-3.3067,-3.2731,-3.2319,-3.2316,-3.2509,-3.2563,-3.2891,-3.3234,-3.3624,-3.3882,-3.4187,-3.4728,-3.4999,-3.5184,-3.5207,-3.5475,-3.5736,-3.5903,-3.6163,-3.6599,-3.6807,-3.7396,-3.7906,-3.8168,-3.8684,-3.9096,-3.9143,-3.8572,-3.8387,-3.8598,-3.9183,-3.9647,-4.0003,-4.036,-4.0955,-4.1406,-4.1489,-4.1621,-4.1851,-4.1997,-4.1901,-4.198,-4.1914,-4.1929,-4.2036,-4.2126,-4.1792,-4.1542,-4.1226,-4.1125,-4.1027,-4.0643,-4.0306,-3.9945,-3.9768,-3.9727,-3.9594,-3.9388,-3.9415,-3.9573,-3.9547,-3.9441,-3.9494,-3.9625,-3.9651,-3.1678,-3.2004,-3.221,-3.2642,-3.3146,-3.3253,-3.367,-3.4091,-3.4548,-3.474,-3.4826,-3.477,-3.4925,-3.5091,-3.4992,-3.5151,-3.5501,-3.562,-3.5812,-3.6051,-3.6098,-3.6193,-3.6273,-3.6219,-3.6081,-3.5843,-3.5165,-3.4663,-3.4462,-3.406,-3.3746,-3.3646,-3.3332,-3.3187,-3.3136,-3.3124,-3.3074,-3.2855,-3.2915,-3.2827,-3.2718,-3.2403,-3.212,-3.1965,-3.2049,-3.2133,-3.2137,-3.2126,-3.2114,-3.2167,-3.242,-3.2462,-3.2516,-3.2879,-3.3071,-3.3066,-3.3192,-3.3463,-3.3794,-3.4025,-3.4255,-3.4503,-3.4703,-3.4764,-3.4923,-3.5465,-3.592,-3.6264,-3.6722,-3.7352,-3.765,-3.7846,-3.817,-3.8406,-3.8605,-3.8907,-3.903,-3.8967,-3.8891,-3.9129,-3.9581,-3.9963,-4.0186,-4.0408,-4.0721,-4.1003,-4.1104,-4.1272,-4.1505,-4.167,-4.1705,-4.1836,-4.2013,-4.2062,-4.2109,-4.2236,-4.2153,-4.1989,-4.1696,-4.145,-4.1239,-4.0769,-4.0395,-4.0197,-3.9951,-3.9781,-3.9567,-3.9331,-3.9226,-3.9423,-3.9324,-3.9148,-3.9212,-3.9319,-3.9415,-3.1998,-3.2267,-3.2622,-3.2944,-3.3286,-3.3506,-3.3781,-3.4217,-3.4372,-3.4611,-3.4781,-3.4791,-3.4909,-3.5024,-3.4913,-3.4965,-3.5139,-3.532,-3.5572,-3.5764,-3.5908,-3.6063,-3.6228,-3.6323,-3.6417,-3.6267,-3.5793,-3.5366,-3.5069,-3.4587,-3.4223,-3.3872,-3.3608,-3.3426,-3.3174,-3.3124,-3.3124,-3.3124,-3.3124,-3.3124,-3.3124,-3.2754,-3.2575,-3.2508,-3.2491,-3.2628,-3.2711,-3.2698,-3.2794,-3.289,-3.3014,-3.3042,-3.314,-3.3251,-3.338,-3.3265,-3.3381,-3.3645,-3.3949,-3.4187,-3.4386,-3.4763,-3.4881,-3.5026,-3.5223,-3.5678,-3.6114,-3.6483,-3.6761,-3.738,-3.7544,-3.7763,-3.8028,-3.8277,-3.8427,-3.8612,-3.8833,-3.8943,-3.9141,-3.9358,-3.9585,-3.9804,-4.0076,-4.0266,-4.047,-4.0608,-4.0746,-4.0916,-4.112,-4.1254,-4.1372,-4.1538,-4.1703,-4.1768,-4.1818,-4.1996,-4.2109,-4.2046,-4.1949,-4.1708,-4.1595,-4.1162,-4.0887,-4.0714,-4.0397,-4.0105,-4.0054,-3.9987,-3.9652,-3.9285,-3.9221,-3.9128,-3.9007,-3.9023,-3.9187,-3.2238,-3.2571,-3.2887,-3.3172,-3.3455,-3.3805,-3.4065,-3.428,-3.4318,-3.4524,-3.4825,-3.4782,-3.4795,-3.4982,-3.4937,-3.4861,-3.482,-3.5113,-3.532,-3.5428,-3.5668,-3.5824,-3.6003,-3.6193,-3.6275,-3.6263,-3.627,-3.6132,-3.568,-3.5107,-3.4618,-3.4412,-3.4211,-3.3784,-3.3395,-3.3332,-3.3219,-3.3136,-3.3124,-3.3124,-3.3124,-3.3124,-3.3124,-3.3124,-3.3124,-3.3134,-3.3174,-3.3216,-3.3246,-3.3386,-3.3509,-3.359,-3.3615,-3.3658,-3.3527,-3.3248,-3.3331,-3.3728,-3.4059,-3.4339,-3.458,-3.4995,-3.521,-3.5413,-3.5548,-3.5681,-3.6096,-3.6508,-3.6758,-3.6993,-3.7226,-3.738,-3.7649,-3.7953,-3.8089,-3.8202,-3.8501,-3.8686,-3.8797,-3.9053,-3.9343,-3.961,-3.9874,-3.9996,-4.0121,-4.0277,-4.0416,-4.047,-4.0643,-4.0848,-4.1018,-4.1153,-4.1288,-4.1372,-4.1472,-4.1587,-4.1686,-4.1687,-4.1672,-4.1514,-4.1611,-4.1627,-4.1342,-4.0991,-4.0942,-4.068,-4.0672,-4.0469,-3.9982,-3.9551,-3.93,-3.9145,-3.9117,-3.907,-3.916,-3.1614,-3.1971,-3.2258,-3.2592,-3.281,-3.3172,-3.3477,-3.3727,-3.4213,-3.4503,-3.4504,-3.4633,-3.4764,-3.4926,-3.5097,-3.496,-3.4902,-3.5039,-3.5096,-3.5126,-3.526,-3.5464,-3.5668,-3.592,-3.6063,-3.6098,-3.6275,-3.6392,-3.6094,-3.5667,-3.5357,-3.5144,-3.4705,-3.4336,-3.3859,-3.3709,-3.3545,-3.3224,-3.3136,-3.3124,-3.3124,-3.3124,-3.3124,-3.3124,-3.3124,-3.3124,-3.3154,-3.321,-3.3197,-3.3185,-3.3356,-3.3441,-3.3484,-3.3586,-3.3687,-3.3727,-3.384,-3.4103,-3.4269,-3.4408,-3.4599,-3.484,-3.5031,-3.5113,-3.5277,-3.5521,-3.579,-3.6031,-3.6324,-3.6575,-3.6822,-3.7017,-3.7264,-3.7495,-3.7687,-3.7863,-3.8165,-3.8352,-3.8464,-3.8686,-3.898,-3.9271,-3.9574,-3.9681,-3.9803,-3.996,-4.0081,-4.0137,-4.0242,-4.0486,-4.0624,-4.0761,-4.0864,-4.095,-4.107,-4.1187,-4.1303,-4.1337,-4.137,-4.1355,-4.1421,-4.1488,-4.1406,-4.1125,-4.1114,-4.0959,-4.0655,-4.0347,-4.0075,-3.9907,-3.9704,-3.9492,-3.9253,-3.9237,-3.9263,-3.1228,-3.1556,-3.1845,-3.2076,-3.2238,-3.2555,-3.283,-3.3161,-3.3579,-3.3861,-3.4054,-3.4427,-3.4657,-3.4823,-3.5138,-3.5132,-3.4876,-3.493,-3.5023,-3.4962,-3.5004,-3.5138,-3.5368,-3.5668,-3.5824,-3.5968,-3.6133,-3.6275,-3.621,-3.6119,-3.5893,-3.5495,-3.5257,-3.4914,-3.4387,-3.406,-3.3796,-3.352,-3.3325,-3.3136,-3.3124,-3.3124,-3.3124,-3.3124,-3.3124,-3.3124,-3.3124,-3.3124,-3.3124,-3.3111,-3.3185,-3.324,-3.324,-3.3313,-3.3343,-3.3356,-3.3543,-3.3742,-3.3966,-3.4105,-3.4272,-3.4356,-3.4481,-3.4618,-3.4867,-3.5154,-3.5358,-3.548,-3.5804,-3.6085,-3.6324,-3.6522,-3.6836,-3.7109,-3.7226,-3.7495,-3.7763,-3.7953,-3.8142,-3.8366,-3.8634,-3.9033,-3.9364,-3.954,-3.9646,-3.9732,-3.9854,-3.9925,-3.9996,-4.0137,-4.0277,-4.0347,-4.0416,-4.0486,-4.0643,-4.0765,-4.1,-4.1068,-4.1169,-4.1169,-4.1185,-4.1169,-4.1068,-4.1086,-4.1082,-4.0854,-4.0559,-4.0467,-4.0372,-4.0275,-4.0146,-3.9874,-3.9601,-3.961,-3.9535,-3.1005,-3.1218,-3.1556,-3.1682,-3.173,-3.2018,-3.2363,-3.2638,-3.2944,-3.3239,-3.3579,-3.4054,-3.4339,-3.4646,-3.498,-3.4947,-3.4724,-3.4854,-3.4887,-3.4896,-3.4899,-3.4943,-3.5078,-3.5271,-3.562,-3.5824,-3.5955,-3.6098,-3.6228,-3.6307,-3.6107,-3.5768,-3.5793,-3.5441,-3.4964,-3.46,-3.4299,-3.3809,-3.3495,-3.3269,-3.3162,-3.3124,-3.3124,-3.3124,-3.3124,-3.3124,-3.3124,-3.3124,-3.3124,-3.3124,-3.3111,-3.3124,-3.3124,-3.3167,-3.3154,-3.321,-3.3326,-3.3398,-3.3556,-3.367,-3.367,-3.3755,-3.3852,-3.4202,-3.4548,-3.4839,-3.5003,-3.5044,-3.5358,-3.5562,-3.5683,-3.6005,-3.6324,-3.6601,-3.6797,-3.7109,-3.7384,-3.7662,-3.7997,-3.8409,-3.8658,-3.8973,-3.9281,-3.9453,-3.952,-3.952,-3.961,-3.9727,-3.9833,-3.9935,-3.9996,-4.0101,-4.0137,-4.0207,-4.0261,-4.0436,-4.0624,-4.0727,-4.083,-4.083,-4.0777,-4.0742,-4.0658,-4.0761,-4.0879,-4.069,-4.03,-4.0497,-4.0684,-4.0638,-4.0545,-4.0214,-3.9992,-3.9991,-3.9797,-3.0898,-3.0937,-3.1218,-3.1334,-3.1392,-3.1672,-3.2018,-3.2305,-3.2581,-3.2934,-3.3239,-3.3579,-3.3987,-3.438,-3.4571,-3.4691,-3.4648,-3.5215,-3.4918,-3.4713,-3.4734,-3.4811,-3.4844,-3.4993,-3.5223,-3.538,-3.5668,-3.592,-3.6111,-3.6275,-3.6285,-3.6355,-3.6169,-3.5906,-3.5592,-3.5207,-3.4655,-3.4211,-3.3872,-3.3621,-3.3345,-3.3194,-3.3199,-3.3162,-3.3136,-3.3124,-3.3124,-3.3124,-3.3124,-3.3124,-3.3124,-3.3124,-3.3124,-3.3224,-3.325,-3.3262,-3.3375,-3.3474,-3.3561,-3.3573,-3.3696,-3.3725,-3.3883,-3.4109,-3.4471,-3.4486,-3.4575,-3.4967,-3.5307,-3.5436,-3.556,-3.567,-3.6171,-3.6455,-3.6793,-3.7059,-3.7298,-3.7397,-3.7788,-3.8357,-3.8749,-3.9044,-3.9392,-3.96,-3.9791,-3.9817,-3.9636,-3.9723,-3.9754,-3.9832,-3.9833,-3.9874,-3.996,-3.9996,-4.0031,-4.0137,-4.0242,-4.0312,-4.0397,-4.0327,-4.0222,-4.0187,-4.0327,-4.0292,-4.0397,-4.0222,-4.0207,-4.0362,-4.0608,-4.0927,-4.0903,-4.0535,-4.0256,-4.0148,-3.9897,-3.0898,-3.0947,-3.0995,-3.1054,-3.1054,-3.1392,-3.1556,-3.173,-3.2018,-3.242,-3.2877,-3.3239,-3.3579,-3.3963,-3.4345,-3.4492,-3.4582,-3.4805,-3.4819,-3.4767,-3.4732,-3.4594,-3.4551,-3.4649,-3.4775,-3.503,-3.532,-3.5716,-3.6015,-3.6146,-3.6275,-3.637,-3.6417,-3.6317,-3.6031,-3.5671,-3.5069,-3.4618,-3.4399,-3.4248,-3.4123,-3.3721,-3.3583,-3.3583,-3.3169,-3.3149,-3.3124,-3.3124,-3.3124,-3.3162,-3.3187,-3.3212,-3.33,-3.3445,-3.3558,-3.3633,-3.3809,-3.396,-3.3847,-3.3694,-3.3508,-3.4043,-3.4328,-3.4607,-3.4748,-3.4942,-3.5167,-3.5379,-3.5558,-3.5666,-3.6053,-3.6278,-3.6555,-3.6711,-3.6851,-3.7071,-3.7276,-3.7422,-3.7831,-3.8464,-3.8845,-3.9156,-3.951,-3.9809,-4.0008,-4.0153,-3.9905,-3.975,-3.9823,-3.9865,-3.9929,-3.9917,-3.9953,-3.9919,-3.9954,-3.9945,-3.9869,-3.9905,-3.9975,-3.994,-3.9905,-4.0011,-4.0101,-4.0011,-3.9975,-3.9975,-4.0066,-4.0242,-4.0451,-4.0643,-4.0833,-4.0829,-4.0585,-4.0304,-4.0089,-3.0898,-3.0898,-3.0898,-3.0898,-3.0947,-3.1112,-3.1218,-3.1325,-3.1556,-3.196,-3.2467,-3.2773,-3.3058,-3.3388,-3.3851,-3.4132,-3.4236,-3.445,-3.4698,-3.469,-3.4473,-3.4353,-3.4435,-3.4506,-3.458,-3.4726,-3.5078,-3.5476,-3.5824,-3.5968,-3.6181,-3.6323,-3.6417,-3.6392,-3.6304,-3.6006,-3.5504,-3.5056,-3.4919,-3.4781,-3.463,-3.4361,-3.4148,-3.4123,-3.3822,-3.3709,-3.3709,-3.3721,-3.3696,-3.3696,-3.3671,-3.3621,-3.3734,-3.3884,-3.4098,-3.4274,-3.4474,-3.4693,-3.4455,-3.4186,-3.3834,-3.4344,-3.461,-3.4971,-3.5232,-3.5309,-3.532,-3.5561,-3.5789,-3.6043,-3.6306,-3.6352,-3.6515,-3.6623,-3.6849,-3.7062,-3.7342,-3.7523,-3.8062,-3.863,-3.8976,-3.9363,-3.9977,-4.0349,-4.0304,-4.0432,-4.033,-4.0193,-4.0277,-4.0293,-4.0256,-4.0165,-4.0074,-3.9997,-3.9905,-3.9851,-3.976,-3.964,-3.9727,-3.9747,-3.9747,-3.9818,-3.9818,-3.9762,-3.9727,-3.9783,-3.9854,-3.9945,-4.0121,-4.0281,-4.0439,-4.0578,-4.0447,-4.017,-4.0276,-3.0898,-3.0898,-3.0898,-3.0898,-3.0898,-3.0889,-3.1054,-3.1276,-3.1325,-3.1556,-3.1903,-3.2201,-3.2477,-3.282,-3.3172,-3.3455,-3.3794,-3.4179,-3.4372,-3.4239,-3.4249,-3.4256,-3.4259,-3.4255,-3.4249,-3.4531,-3.4835,-3.5223,-3.562,-3.5812,-3.6086,-3.6323,-3.637,-3.6417,-3.6417,-3.6405,-3.6056,-3.5571,-3.5495,-3.5219,-3.5002,-3.4813,-3.4713,-3.463,-3.4455,-3.4361,-3.4349,-3.4349,-3.4336,-3.4361,-3.4387,-3.4399,-3.4462,-3.4542,-3.4655,-3.4693,-3.4801,-3.4839,-3.4763,-3.47,-3.4726,-3.4783,-3.5042,-3.5163,-3.5193,-3.5244,-3.5404,-3.582,-3.5756,-3.5769,-3.59,-3.6121,-3.6433,-3.6718,-3.702,-3.725,-3.752,-3.7806,-3.8322,-3.8702,-3.9183,-3.9676,-4.0421,-4.0872,-4.0771,-4.0713,-4.0671,-4.065,-4.0689,-4.0592,-4.0522,-4.0441,-4.0271,-4.0286,-4.0166,-3.9807,-3.9634,-3.9514,-3.9535,-3.9718,-3.9643,-3.9568,-3.9532,-3.9475,-3.9496,-3.9604,-3.9604,-3.9589,-3.9768,-3.9945,-4.0066,-4.0137,-4.0101,-4.0121,-4.0189,-3.0898,-3.0898,-3.0898,-3.0898,-3.0898,-3.0898,-3.0947,-3.1054,-3.1218,-3.1383,-3.1498,-3.1797,-3.2133,-3.242,-3.2706,-3.2991,-3.3353,-3.3692,-3.3836,-3.4185,-3.3885,-3.3933,-3.3982,-3.3885,-3.3878,-3.4211,-3.4555,-3.4932,-3.532,-3.562,-3.586,-3.6098,-3.6323,-3.6417,-3.6417,-3.6405,-3.6267,-3.6107,-3.6069,-3.6028,-3.578,-3.5466,-3.5219,-3.5207,-3.4931,-3.4793,-3.4806,-3.4876,-3.4831,-3.4876,-3.4876,-3.4851,-3.4914,-3.4981,-3.5219,-3.5332,-3.5504,-3.5805,-3.5805,-3.578,-3.5617,-3.5516,-3.5529,-3.5726,-3.5945,-3.5957,-3.6096,-3.6159,-3.6103,-3.6279,-3.6675,-3.6708,-3.6975,-3.7241,-3.7481,-3.7693,-3.7975,-3.8198,-3.8572,-3.8807,-3.9182,-3.9621,-4.0232,-4.0588,-4.0618,-4.0805,-4.0744,-4.096,-4.105,-4.0817,-4.0633,-4.0672,-4.0569,-4.0577,-4.0476,-4.0233,-4.001,-3.9921,-3.9898,-3.994,-3.9768,-3.9471,-3.9388,-3.9373,-3.9388,-3.9388,-3.946,-3.9481,-3.9496,-3.9604,-3.9762,-3.9905,-3.994,-4.0011,-4.0051,-3.0898,-3.0898,-3.0898,-3.0898,-3.0898,-3.0898,-3.0898,-3.0947,-3.1112,-3.116,-3.1218,-3.1508,-3.173,-3.196,-3.2238,-3.2581,-3.2887,-3.3161,-3.3321,-3.3763,-3.3312,-3.3283,-3.3365,-3.3498,-3.355,-3.3878,-3.4249,-3.4628,-3.5066,-3.5416,-3.5812,-3.6133,-3.631,-3.637,-3.6417,-3.6405,-3.6405,-3.6355,-3.6329,-3.6342,-3.6216,-3.6019,-3.5843,-3.5755,-3.5567,-3.5353,-3.5316,-3.529,-3.5278,-3.5265,-3.5265,-3.5265,-3.5391,-3.5567,-3.583,-3.5968,-3.6094,-3.638,-3.6342,-3.6329,-3.6056,-3.5893,-3.6254,-3.638,-3.6417,-3.6292,-3.6351,-3.6458,-3.6581,-3.6709,-3.6883,-3.6956,-3.7095,-3.7328,-3.7453,-3.7691,-3.7861,-3.8062,-3.8289,-3.8612,-3.8908,-3.9397,-3.9837,-4.0099,-4.0262,-4.0548,-4.0814,-4.106,-4.1299,-4.1135,-4.0954,-4.0969,-4.0999,-4.1057,-4.1002,-4.0799,-4.0571,-4.0349,-4.0278,-4.0204,-3.9779,-3.9468,-3.9377,-3.9301,-3.9337,-3.9352,-3.9388,-3.9424,-3.9424,-3.946,-3.9604,-3.9711,-3.9798,-3.9833,-3.9869,-3.0879,-3.0889,-3.0898,-3.0898,-3.0898,-3.0898,-3.0898,-3.0898,-3.0898,-3.0898,-3.0947,-3.1218,-3.1383,-3.1392,-3.1672,-3.2018,-3.2363,-3.2638,-3.2663,-3.2688,-3.2738,-3.2736,-3.2782,-3.2909,-3.3126,-3.3519,-3.3915,-3.4384,-3.4823,-3.5368,-3.5847,-3.6228,-3.637,-3.6417,-3.6417,-3.6417,-3.6417,-3.6417,-3.6417,-3.6417,-3.6355,-3.6355,-3.6267,-3.6216,-3.6153,-3.6128,-3.6128,-3.6153,-3.6204,-3.6241,-3.6279,-3.6317,-3.6367,-3.6392,-3.6392,-3.6392,-3.6392,-3.6405,-3.6417,-3.6417,-3.6405,-3.6267,-3.6355,-3.6417,-3.6417,-3.6417,-3.6465,-3.6452,-3.6452,-3.6546,-3.6675,-3.6722,-3.6815,-3.6956,-3.7108,-3.7281,-3.7479,-3.7697,-3.7913,-3.8154,-3.844,-3.8845,-3.9234,-3.9543,-3.9837,-4.0087,-4.0334,-4.0633,-4.0956,-4.1555,-4.143,-4.1497,-4.1528,-4.1576,-4.1425,-4.1223,-4.1062,-4.0812,-4.0515,-4.0349,-3.9882,-3.9476,-3.9328,-3.9275,-3.9294,-3.9301,-3.9228,-3.9228,-3.9301,-3.9373,-3.9337,-3.946,-3.9532,-3.9568,-3.9568,-3.0586,-3.0879,-3.0898,-3.0898,-3.0898,-3.0898,-3.0898,-3.0898,-3.0898,-3.0898,-3.0898,-3.1005,-3.1102,-3.1276,-3.1392,-3.1672,-3.195,-3.2187,-3.2272,-3.2215,-3.2141,-3.2276,-3.2298,-3.2292,-3.2611,-3.317,-3.3656,-3.4089,-3.458,-3.5175,-3.5716,-3.6051,-3.6275,-3.637,-3.6417,-3.6417,-3.6417,-3.6417,-3.6417,-3.6417,-3.6417,-3.6417,-3.6417,-3.6417,-3.6417,-3.6417,-3.6417,-3.6417,-3.6417,-3.6417,-3.6417,-3.6417,-3.6417,-3.6417,-3.6405,-3.6405,-3.6405,-3.6417,-3.6417,-3.6417,-3.6417,-3.6417,-3.6417,-3.6417,-3.6417,-3.6417,-3.6417,-3.6417,-3.6417,-3.6499,-3.6546,-3.6593,-3.6628,-3.6722,-3.6828,-3.6968,-3.7155,-3.7294,-3.7513,-3.7756,-3.8044,-3.8362,-3.8756,-3.8966,-3.9264,-3.953,-3.9807,-4.0112,-4.0502,-4.1114,-4.1507,-4.1534,-4.1573,-4.1488,-4.1698,-4.1596,-4.1452,-4.1251,-4.0891,-4.0485,-4.0047,-3.9658,-3.935,-3.918,-3.9112,-3.9031,-3.8943,-3.9031,-3.9104,-3.9017,-3.898,-3.9141,-3.9265,-3.9301,-3.9301,-3.0361,-3.0635,-3.082,-3.0898,-3.0898,-3.0898,-3.0898,-3.0898,-3.0898,-3.0898,-3.0898,-3.0898,-3.0995,-3.1112,-3.116,-3.1325,-3.1604,-3.1546,-3.1527,-3.1515,-3.1418,-3.1508,-3.1556,-3.1763,-3.2234,-3.2807,-3.3369,-3.3805,-3.4347,-3.503,-3.562,-3.6015,-3.6181,-3.6263,-3.6358,-3.6417,-3.6417,-3.6417,-3.6417,-3.6417,-3.6417,-3.6417,-3.6417,-3.6417,-3.6417,-3.6417,-3.6417,-3.6417,-3.6417,-3.6417,-3.6417,-3.6417,-3.6417,-3.6417,-3.6417,-3.6417,-3.6417,-3.6417,-3.6417,-3.6417,-3.6417,-3.6417,-3.6417,-3.6417,-3.6417,-3.6417,-3.6417,-3.6417,-3.6417,-3.6417,-3.6417,-3.6417,-3.6499,-3.6593,-3.6628,-3.6675,-3.6815,-3.6909,-3.7108,-3.7353,-3.7631,-3.7952,-3.8258,-3.8472,-3.8742,-3.9024,-3.9247,-3.9499,-3.9924,-4.0445,-4.0859,-4.1071,-4.1226,-4.1309,-4.1493,-4.1619,-4.1456,-4.1218,-4.0911,-4.0485,-4.0154,-3.9695,-3.9235,-3.898,-3.8833,-3.8782,-3.8723,-3.8782,-3.8855,-3.8745,-3.8708,-3.887,-3.8995,-3.9068,-3.9104,-3.0107,-3.0195,-3.0644,-3.084,-3.0898,-3.0898,-3.0898,-3.0898,-3.0898,-3.0898,-3.0898,-3.0898,-3.0898,-3.0947,-3.1005,-3.0975,-3.1079,-3.1013,-3.0922,-3.0805,-3.0805,-3.0852,-3.104,-3.1281,-3.1783,-3.2403,-3.3019,-3.3557,-3.4211,-3.4835,-3.5428,-3.5968,-3.6015,-3.6146,-3.637,-3.6417,-3.6417,-3.6417,-3.6417,-3.6417,-3.6417,-3.6417,-3.6417,-3.6417,-3.6417,-3.6417,-3.6417,-3.6417,-3.6417,-3.6417,-3.6417,-3.6417,-3.6417,-3.6417,-3.6417,-3.6417,-3.6417,-3.6417,-3.6417,-3.6417,-3.6417,-3.6417,-3.6417,-3.6417,-3.6417,-3.6417,-3.6417,-3.6417,-3.6417,-3.6417,-3.6417,-3.6417,-3.6452,-3.6499,-3.6499,-3.6546,-3.664,-3.6769,-3.6909,-3.7108,-3.7307,-3.7631,-3.7769,-3.7972,-3.8245,-3.8498,-3.8724,-3.8966,-3.9278,-3.9793,-4.0199,-4.053,-4.0702,-4.0859,-4.1071,-4.1156,-4.1283,-4.1068,-4.0837,-4.0672,-4.0357,-3.9735,-3.8995,-3.878,-3.8556,-3.8545,-3.8538,-3.8486,-3.8449,-3.8464,-3.8464,-3.8612,-3.8686,-3.8686,-3.8833,-2.9414,-2.9766,-3.0185,-3.0557,-3.0879,-3.0898,-3.0898,-3.0898,-3.0898,-3.0898,-3.0898,-3.0898,-3.0898,-3.0898,-3.084,-3.0761,-3.0505,-3.0478,-3.0408,-3.0298,-3.0237,-3.0377,-3.0527,-3.092,-3.1384,-3.1885,-3.2544,-3.3457,-3.42,-3.4738,-3.5175,-3.5668,-3.586,-3.6098,-3.637,-3.637,-3.6417,-3.6417,-3.6417,-3.6417,-3.6417,-3.6417,-3.6417,-3.6417,-3.6417,-3.6417,-3.6417,-3.6417,-3.6417,-3.6417,-3.6417,-3.6417,-3.6417,-3.6417,-3.6417,-3.6417,-3.6417,-3.6417,-3.6417,-3.6417,-3.6417,-3.6417,-3.6417,-3.6417,-3.6417,-3.6417,-3.6417,-3.6417,-3.6417,-3.6417,-3.6417,-3.6417,-3.6417,-3.6417,-3.6417,-3.6465,-3.6499,-3.6593,-3.6722,-3.6875,-3.7074,-3.7214,-3.7353,-3.7539,-3.7769,-3.7985,-3.8213,-3.844,-3.8679,-3.9069,-3.9499,-3.9865,-4.0126,-4.03,-4.0502,-4.0674,-4.0802,-4.093,-4.0774,-4.0658,-4.051,-3.9843,-3.91,-3.8562,-3.8285,-3.8274,-3.8176,-3.7915,-3.7877,-3.8028,-3.8089,-3.8165,-3.8089,-3.8066,-3.8352,-2.9062,-2.9346,-2.9941,-3.0342,-3.0596,-3.0801,-3.0898,-3.0898,-3.0898,-3.0898,-3.0898,-3.0898,-3.0889,-3.081,-3.0693,-3.0478,-3.0164,-2.9944,-2.9802,-2.9733,-2.9735,-2.9947,-3.0203,-3.0609,-3.1167,-3.168,-3.2617,-3.3519,-3.415,-3.4531,-3.4872,-3.5368,-3.5716,-3.5955,-3.6181,-3.6323,-3.6417,-3.6417,-3.6417,-3.6417,-3.6417,-3.6417,-3.6417,-3.6417,-3.6417,-3.6417,-3.6417,-3.6417,-3.6417,-3.6417,-3.6417,-3.6417,-3.6417,-3.6417,-3.6417,-3.6417,-3.6417,-3.6417,-3.6417,-3.6417,-3.6417,-3.6417,-3.6417,-3.6417,-3.6417,-3.6417,-3.6417,-3.6417,-3.6417,-3.6417,-3.6417,-3.6417,-3.6417,-3.6417,-3.6417,-3.6417,-3.6452,-3.6499,-3.6534,-3.6593,-3.6781,-3.6909,-3.7049,-3.7214,-3.7387,-3.7479,-3.7697,-3.7985,-3.8181,-3.8317,-3.8769,-3.9158,-3.9424,-3.9719,-4.0012,-4.0185,-4.0329,-4.0459,-4.0574,-4.0393,-4.0096,-3.9681,-3.9193,-3.8666,-3.8236,-3.8035,-3.7877,-3.7595,-3.7586,-3.7763,-3.7725,-3.7687,-3.7572,-3.7495,-3.7787,-2.8857,-2.9033,-2.9707,-3.0068,-3.0166,-3.0537,-3.0684,-3.0693,-3.0693,-3.0684,-3.0644,-3.0644,-3.0732,-3.0644,-3.0342,-3.0166,-2.9873,-2.944,-2.9242,-2.9247,-2.9226,-2.954,-3.0025,-3.0453,-3.1013,-3.1732,-3.2606,-3.3269,-3.3915,-3.4249,-3.464,-3.5138,-3.5428,-3.5668,-3.5955,-3.6181,-3.6323,-3.637,-3.6417,-3.6417,-3.6417,-3.6417,-3.6417,-3.6417,-3.6417,-3.6417,-3.6417,-3.6417,-3.6417,-3.6417,-3.6417,-3.6417,-3.6417,-3.6417,-3.6417,-3.6417,-3.6417,-3.6417,-3.6417,-3.6417,-3.6417,-3.6417,-3.6417,-3.6417,-3.6417,-3.6417,-3.6417,-3.6417,-3.6417,-3.6417,-3.6417,-3.6417,-3.6417,-3.6417,-3.6417,-3.6417,-3.6405,-3.6405,-3.6405,-3.6405,-3.6534,-3.6662,-3.6769,-3.6922,-3.7015,-3.7108,-3.7248,-3.7539,-3.7723,-3.7815,-3.8076,-3.844,-3.8711,-3.9042,-3.9384,-3.9574,-3.9719,-3.9807,-3.9883,-3.9852,-3.9732,-3.948,-3.9182,-3.8809,-3.8396,-3.7904,-3.7618,-3.7356,-3.7402,-3.7394,-3.7278,-3.7123,-3.7162,-3.7162,-3.7303,-2.8613,-2.8935,-2.9101,-2.9365,-2.9678,-2.9861,-2.9824,-2.988,-2.9853,-2.9814,-2.9883,-2.9873,-2.998,-3.0303,-2.9883,-2.9609,-2.9326,-2.8926,-2.8834,-2.8836,-2.899,-2.9321,-2.9774,-3.0297,-3.0899,-3.1618,-3.2353,-3.2908,-3.358,-3.3965,-3.4396,-3.4884,-3.5126,-3.5476,-3.592,-3.6111,-3.6193,-3.6275,-3.6417,-3.6417,-3.6417,-3.6417,-3.6417,-3.6417,-3.6417,-3.6417,-3.6417,-3.6417,-3.6417,-3.6417,-3.6417,-3.6417,-3.6417,-3.6417,-3.6417,-3.6417,-3.6417,-3.6417,-3.6417,-3.6417,-3.6417,-3.6417,-3.6417,-3.6417,-3.6417,-3.6417,-3.6417,-3.6417,-3.6417,-3.6417,-3.6417,-3.6417,-3.6417,-3.6417,-3.6417,-3.6417,-3.6405,-3.6405,-3.6405,-3.6405,-3.6452,-3.6499,-3.6499,-3.664,-3.6781,-3.6862,-3.7002,-3.7248,-3.7294,-3.7387,-3.7479,-3.7756,-3.8076,-3.8362,-3.8724,-3.889,-3.9069,-3.9158,-3.9309,-3.944,-3.9438,-3.9391,-3.9089,-3.8796,-3.8169,-3.7572,-3.7306,-3.7156,-3.687,-3.6825,-3.6668,-3.6589,-3.6668,-3.6786,-3.6929]},{"header":{"parameterUnit":"m.s-1","parameterCategory":1,"la1":31.0,"la2":29.5877,"lo1":-88.7671,"lo2":-86.6584,"dy":0.0162,"dx":0.0185,"nx":115,"ny":88,"refTime":"2024-03-07T06:00:00:Z","depth":0,"parameterNumber":3,"parameterNumberName":"V-component_of_WINDS"},"data":[0.0,0.0,0.0,0.0,0.0,0.0,0.0,0.0,0.0,0.0,0.0,0.0,0.0,0.0,0.0,0.0,0.0,0.0,0.0,0.0,0.0,0.0,0.0,0.0,0.0,0.0,0.0,0.0,0.0,0.0,0.0,0.0,0.0,0.0,0.0,0.0,0.0,0.0,0.0,0.0,0.0,0.0,0.0,0.0,0.0,0.0,0.0,0.0,0.0,0.0,0.0,0.0,0.0,0.0,0.0,0.0,0.0,0.0,0.0,0.0,0.0,0.0,0.0,0.0,0.0,0.0,0.0,0.0,0.0,0.0,0.0,0.0,0.0,0.0,0.0,0.0,0.0,0.0,0.0,0.0,0.0,0.0,0.0,0.0,0.0,0.0,0.0,0.0,0.0,0.0,0.0,0.0,0.0,0.0,0.0,0.0,0.0,0.0,0.0,0.0,0.0,0.0,0.0,0.0,0.0,0.0,0.0,0.0,0.0,0.0,0.0,0.0,0.0,0.0,0.0,0.0,0.0,0.0,0.0,0.0,0.0,0.0,0.0,0.0,0.0,0.0,0.0,0.0,0.0,0.0,0.0,0.0,0.0,0.0,0.0,0.0,0.0,0.0,0.0,0.0,0.0,0.0,0.0,0.0,0.0,0.0,0.0,0.0,0.0,0.0,0.0,0.0,0.0,0.0,0.0,0.0,0.0,0.0,0.0,0.0,0.0,0.0,0.0,0.0,0.0,0.0,0.0,0.0,0.0,0.0,0.0,0.0,0.0,0.0,0.0,0.0,0.0,0.0,0.0,0.0,0.0,0.0,0.0,0.0,0.0,0.0,0.0,0.0,0.0,0.0,0.0,0.0,0.0,0.0,0.0,0.0,0.0,0.0,0.0,0.0,0.0,0.0,0.0,0.0,0.0,0.0,0.0,0.0,0.0,0.0,0.0,0.0,0.0,0.0,0.0,0.0,0.0,0.0,0.0,0.0,0.0,0.0,0.0,0.0,0.0,0.0,0.0,0.0,0.0,0.0,0.0,0.0,0.0,0.0,0.0,0.0,0.0,0.0,0.0,0.0,0.0,0.0,0.0,0.0,0.0,0.0,0.0,0.0,0.0,0.0,0.0,0.0,0.0,0.0,0.0,0.0,0.0,0.0,0.0,0.0,0.0,0.0,0.0,0.0,0.0,0.0,0.0,0.0,0.0,0.0,0.0,0.0,0.0,0.0,0.0,0.0,0.0,0.0,0.0,0.0,0.0,0.0,0.0,0.0,0.0,0.0,0.0,0.0,0.0,0.0,0.0,0.0,0.0,0.0,0.0,0.0,0.0,0.0,0.0,0.0,0.0,0.0,0.0,0.0,0.0,0.0,0.0,0.0,0.0,0.0,0.0,0.0,0.0,0.0,0.0,0.0,0.0,0.0,0.0,0.0,0.0,0.0,0.0,0.0,0.0,0.0,0.0,0.0,0.0,0.0,0.0,0.0,0.0,0.0,0.0,0.0,0.0,0.0,0.0,0.0,0.0,0.0,0.0,0.0,0.0,0.0,0.0,0.0,0.0,0.0,0.0,0.0,0.0,0.0,0.0,0.0,0.0,0.0,0.0,0.0,0.0,0.0,0.0,0.0,0.0,0.0,0.0,0.0,0.0,0.0,0.0,0.0,0.0,0.0,0.0,0.0,0.0,0.0,0.0,0.0,0.0,0.0,0.0,0.0,0.0,0.0,0.0,0.0,0.0,0.0,0.0,0.0,0.0,0.0,0.0,0.0,0.0,0.0,0.0,0.0,0.0,0.0,0.0,0.0,0.0,0.0,0.0,0.0,0.0,0.0,0.0,0.0,0.0,0.0,0.0,0.0,0.0,0.0,0.0,0.0,0.0,0.0,0.0,0.0,0.0,0.0,0.0,0.0,0.0,0.0,0.0,0.0,0.0,0.0,0.0,0.0,0.0,0.0,0.0,0.0,0.0,0.0,0.0,0.0,0.0,0.0,0.0,0.0,0.0,0.0,0.0,0.0,0.0,0.0,0.0,0.0,0.0,0.0,0.0,0.0,0.0,0.0,0.0,0.0,0.0,0.0,0.0,0.0,0.0,0.0,0.0,0.0,0.0,0.0,0.0,0.0,0.0,0.0,0.0,0.0,0.0,0.0,0.0,0.0,0.0,0.0,0.0,0.0,0.0,0.0,0.0,0.0,0.0,0.0,0.0,0.0,0.0,0.0,0.0,0.0,0.0,0.0,0.0,0.0,0.0,0.0,0.0,0.0,0.0,0.0,0.0,0.0,0.0,0.0,0.0,0.0,0.0,0.0,0.0,0.0,0.0,0.0,0.0,0.0,0.0,0.0,0.0,0.0,0.0,0.0,0.0,0.0,0.0,0.0,0.0,0.0,0.0,0.0,0.0,0.0,0.0,0.0,0.0,0.0,0.0,0.0,0.0,0.0,0.0,0.0,0.0,0.0,0.0,0.0,0.0,0.0,0.0,0.0,0.0,0.0,0.0,0.0,0.0,0.0,0.0,0.0,0.0,0.0,0.0,0.0,0.0,0.0,0.0,0.0,0.0,0.0,0.0,0.0,0.0,0.0,0.0,0.0,0.0,0.0,0.0,0.0,0.0,0.0,0.0,0.0,0.0,0.0,0.0,0.0,0.0,0.0,0.0,0.0,0.0,0.0,0.0,0.0,0.0,0.0,0.0,0.0,0.0,0.0,0.0,0.0,0.0,0.0,0.0,0.0,0.0,0.0,0.0,0.0,0.0,0.0,0.0,0.0,0.0,0.0,0.0,0.0,0.0,0.0,0.0,0.0,0.0,0.0,0.0,0.0,0.0,0.0,0.0,0.0,0.0,0.0,0.0,0.0,0.0,0.0,0.0,0.0,0.0,0.0,0.0,0.0,0.0,0.0,0.0,0.0,0.0,0.0,0.0,0.0,0.0,0.0,0.0,0.0,0.0,0.0,0.0,0.0,0.0,0.0,0.0,0.0,0.0,0.0,0.0,0.0,0.0,0.0,0.0,0.0,0.0,0.0,0.0,0.0,0.0,0.0,0.0,0.0,0.0,0.0,0.0,0.0,0.0,0.0,0.0,0.0,0.0,0.0,0.0,0.0,0.0,0.0,0.0,0.0,0.0,0.0,0.0,0.0,0.0,0.0,0.0,0.0,0.0,0.0,0.0,0.0,0.0,0.0,0.0,0.0,0.0,0.0,0.0,0.0,0.0,0.0,0.0,0.0,0.0,0.0,0.0,0.0,0.0,0.0,0.0,0.0,0.0,0.0,0.0,0.0,0.0,0.0,0.0,0.0,0.0,0.0,0.0,0.0,0.0,0.0,0.0,0.0,0.0,0.0,0.0,0.0,0.0,0.0,0.0,0.0,0.0,0.0,0.0,0.0,0.0,0.0,0.0,0.0,0.0,0.0,0.0,0.0,0.0,0.0,0.0,0.0,0.0,0.0,0.0,0.0,0.0,0.0,0.0,0.0,0.0,0.0,0.0,0.0,0.0,0.0,0.0,0.0,0.0,0.0,0.0,0.0,0.0,0.0,0.0,0.0,0.0,0.0,0.0,0.0,0.0,0.0,0.0,0.0,0.0,0.0,0.0,0.0,0.0,0.0,0.0,0.0,0.0,0.0,0.0,0.0,0.0,0.0,0.0,0.0,0.0,0.0,0.0,0.0,0.0,0.0,0.0,0.0,0.0,0.0,0.0,0.0,0.0,0.0,0.0,0.0,0.0,0.0,0.0,0.0,0.0,0.0,0.0,0.0,0.0,0.0,0.0,0.0,0.0,0.0,0.0,0.0,0.0,0.0,0.0,0.0,0.0,0.0,0.0,0.0,0.0,0.0,0.0,0.0,0.0,0.0,0.0,0.0,0.0,0.0,0.0,0.0,0.0,0.0,0.0,0.0,0.0,0.0,0.0,0.0,0.0,0.0,0.0,0.0,0.0,0.0,0.0,0.0,0.0,0.0,0.0,0.0,0.0,0.0,0.0,0.0,0.0,0.0,0.0,0.0,0.0,0.0,0.0,0.0,0.0,0.0,0.0,0.0,0.0,0.0,0.0,0.0,0.0,0.0,0.0,0.0,0.0,0.0,0.0,0.0,0.0,0.0,0.0,0.0,0.0,0.0,0.0,0.0,0.0,0.0,0.0,0.0,0.0,0.0,0.0,0.0,0.0,0.0,0.0,0.0,0.0,0.0,0.0,0.0,0.0,0.0,0.0,0.0,0.0,0.0,0.0,0.0,0.0,0.0,0.0,0.0,0.0,0.0,0.0,0.0,0.0,0.0,0.0,0.0,0.3354,0.0,0.0,0.0,0.0,0.0,0.0,0.0,0.0,0.0,0.0,0.0,0.0,0.0,0.0,0.0,0.0,0.0,0.0,0.0,0.0,0.0,0.0,0.0,0.0,0.0,0.0,0.0,0.0,0.0,0.0,0.0,0.0,0.0,0.0,0.0,0.0,0.0,0.0,0.0,0.0,0.0,0.0,0.0,0.0,0.0,0.0,0.0,0.0,0.0,0.0,0.0,0.0,0.0,0.0,0.0,0.0,0.0,0.0,0.0,0.0,0.0,0.0,0.0,0.0,0.0,0.0,0.0,0.0,0.0,0.0,0.0,0.0,0.0,0.0,0.0,0.0,0.0,0.0,0.0,0.0,0.0,0.0,0.0,0.0,0.0,0.0,0.0,0.0,0.0,0.0,0.0,0.0,0.0,0.0,0.0,0.0,0.0,0.0,0.0,0.0,0.0,0.0,0.0,0.0,0.0,0.0,0.0,0.0,0.0,0.0,0.3565,0.3759,0.3888,0.3889,0.3735,0.0,0.0,0.0,0.0,0.0,0.0,0.0,0.0,0.0,0.0,0.0,0.0,0.0,0.0,0.0,0.0,0.0,0.0,0.0,0.0,0.0,0.0,0.0,0.0,0.0,0.0,0.0,0.0,0.0,0.0,0.0,0.0,0.0,0.0,0.0,0.0,0.0,0.0,0.0,0.0,0.0,0.0,0.0,0.0,0.0,0.0,0.0,0.0,0.0,0.0,0.0,0.0,0.0,0.0,0.0,0.0,0.0,0.0,0.0,0.0,0.0,0.0,0.0,0.0,0.0,0.0,0.0,0.0,0.0,0.0,0.0,0.0,0.0,0.0,0.0,0.0,0.0,0.0,0.0,0.0,0.0,0.0,0.0,0.0,0.0,0.0,0.0,0.0,0.0,0.0,0.0,0.0,0.0,0.0,0.0,0.0,0.0,0.0,0.0,0.0,0.0,0.0,0.0,0.0,0.0,0.0,0.0,0.0,0.0,0.0,0.0,0.0,0.429,0.4283,0.4149,0.0,0.0,0.0,0.0,0.0,0.0,0.0,0.0,0.0,0.0,0.0,0.0,0.0,0.0,0.0,0.0,0.0,0.0,0.0,0.0,0.0,0.0,0.0,0.0,0.0,0.0,0.0,0.0,0.0,0.0,0.0,0.0,0.0,0.0,0.0,0.0,0.0,0.0,0.0,0.0,0.0,0.0,0.0,0.0,0.0,0.0,0.0,0.0,0.0,0.0,0.0,0.0,0.0,0.0,0.0,0.0,0.0,0.0,0.0,0.0,0.0,0.0,0.0,0.0,0.0,0.0,0.0,0.0,0.0,0.0,0.0,0.0,0.0,0.0,0.0,0.0,0.0,0.0,0.0,0.0,0.0,0.0,0.0,0.0,0.0,0.0,0.0,0.0,0.0,0.0,0.0,0.0,0.0,0.0,0.0,0.0,0.0,0.0,0.0,0.0,0.0,0.0,0.0,0.0,0.0,0.0,0.0,0.0,0.0,0.0,0.4677,0.4796,0.482,0.0,0.4565,0.0,0.0,0.0,0.0,0.0,0.0,0.0,0.0,0.0,0.0,0.0,0.0,0.0,0.0,0.0,0.0,0.0,0.0,0.0,0.0,0.0,0.0,0.0,0.0,0.0,0.0,0.0,0.0,0.0,0.0,0.0,0.0,0.0,0.0,0.0,0.0,0.0,0.0,0.0,0.0,0.0,0.0,0.0,0.0,0.0,0.0,0.0,0.0,0.0,0.0,0.0,0.0,0.0,0.0,0.0,0.0,0.0,0.0,0.0,0.0,0.0,0.0,0.0,0.0,0.0,0.0,0.0,0.0,0.0,0.0,0.0,0.0,0.0,0.0,0.0,0.0,0.0,0.0,0.0,0.0,0.0,0.0,0.0,0.0,0.0,0.0,0.0,0.0,0.0,0.0,0.0,0.0,0.0,0.0,0.0,0.0,0.0,0.0,0.0,0.0,0.0,0.0,0.0,0.0,0.0,0.0,0.0,0.0,0.0,0.0,0.4987,0.5117,0.5212,0.5198,0.0,0.0,0.0,0.0,0.0,0.0,0.0,0.0,0.0,0.0,0.0,0.0,0.0,0.0,0.0,0.0,0.0,0.0,0.0,0.0,0.0,0.0,0.0,0.0,0.0,0.0,0.0,0.0,0.0,0.0,0.0,0.0,0.0,0.0,0.0,0.0,0.0,0.0,0.0,0.0,0.0,0.0,0.0,0.0,0.0,0.0,0.0,0.0,0.0,0.0,0.0,0.0,0.0,0.0,0.0,0.0,0.0,0.0,0.0,0.0,0.0,0.0,0.0,0.0,0.0,0.0,0.0,0.0,0.0,0.0,0.0,0.0,0.0,0.0,0.0,0.0,0.0,0.0,0.0,0.0,0.0,0.0,0.0,0.0,0.0,0.0,0.0,0.0,0.0,0.0,0.0,0.0,0.0,0.0,0.0,0.0,0.0,0.0,0.0,0.0,0.0,0.0,0.0,0.0,0.0,0.0,0.0,0.0,0.0,0.0,0.5371,0.5449,0.5605,0.5752,0.5766,0.5628,0.0,0.0,0.0,0.0,0.0,0.0,0.0,0.0,0.0,0.0,0.0,0.0,0.0,0.0,0.0,0.0,0.0,0.0,0.0,0.0,0.0,0.0,0.0,0.0,0.0,0.0,0.0,0.0,0.0,0.0,0.0,0.0,0.0,0.0,0.0,0.0,0.0,0.0,0.0,0.0,0.0,0.0,0.0,0.0,0.0,0.0,0.0,0.0,0.0,0.0,0.0,0.0,0.0,0.0,0.0,0.0,0.0,0.0,0.0,0.0,0.0,0.0,0.0,0.0,0.0,0.0,0.0,0.0,0.0,0.0,0.0,0.0,0.0,0.0,0.0,0.0,0.0,0.0,0.0,0.0,0.0,0.0,0.0,0.0,0.0,0.0,0.0,0.0,0.0,0.0,0.0,0.0,0.0,0.0,0.0,0.0,0.0,0.0,0.0,0.0,0.0,0.0,0.0,0.0,0.0,0.0,0.0,0.0,0.5764,0.6018,0.6213,0.6349,0.6534,0.6509,0.0,0.0,0.0,0.0,0.0,0.0,0.0,0.0,0.0,0.0,0.0,0.0,0.0,0.0,0.0,0.0,0.0,0.0,0.0,0.0,0.0,0.0,0.0,0.0,0.0,0.0,0.0,0.0,0.0,0.0,0.0,0.0,0.0,0.0,0.0,0.0,0.0,0.0,0.0,0.0,0.0,0.0,0.0,0.0,0.0,0.0,0.0,0.0,0.0,0.0,0.0,0.0,0.0,0.0,0.0,0.0,0.0,0.0,0.0,0.0,0.0,0.0,0.0,0.0,0.0,0.0,0.0,0.0,0.0,0.0,0.0,0.0,0.0,0.0,0.0,0.0,0.0,0.0,0.0,0.0,0.0,0.0,0.0,0.0,0.0,0.0,0.0,0.0,0.0,0.0,0.0,0.0,0.0,0.0,0.0,0.0,0.0,0.0,0.0,0.0,0.0,0.0,0.0,0.0,0.0,0.0,0.0,0.0,0.0,0.6367,0.6647,0.6837,0.6972,0.7133,0.7047,0.0,0.0,0.0,0.0,0.0,0.0,0.0,0.0,0.0,0.0,0.0,0.0,0.0,0.0,0.0,0.0,0.0,0.0,0.0,0.0,0.0,0.0,0.0,0.0,0.0,0.0,0.0,0.0,0.0,0.0,0.0,0.0,0.0,0.0,0.0,0.0,0.0,0.0,0.0,0.0,0.0,0.0,0.0,0.0,0.0,0.0,0.0,0.0,0.0,0.0,0.0,0.0,0.0,0.0,0.0,0.0,0.0,0.0,0.0,0.0,0.0,0.0,0.0,0.0,0.0,0.0,0.0,0.0,0.0,0.0,0.0,0.0,0.0,0.0,0.0,0.0,0.0,0.0,0.0,0.0,0.0,0.0,0.0,0.0,0.0,0.0,0.0,0.0,0.0,0.0,0.0,0.0,0.0,0.0,0.0,0.0,0.0,0.0,0.0,0.0,0.0,0.0,0.0,0.0,0.0,0.0,0.0,0.0,0.0,0.7101,0.0,0.7423,0.7563,0.7681,0.7561,0.0,0.0,0.0,0.0,0.0,0.0,0.0,0.0,0.0,0.0,0.0,0.0,0.0,0.0,0.0,0.0,0.0,0.0,0.0,0.0,0.0,0.0,0.0,0.0,0.0,0.0,0.0,0.0,0.0,0.0,0.0,0.0,0.0,0.0,0.0,0.0,0.0,0.0,0.0,0.0,0.0,0.0,0.0,0.0,0.0,0.0,0.0,0.0,0.0,0.0,0.0,0.0,0.0,0.0,0.0,0.0,0.0,0.0,0.0,0.0,0.0,0.0,0.0,0.0,0.0,0.0,0.0,0.0,0.0,0.0,0.0,0.0,0.0,0.0,0.0,0.0,0.0,0.0,0.0,0.0,0.0,0.0,0.0,0.0,0.0,0.0,0.0,0.0,0.0,0.0,0.0,0.0,0.0,0.0,0.0,0.0,0.0,0.0,0.0,0.0,0.0,0.0,0.0,0.0,0.0,0.0,0.0,0.0,0.7655,0.791,0.7937,0.8035,0.8201,0.8207,0.8149,0.0,0.0,0.0,0.0,0.0,0.0,0.0,0.0,0.0,0.0,0.0,0.0,0.0,0.0,0.0,0.0,0.0,0.0,0.0,0.0,0.0,0.0,0.0,0.0,0.0,0.0,0.0,0.0,0.0,0.0,0.0,0.0,0.0,0.0,0.0,0.0,0.0,0.0,0.0,0.0,0.0,0.0,0.0,0.0,0.0,0.0,0.0,0.0,0.0,0.0,0.0,0.0,0.0,0.0,0.0,0.0,0.0,0.0,0.0,0.0,0.0,0.0,0.0,0.0,0.0,0.0,0.0,0.0,0.0,0.0,0.0,0.0,0.0,0.0,0.0,0.0,0.0,0.0,0.0,0.0,0.0,0.0,0.0,0.0,0.0,0.0,0.0,0.0,0.0,0.0,0.0,0.0,0.0,0.0,0.0,0.0,0.0,0.0,0.0,0.0,0.0,0.0,0.0,0.0,0.0,0.0,0.0,0.0,0.0,0.873,0.8839,0.8949,0.9078,0.9112,0.8924,0.0,0.0,0.0,0.0,0.0,0.0,0.0,0.0,0.0,0.0,0.0,0.0,0.0,0.0,0.0,0.0,0.0,0.0,0.0,0.0,0.0,0.0,0.0,0.0,0.0,0.0,0.0,0.0,0.0,0.0,0.0,0.0,0.0,0.0,0.0,0.0,0.0,0.0,0.0,0.0,0.0,0.0,0.0,0.0,0.0,0.0,0.0,0.0,0.0,0.0,0.0,0.0,0.0,0.0,0.0,0.0,0.0,0.0,0.0,0.0,0.0,0.0,0.0,0.0,0.0,0.0,0.0,0.0,0.0,0.0,0.0,0.0,0.0,0.0,0.0,0.0,0.0,0.0,0.0,0.0,0.0,0.0,0.0,0.0,0.0,0.0,0.0,0.0,0.0,0.0,0.0,0.0,0.0,0.0,0.0,0.0,0.0,0.0,0.0,0.0,0.0,0.0,0.0,0.0,0.0,0.0,0.0,0.0,0.0,1.0023,0.9813,0.9785,0.9939,0.9826,0.9633,0.9346,0.0,0.0,0.0,0.0,0.0,0.0,0.0,0.0,0.0,0.0,0.0,0.0,0.0,0.0,0.0,0.0,0.0,0.0,0.0,0.0,0.0,0.0,0.0,0.0,0.0,0.0,0.0,0.0,0.0,0.0,0.0,0.0,0.0,0.0,0.0,0.0,0.0,0.0,0.0,0.0,0.0,0.0,0.0,0.0,0.0,0.0,0.0,0.0,0.0,0.0,0.0,0.0,0.0,0.0,0.0,0.0,0.0,0.0,0.0,0.0,0.0,0.0,0.0,0.0,0.0,0.0,0.0,0.0,0.0,0.0,0.0,0.0,0.0,0.0,0.0,0.0,0.0,0.0,0.0,0.0,0.0,0.0,0.0,0.0,0.0,0.0,0.0,0.0,0.0,0.0,0.0,0.0,0.0,0.0,0.0,0.0,0.0,0.0,0.0,0.0,0.0,0.0,0.0,0.0,0.0,0.0,0.0,0.0,1.1635,1.0945,1.0646,1.0767,1.0455,1.027,0.0,0.0,0.0,0.0,0.0,0.0,0.0,0.0,0.0,0.0,0.0,0.0,0.0,0.0,0.0,0.0,0.0,0.0,0.0,0.0,0.0,0.0,0.0,0.0,0.0,0.0,0.0,0.0,0.0,0.0,0.0,0.0,0.0,0.0,0.0,0.0,0.0,0.0,0.0,0.0,0.0,0.0,0.0,0.0,0.0,0.0,0.0,0.0,0.0,0.0,0.0,0.0,0.0,0.0,0.0,0.0,0.0,0.0,0.0,0.0,0.0,0.0,0.0,0.0,0.0,0.0,0.0,0.0,0.0,0.0,0.0,0.0,0.0,0.0,0.0,0.0,0.0,0.0,0.0,0.0,0.0,0.0,0.0,0.0,0.0,0.0,0.0,0.0,0.0,0.0,0.0,0.0,0.0,0.0,0.0,0.0,0.0,0.0,0.0,0.0,0.0,0.0,0.0,0.0,0.0,0.0,0.0,0.0,0.0,1.2313,1.2335,1.2125,1.1754,1.1344,1.1087,0.0,0.0,0.0,0.0,0.0,0.0,0.0,0.0,0.0,0.0,0.0,0.0,0.0,0.0,0.0,0.0,0.0,0.0,0.0,0.0,0.0,0.0,0.0,0.0,0.0,0.0,0.0,0.0,0.0,0.0,0.0,0.0,0.0,0.0,0.0,0.0,0.0,0.0,0.0,0.0,0.0,0.0,0.0,0.0,0.0,0.0,0.0,0.0,0.0,0.0,0.0,0.0,0.0,0.0,0.0,0.0,0.0,0.0,0.0,0.0,0.0,0.0,0.0,0.0,0.0,0.0,0.0,0.0,0.0,0.0,0.0,0.0,0.0,0.0,0.0,0.0,0.0,0.0,0.0,0.0,0.0,0.0,0.0,0.0,0.0,0.0,0.0,0.0,0.0,0.0,0.0,0.0,0.0,0.0,0.0,0.0,0.0,0.0,0.0,0.0,0.0,0.0,0.0,0.0,0.0,0.0,0.0,0.0,1.2114,1.3164,1.3326,1.3296,1.3105,1.2294,1.1817,0.0,0.0,0.0,0.0,0.0,0.0,0.0,0.0,0.0,0.0,0.0,0.0,0.0,0.0,0.0,0.0,0.0,0.0,0.0,0.0,0.0,0.0,0.0,0.0,0.0,0.0,0.0,0.0,0.0,0.0,0.0,0.0,0.0,0.0,0.0,0.0,0.0,0.0,0.0,0.0,0.0,0.0,0.0,0.0,0.0,0.0,0.0,0.0,0.0,0.0,0.0,0.0,0.0,0.0,0.0,0.0,0.0,0.0,0.0,0.0,0.0,0.0,0.0,0.0,0.0,0.0,0.0,0.0,0.0,0.0,0.0,0.0,0.0,0.0,0.0,0.0,0.0,0.0,0.0,0.0,0.0,0.0,0.0,0.0,0.0,0.0,0.0,0.0,0.0,0.0,0.0,0.0,0.0,0.0,0.0,0.0,0.0,0.0,0.0,0.0,0.0,0.0,0.0,0.0,0.0,0.0,0.0,0.0,1.2771,1.4013,1.407,1.424,1.451,1.3245,1.2543,0.0,0.0,0.0,0.0,0.0,0.0,0.0,0.0,0.0,0.0,0.0,0.0,0.0,0.0,0.0,0.0,0.0,0.0,0.0,0.0,0.0,0.0,0.0,0.0,0.0,0.0,0.0,0.0,0.0,0.0,0.0,0.0,0.0,0.0,0.0,0.0,0.0,0.0,0.0,0.0,0.0,0.0,0.0,0.0,0.0,0.0,0.0,0.0,0.0,0.0,0.0,0.0,0.0,0.0,0.0,0.0,0.0,0.0,0.0,0.0,0.0,0.0,0.0,0.0,0.0,0.0,0.0,0.0,0.0,0.0,0.0,0.0,0.0,0.0,0.0,0.0,0.0,0.0,0.0,0.0,0.0,0.0,0.0,0.0,0.0,0.0,0.0,0.0,0.0,0.0,0.0,0.0,0.0,0.0,0.0,0.0,0.0,0.0,0.0,0.0,0.0,0.0,0.0,0.0,0.0,0.0,0.0,0.0,1.3609,1.4519,1.4529,1.4656,1.4872,1.4039,1.3505,0.0,0.0,0.0,0.0,0.0,0.0,0.0,0.0,0.0,0.0,0.0,0.0,0.0,0.0,0.0,0.0,0.0,0.0,0.0,0.0,0.0,0.0,0.0,0.0,0.0,0.0,0.0,0.0,0.0,0.0,0.0,0.0,0.0,0.0,0.0,0.0,0.0,0.0,0.0,0.0,0.0,0.0,0.0,0.0,0.0,0.0,0.0,0.0,0.7,0.0,0.0,0.0,0.0,0.0,0.0,0.0,0.0,0.0,0.0,0.0,0.0,0.0,0.0,0.0,0.0,0.0,0.0,0.0,0.0,0.0,0.0,0.0,0.0,0.0,0.0,0.0,0.0,0.0,0.0,0.0,0.0,0.0,0.0,0.0,0.0,0.0,0.0,0.0,0.0,0.0,0.0,0.0,0.0,0.0,0.0,0.0,0.0,0.0,0.0,0.0,0.0,0.0,0.0,0.0,0.0,0.0,0.0,0.0,1.42,1.4913,1.4931,1.502,1.5157,1.4792,1.4279,0.0,0.0,0.0,0.0,0.0,0.0,0.0,0.0,0.0,0.0,0.0,0.0,0.0,0.0,0.0,0.0,0.0,0.0,0.0,0.0,0.0,0.0,0.0,0.0,0.0,0.0,0.0,0.0,0.0,0.0,0.0,0.0,0.0,0.0,0.0,0.0,0.0,0.0,0.0,0.0,0.0,0.0,0.0,0.0,0.0,0.0,0.0,0.0,0.0,0.0,0.0,0.0,0.0,0.0,0.0,0.0,0.0,0.0,0.0,0.0,0.0,0.0,0.0,0.0,0.0,0.0,0.0,0.0,0.0,0.0,0.0,0.0,0.0,0.0,0.0,0.0,0.0,0.0,0.0,0.0,0.0,0.0,0.0,0.0,0.0,0.0,0.0,0.0,0.0,0.0,0.0,0.0,0.0,0.0,0.0,0.0,0.0,0.0,0.0,0.0,0.0,0.0,0.0,0.0,0.0,0.0,0.0,1.4082,1.462,1.5196,1.5235,1.5293,1.541,1.542,1.4896,1.3811,0.0,0.0,0.0,0.0,0.0,0.0,0.0,0.0,0.0,0.0,0.0,0.0,0.0,0.0,0.0,0.0,0.0,0.0,0.0,0.0,0.0,0.0,0.0,0.0,0.0,0.0,0.0,0.0,0.0,0.0,0.0,0.0,0.0,0.0,0.0,0.0,0.0,0.0,0.7066,0.733,0.0,0.0,0.0,0.0,0.0,0.0,0.0,0.0,0.7558,0.0,0.0,0.0,0.0,0.0,0.0,0.0,0.0,0.0,0.0,0.0,0.0,0.0,0.0,0.0,0.0,0.0,0.0,0.0,0.0,0.0,0.0,0.0,0.0,0.0,0.0,0.0,0.0,0.0,0.0,0.0,0.0,0.0,0.0,0.0,0.0,0.0,0.0,0.0,0.0,0.0,0.0,0.0,0.0,0.0,0.0,0.0,0.0,0.0,0.0,0.0,0.0,0.0,0.0,0.0,0.0,1.3936,1.4658,1.5129,1.5362,1.5352,1.5391,1.542,1.542,1.4981,1.4109,0.0,0.0,0.0,0.0,0.0,0.0,0.0,0.0,0.0,0.0,0.0,0.0,0.0,0.0,0.0,0.0,0.0,0.0,0.0,0.0,0.0,0.0,0.0,0.0,0.0,0.0,0.0,0.0,0.0,0.0,0.0,0.0,0.0,0.0,0.0,0.0,0.0,0.0,0.0,0.7479,0.7598,0.0,0.0,0.0,0.0,0.0,0.0,0.0,0.0,0.7812,0.0,0.0,0.0,0.0,0.0,0.0,0.0,0.0,0.0,0.0,0.0,0.0,0.0,0.0,0.0,0.0,0.0,0.0,0.0,0.0,0.0,0.0,0.0,0.0,0.0,0.0,0.0,0.0,0.0,0.0,0.0,0.0,0.0,0.0,0.0,0.0,0.0,0.0,0.0,0.0,0.0,0.0,0.0,0.0,0.0,0.0,0.0,0.0,0.0,0.0,0.0,0.0,0.0,0.0,0.0,1.4072,1.4877,1.5342,1.541,1.542,1.542,1.542,1.542,1.5038,0.0,0.0,0.0,0.0,0.0,0.0,0.0,0.0,0.0,0.0,0.0,0.0,0.0,0.0,0.0,0.0,0.0,0.0,0.0,0.0,0.0,0.0,0.0,0.0,0.0,0.0,0.0,0.0,0.0,0.0,0.0,0.0,0.0,0.0,0.0,0.0,0.0,0.0,0.0,0.0,0.7859,0.8067,0.8318,0.0,0.0,0.0,0.0,0.0,0.0,0.8163,0.8103,0.0,0.0,0.0,0.0,0.0,0.0,0.0,0.0,0.0,0.0,0.0,0.0,0.0,0.0,0.0,0.0,0.0,0.0,0.0,0.0,0.0,0.0,0.0,0.0,0.0,0.0,0.0,0.0,0.0,0.0,0.0,0.0,0.0,0.0,0.0,0.0,0.0,0.0,0.0,0.0,0.0,0.0,0.0,0.0,0.0,0.0,0.0,0.0,0.0,0.0,0.0,0.0,0.0,0.0,0.0,1.4133,1.4942,1.542,1.542,1.5439,1.5478,1.5439,1.5478,1.5123,0.0,0.0,0.0,0.0,0.0,0.0,0.0,0.0,0.0,0.0,0.0,0.0,0.0,0.0,0.0,0.0,0.0,0.0,0.0,0.0,0.0,0.0,0.0,0.0,0.0,0.0,0.0,0.0,0.0,0.0,0.0,0.0,0.0,0.0,0.0,0.0,0.0,0.0,0.0,0.0,0.0,0.8477,0.8771,0.8778,0.0,0.0,0.0,0.0,0.8584,0.855,0.0,0.0,0.0,0.0,0.0,0.0,0.0,0.0,0.0,0.0,0.0,0.0,0.0,0.0,0.0,0.0,0.0,0.0,0.0,0.0,0.0,0.0,0.0,0.0,0.0,0.0,0.0,0.0,0.0,0.0,0.0,0.0,0.0,0.0,0.0,0.0,0.0,0.0,0.0,0.0,0.0,0.0,0.0,0.0,0.0,0.0,0.0,0.0,0.0,0.0,0.0,0.0,0.0,0.0,0.0,0.0,1.4143,1.4952,1.542,1.542,1.5575,1.5672,1.5672,1.5798,1.5435,0.0,0.0,0.0,0.0,0.0,0.0,0.0,0.0,0.0,0.0,0.0,0.0,0.0,0.0,0.0,0.0,0.0,0.0,0.0,0.0,0.0,0.0,0.0,0.0,0.0,0.0,0.0,0.0,0.0,0.0,0.0,0.0,0.0,0.0,0.0,0.0,0.0,0.0,0.0,0.0,0.0,0.8509,0.8764,0.8778,0.8865,0.0,0.0,0.9158,0.9118,0.9111,0.0,0.0,0.0,0.0,0.0,0.0,0.0,0.0,0.0,0.0,0.0,0.0,0.0,0.0,0.0,0.0,0.0,0.0,0.0,0.0,0.0,0.0,0.0,0.0,0.0,0.0,0.0,0.0,0.0,0.0,0.0,0.0,0.0,0.0,0.0,0.0,0.0,0.0,0.0,0.0,0.0,0.0,0.0,0.0,0.0,0.0,0.0,0.0,0.0,0.0,0.0,0.0,0.0,0.0,0.0,1.4231,1.4512,1.5107,1.542,1.542,1.5575,1.5682,1.5682,1.5827,1.5519,0.0,0.0,0.0,0.0,0.0,0.0,0.0,0.0,0.0,0.0,0.0,0.0,0.0,0.0,0.0,0.0,0.0,0.0,0.0,0.0,0.0,0.0,0.0,0.0,0.0,0.0,0.0,0.0,0.0,0.0,0.0,0.0,0.0,0.0,0.0,0.0,0.0,0.0,0.0,0.0,0.0,0.0,0.9011,0.9198,0.0,0.0,0.0,0.9499,0.9492,0.0,0.0,0.0,0.0,0.0,0.0,0.0,0.0,0.0,0.0,0.0,0.0,0.0,0.0,0.0,0.0,0.0,0.0,0.0,0.0,0.0,0.0,0.0,0.0,0.0,0.0,0.0,0.0,0.0,0.0,0.0,0.0,0.0,0.0,0.0,0.0,0.0,0.0,0.0,0.0,0.0,0.0,0.0,0.0,0.0,0.0,0.0,0.0,0.0,0.0,0.0,0.0,0.0,0.0,0.0,0.0,0.0,1.4775,1.5195,1.542,1.5478,1.5643,1.5798,1.5875,1.599,0.0,0.0,0.0,0.0,0.0,0.0,0.0,0.0,0.0,0.0,0.0,0.0,0.0,0.0,0.0,0.0,0.0,0.0,0.0,0.0,0.0,0.0,0.0,0.0,0.0,0.0,0.0,1.0147,0.0,0.0,0.0,0.0,0.0,0.0,0.0,0.0,0.0,0.0,0.0,0.0,0.0,0.0,0.9265,0.9311,0.9539,0.9742,0.0,0.0,0.9793,0.9793,0.9577,0.9404,0.0,0.0,0.0,0.0,0.0,0.0,0.0,0.0,0.0,0.0,0.0,0.0,0.0,0.0,0.0,0.0,0.0,0.0,0.0,0.0,0.0,0.0,0.0,0.0,0.0,0.0,0.0,0.0,0.0,0.0,0.0,0.0,0.0,0.0,0.0,0.0,0.0,0.0,0.0,0.0,0.0,0.0,0.0,0.0,0.0,0.0,0.0,0.0,0.0,0.0,0.0,0.0,0.0,0.0,0.0,1.4775,1.5195,1.5488,1.5682,1.5827,1.6029,1.6355,1.6467,1.6378,0.0,0.0,0.0,0.0,0.0,0.0,0.0,0.0,0.0,0.0,0.0,0.0,0.0,0.0,0.0,0.0,0.0,0.0,0.0,0.0,0.0,0.0,0.0,0.0,0.0,0.0,0.0,0.0,0.0,0.0,0.0,0.0,0.0,0.0,0.0,0.0,0.0,0.0,0.0,0.0,0.0,0.9479,0.9641,0.9702,0.978,0.0,0.0,1.0087,1.005,1.0067,0.9967,0.9699,0.0,0.0,0.0,0.0,0.0,0.0,0.0,0.0,0.0,0.0,0.0,0.0,0.0,0.0,0.0,0.0,0.0,0.0,0.0,0.0,0.0,0.0,0.0,0.0,0.0,0.0,0.0,0.0,0.0,0.0,0.0,0.0,0.0,0.0,0.0,0.0,0.0,0.0,0.0,0.0,0.0,0.0,0.0,0.0,0.0,0.0,0.0,0.0,0.0,0.0,0.0,0.0,0.0,1.4812,1.5357,1.5753,1.6059,1.6257,1.6778,1.6978,1.6758,1.703,1.6814,0.0,0.0,0.0,0.0,0.0,0.0,0.0,0.0,0.0,0.0,0.0,0.0,0.0,0.0,0.0,0.0,0.0,0.0,0.0,0.0,0.0,0.0,0.0,0.0,0.0,0.0,0.0,0.0,1.1023,1.1243,1.1155,0.0,0.0,0.0,0.0,0.0,0.0,0.0,0.0,0.0,0.0,1.0143,1.0141,1.0288,0.0,0.0,1.0425,1.0419,1.0388,1.0234,1.008,0.9973,0.9706,0.0,0.0,0.0,0.0,0.0,0.0,0.0,0.0,0.0,0.0,0.0,0.0,0.0,0.0,0.0,0.0,0.0,0.0,0.0,0.0,0.0,0.0,0.0,0.0,0.0,0.0,0.0,0.0,0.0,0.0,0.0,0.0,0.0,0.0,0.0,0.0,0.0,0.0,0.0,0.0,0.0,0.0,0.0,0.0,0.0,0.0,0.0,0.0,0.0,0.0,0.0,0.0,1.5239,1.5978,1.6248,1.6588,1.6951,1.7523,1.7717,1.7524,1.7592,1.7381,0.0,0.0,0.0,0.0,0.0,0.0,0.0,0.0,0.0,0.0,0.0,0.0,0.0,0.0,0.0,0.0,0.0,0.0,0.0,0.0,0.0,0.0,0.0,0.0,0.0,0.0,0.0,0.0,1.1482,1.1753,1.1846,0.0,0.0,0.0,0.0,0.0,0.0,0.0,0.0,0.0,0.0,1.0723,1.0638,1.0733,1.0803,1.0803,1.0752,1.072,1.072,1.0514,1.0354,1.0261,0.0,0.0,0.0,0.0,0.0,0.0,0.0,0.0,0.0,0.0,0.0,0.0,0.0,0.0,0.0,0.0,0.0,0.0,0.0,0.0,0.0,0.0,0.0,0.0,0.0,0.0,0.0,0.0,0.0,0.0,1.6516,0.0,0.0,0.0,0.0,0.0,0.0,0.0,0.0,0.0,0.0,0.0,0.0,0.0,0.0,0.0,0.0,0.0,0.0,0.0,0.0,0.0,0.0,1.553,1.6567,1.6618,1.6981,1.775,1.7812,1.8099,1.8616,1.8247,1.8129,1.8401,0.0,0.0,0.0,0.0,0.0,0.0,0.0,0.0,0.0,0.0,0.0,0.0,0.0,0.0,0.0,0.0,0.0,0.0,0.0,0.0,0.0,0.0,0.0,0.0,0.0,0.0,1.1584,1.184,1.2125,0.0,0.0,0.0,0.0,0.0,0.0,0.0,0.0,0.0,0.0,1.1092,1.1073,1.1104,1.0933,1.093,1.1164,1.1081,1.0982,1.0982,1.0975,1.0882,0.0,0.0,0.0,0.0,0.0,0.0,0.0,0.0,0.0,0.0,0.0,0.0,0.0,0.0,0.0,0.0,0.0,0.0,0.0,0.0,0.0,0.0,0.0,0.0,0.0,0.0,0.0,1.8237,1.817,0.0,0.0,0.0,0.0,0.0,0.0,0.0,0.0,0.0,0.0,0.0,1.8471,1.8031,0.0,0.0,0.0,0.0,0.0,0.0,0.0,0.0,0.0,0.0,0.0,0.0,1.6433,1.6947,1.7616,1.8155,1.8543,1.9062,1.9263,1.9179,1.934,1.912,1.8453,0.0,0.0,0.0,0.0,0.0,0.0,0.0,0.0,0.0,0.0,0.0,0.0,0.0,0.0,0.0,0.0,0.0,0.0,0.0,0.0,0.0,0.0,0.0,0.0,0.0,1.2119,0.0,0.0,0.0,0.0,0.0,0.0,0.0,0.0,0.0,0.0,0.0,1.1526,1.1545,1.1751,1.1853,1.17,1.1633,1.1577,0.0,0.0,0.0,0.0,0.0,0.0,0.0,0.0,0.0,0.0,0.0,0.0,0.0,0.0,1.0171,0.9782,0.9599,0.9539,0.9532,0.0,0.0,0.0,0.0,0.0,0.0,0.0,0.0,0.0,0.0,0.0,0.0,0.0,0.0,0.0,0.0,1.9048,0.0,0.0,0.0,0.0,0.0,0.0,0.0,0.0,1.9225,1.9576,1.9907,1.9567,1.9555,0.0,1.8638,1.7745,0.0,0.0,0.0,0.0,0.0,0.0,0.0,0.0,1.7168,1.7596,1.8436,1.9073,1.9436,1.9986,2.0201,2.005,2.0357,2.0006,1.8873,1.8387,1.7741,0.0,0.0,0.0,0.0,0.0,0.0,0.0,0.0,0.0,0.0,0.0,0.0,0.0,0.0,0.0,0.0,0.0,0.0,0.0,0.0,0.0,0.0,0.0,1.2568,0.0,0.0,0.0,0.0,0.0,0.0,0.0,0.0,0.0,1.1886,1.2028,1.2204,1.224,1.2444,1.251,1.2288,0.0,0.0,0.0,0.0,0.0,0.0,0.0,1.1543,1.1409,1.1269,1.1142,1.1142,1.0989,1.0894,1.0855,0.0,0.0,1.0094,0.9907,0.9833,0.9833,0.9753,0.9715,0.9715,0.9635,0.9576,0.0,0.0,0.0,0.0,0.0,0.0,0.0,0.0,2.0928,2.0663,0.0,1.9727,0.0,0.0,0.0,0.0,0.0,0.0,0.0,0.0,2.1066,2.1281,2.1281,2.1002,2.0815,2.0644,2.032,2.0053,1.9738,1.754,0.0,0.0,0.0,0.0,0.0,0.0,1.7756,1.8518,1.9014,1.9627,2.0377,2.0582,2.0839,2.1198,2.1188,2.0723,1.9734,1.9336,1.8794,1.8076,1.7663,0.0,0.0,0.0,0.0,0.0,0.0,0.0,0.0,0.0,0.0,0.0,0.0,0.0,0.0,0.0,0.0,0.0,0.0,0.0,0.0,1.2925,0.0,0.0,0.0,0.0,0.0,0.0,0.0,0.0,0.0,0.0,1.3122,1.2781,1.2712,1.31,0.0,0.0,0.0,0.0,1.2638,1.2692,1.2416,1.2204,1.2204,1.2062,1.1819,1.151,0.0,0.0,1.1389,1.1423,1.1369,1.1382,1.1396,1.1243,1.0727,1.0367,1.0157,1.0174,0.9993,0.9766,0.9782,0.986,0.9826,2.5417,0.0,0.0,0.0,0.0,2.2681,2.2889,2.3153,2.3014,2.2832,2.2581,2.2113,0.0,0.0,0.0,0.0,0.0,0.0,2.1104,2.1267,2.139,2.1638,2.2001,2.1455,2.1354,2.1637,2.0986,2.0545,2.0245,1.9482,1.8794,1.8257,0.0,0.0,0.0,0.0,1.9203,1.9585,2.0124,2.0597,2.0978,2.1083,2.1411,2.1906,2.1547,2.1307,2.125,2.0376,1.9619,1.9094,1.8557,0.0,0.0,0.0,0.0,0.0,0.0,0.0,0.0,0.0,0.0,0.0,0.0,0.0,0.0,0.0,0.0,0.0,0.0,0.0,1.3316,1.333,1.3447,0.0,0.0,0.0,0.0,0.0,0.0,0.0,0.0,0.0,1.4466,1.3983,1.3791,0.0,0.0,1.3753,1.3531,1.3377,1.3214,1.3086,0.0,0.0,0.0,1.2549,1.2369,1.2281,1.1991,1.1677,1.1463,1.143,1.143,1.143,1.143,1.1329,1.1223,1.1082,1.1022,1.1009,1.0982,1.0929,1.0929,1.0929,1.0909,2.756,2.5726,2.5112,2.4867,2.4933,2.5002,2.5275,2.5592,2.5021,2.4653,2.4426,2.3562,2.2963,2.2617,2.2117,0.0,0.0,0.0,2.182,2.182,2.2272,2.2661,2.2949,2.2785,2.285,2.3033,2.2362,2.1883,2.1626,2.1248,2.0842,2.0368,0.0,0.0,1.916,1.9691,2.0093,2.0281,2.0811,2.119,2.1391,2.16,2.1944,2.2371,2.2147,2.1998,2.1955,2.137,2.0665,1.9934,1.955,1.8916,0.0,0.0,0.0,0.0,0.0,0.0,0.0,0.0,0.0,0.0,0.0,1.3908,0.0,0.0,0.0,0.0,1.3576,1.3609,1.373,1.3734,0.0,0.0,0.0,0.0,0.0,0.0,0.0,1.5175,1.5202,1.5328,1.5746,1.5322,1.4959,1.4913,1.4621,1.4421,1.4348,0.0,1.4022,1.385,1.3677,1.3527,1.3422,1.3226,1.3068,1.2955,1.2628,1.2317,1.1991,1.1864,1.1742,1.177,1.1735,1.1777,1.1777,1.1735,1.1648,1.1442,1.143,1.143,1.143,1.143,1.143,2.9189,2.8991,2.774,2.7229,2.7242,2.7242,2.7669,2.8211,2.69,2.6266,2.6031,2.4443,2.3498,2.3125,2.2382,0.0,2.1947,2.2295,2.2472,2.2548,2.359,2.4067,2.4092,2.455,2.4736,2.4593,2.4039,2.3709,2.3545,2.2922,2.2523,2.2325,2.084,1.9998,1.9922,2.0308,2.063,2.0817,2.1272,2.1569,2.1781,2.2073,2.2402,2.2708,2.286,2.2673,2.2217,2.2247,2.1763,2.0652,2.054,1.9897,1.8606,0.0,0.0,0.0,0.0,0.0,0.0,0.0,0.0,0.0,0.0,0.0,0.0,0.0,0.0,0.0,1.4073,0.0,1.4153,1.4192,0.0,0.0,0.0,1.4593,1.543,1.539,1.5649,1.642,0.0,0.0,1.684,0.0,1.6177,1.5471,1.5155,1.5052,1.5205,1.5077,1.491,1.4795,1.4662,1.4474,1.4236,1.4016,1.3768,1.3558,1.3347,1.3078,1.2885,1.2627,1.2422,1.2362,1.2331,1.2311,1.2305,1.2258,1.2138,1.1582,1.1523,1.1516,1.1502,1.1509,1.1557,3.076,3.0687,3.0265,2.9477,2.8461,2.8461,2.859,2.8707,2.8277,2.7881,2.7471,2.6718,2.5699,2.4498,2.3861,2.3667,2.3829,2.3801,2.4001,2.4437,2.4557,2.46,2.4632,2.4738,2.4788,2.4743,2.463,2.4459,2.4355,2.4154,2.3983,2.381,2.3393,2.2606,2.1426,2.149,2.1704,2.1981,2.2132,2.2254,2.2463,2.2525,2.2678,2.2848,2.2878,2.2907,2.2847,2.2506,2.1995,2.1302,2.0863,2.0245,1.9352,1.8754,0.0,0.0,0.0,0.0,0.0,0.0,0.0,0.0,0.0,1.4542,1.486,0.0,1.4692,0.0,1.4446,1.4422,1.459,1.4912,0.0,0.0,1.5918,1.6161,1.6365,1.6364,1.642,1.6614,1.6786,1.691,1.7015,1.7257,1.7335,1.6999,1.6385,1.5841,1.5483,1.5471,1.5395,1.5103,1.5017,1.4871,1.4706,1.4379,1.408,1.3824,1.3729,1.368,1.3634,1.3416,1.3176,1.2965,1.2797,1.2589,1.2395,1.2305,1.2271,1.2124,1.2091,1.2098,1.2098,1.2091,1.2084,3.2273,3.2273,3.2199,3.1516,3.0451,3.0043,2.9896,2.9839,2.9318,2.8886,2.848,2.7551,2.6652,2.5784,2.5152,2.4936,2.5055,2.4814,2.4886,2.5192,2.5254,2.527,2.5295,2.5468,2.5548,2.5536,2.5285,2.5106,2.5028,2.4803,2.4606,2.4431,2.4443,2.4005,2.3142,2.301,2.2965,2.2879,2.2634,2.2616,2.28,2.28,2.286,2.2957,2.2987,2.3017,2.3095,2.2807,2.2422,2.187,2.1358,2.0736,2.0041,1.9299,1.8761,0.0,0.0,0.0,0.0,0.0,0.0,0.0,0.0,0.0,0.0,0.0,1.5189,0.0,1.5493,0.0,1.5772,1.5919,1.6094,1.6338,1.6582,1.6775,1.6992,1.7021,1.7135,1.7506,1.7682,1.7862,1.8056,1.8128,1.8134,1.7916,1.752,1.7029,1.651,1.6302,1.6124,1.5849,1.5801,1.5722,1.5443,1.5075,1.4801,1.4586,1.4358,1.4193,1.4106,1.3868,1.3643,1.3491,1.3372,1.3247,1.3044,1.2889,1.2851,1.2806,1.2775,1.2605,1.2365,1.2305,1.2305,3.3499,3.3499,3.3499,3.3155,3.2572,3.1738,3.1294,3.1043,3.0163,2.9609,2.9194,2.7815,2.7103,2.6891,2.6246,2.5936,2.5939,2.5651,2.5512,2.5614,2.5894,2.6036,2.6049,2.6362,2.6521,2.6508,2.5971,2.5711,2.5732,2.5259,2.4968,2.485,2.4838,2.485,2.485,2.4674,2.4299,2.3675,2.3121,2.2911,2.3051,2.2976,2.2987,2.3108,2.3095,2.3095,2.3095,2.3095,2.2844,2.2334,2.1857,2.1327,2.0652,2.0007,1.9523,0.0,1.8419,0.0,0.0,0.0,0.0,0.0,0.0,0.0,0.0,1.5717,1.5813,1.6273,1.6789,1.7065,1.7034,1.6904,1.6816,1.6816,1.6833,1.707,1.748,1.7549,1.7842,1.8598,1.8685,1.8841,1.918,1.8987,1.873,1.8555,1.8484,1.8249,1.7761,1.7299,1.6972,1.6821,1.6738,1.6447,1.6183,1.5918,1.5662,1.5474,1.5126,1.4722,1.4545,1.4299,1.4108,1.398,1.3966,1.3905,1.3916,1.3685,1.356,1.3493,1.3382,1.3084,1.2599,1.2478,1.2418,3.3499,3.3499,3.3499,3.3425,3.329,3.3124,3.2318,3.1073,3.0881,3.0393,2.9626,2.8759,2.8069,2.7478,2.6894,2.6733,2.6924,2.66,2.6655,2.7077,2.6894,2.679,2.679,2.671,2.6645,2.6658,2.6454,2.6336,2.6336,2.6235,2.6151,2.6151,2.6151,2.6151,2.6151,0.0,0.0,0.0,2.4023,2.3779,2.3797,2.3315,2.3078,2.3095,2.3095,0.0,2.3095,2.3095,2.2844,2.2347,2.2209,0.0,0.0,0.0,0.0,0.0,0.0,0.0,0.0,0.0,0.0,0.0,1.9028,1.8677,1.8192,1.7965,1.7762,1.7531,1.7585,1.7533,1.7284,1.7384,1.7421,1.7441,1.7615,1.793,1.8295,1.8364,1.8568,1.9092,1.917,1.9189,1.9316,1.9358,1.9344,1.9156,1.9138,1.9025,1.8757,1.8152,1.7673,1.7335,1.6984,1.6697,1.6615,1.6278,1.6038,1.5948,1.5925,1.5692,1.5415,1.5221,1.4945,1.4581,1.4316,1.4151,1.3973,1.387,1.3866,1.3831,1.3805,1.36,1.3144,1.3033,1.3039,3.4487,0.0,3.4487,3.4307,0.0,3.4009,3.3302,3.2197,3.2106,3.1474,3.048,2.956,2.894,2.8602,2.8036,2.7813,2.7857,2.7632,2.7597,2.7769,2.7403,2.7235,2.7235,2.6964,2.6829,2.6841,2.6786,2.6705,2.6602,2.6602,2.6555,2.6487,2.6487,2.6487,2.6487,2.6487,2.6084,2.5209,2.4669,2.4406,2.4368,2.3835,2.3534,2.3521,0.0,0.0,0.0,0.0,0.0,0.0,0.0,0.0,0.0,0.0,0.0,2.1059,2.0803,2.0574,2.0389,2.0245,2.0217,2.0428,2.0596,2.0194,1.9093,1.8967,1.882,1.8521,1.8469,1.8382,1.8199,1.8311,1.8361,1.8269,1.8577,1.8836,1.8916,1.8955,1.9121,1.9502,1.96,1.9668,1.9893,1.9936,1.9889,1.9793,1.9614,1.939,1.9161,1.8674,1.8201,1.7765,1.7343,1.7066,1.6984,1.6697,1.6409,1.6376,1.6211,1.6038,1.5906,1.5831,1.5647,1.5368,1.5167,1.4931,1.4815,1.4643,1.4488,1.4488,1.44,1.4238,1.3981,1.3735,1.3562,3.5489,3.5489,3.5489,3.519,3.4683,3.4698,3.4289,3.3609,0.0,0.0,0.0,3.0512,3.0051,2.9957,2.9485,2.9196,2.9029,2.8774,2.861,2.8472,2.8,2.7747,2.768,2.7286,2.7079,2.7058,2.7011,2.6909,2.676,2.676,2.6658,2.6521,2.6533,2.6521,2.6487,2.6487,2.626,2.5749,2.5222,2.4938,2.4946,2.4431,2.4142,2.4142,2.359,2.3258,2.3258,2.3158,2.3095,2.3095,2.2681,2.2431,2.2435,2.1918,2.1583,2.1567,2.1367,2.1252,2.1223,2.1066,2.1114,2.1398,2.1625,2.1156,1.9652,1.9672,1.9667,1.9532,1.9433,1.9421,1.937,1.9414,1.9359,1.9173,1.9421,1.9551,1.9458,1.9431,1.9561,1.9941,2.0029,2.0156,2.0517,2.0459,2.0352,2.0264,1.9981,1.9636,1.935,1.8962,1.8531,1.817,1.7797,1.7522,1.7432,1.7147,1.6861,1.682,1.6574,1.6335,1.6294,1.6245,1.6203,1.6105,1.5948,1.576,1.5726,1.5448,1.5298,1.5257,1.5124,1.495,1.4907,1.4593,1.4273,3.5504,3.5489,3.5489,3.5444,3.537,3.5355,3.5213,3.4824,3.3471,3.2645,3.2307,3.2057,3.1775,3.1484,3.1242,3.1011,3.0813,3.031,3.0106,0.0,2.9187,2.869,2.8494,2.7771,2.7369,2.7248,2.7092,2.6977,2.6956,2.6956,2.6875,2.6679,2.6679,2.6624,2.6499,2.6487,2.6449,2.6373,2.5774,2.5485,2.5473,2.4971,2.4675,2.4682,2.4167,2.3879,2.3879,2.3371,2.3095,2.3095,2.3032,2.2982,2.2982,2.2865,2.2792,2.2685,2.2655,2.2552,2.2444,2.2414,2.236,2.2237,2.218,2.1772,2.0994,2.0946,2.0886,2.0698,2.0641,2.0586,2.0499,2.0367,2.0216,2.0002,1.9765,1.9707,2.0036,1.9936,1.998,2.0429,2.0517,2.0507,2.0576,2.0566,2.0489,2.0342,2.0225,2.0029,1.9597,1.906,1.87,1.8571,1.8201,1.7959,1.7878,1.7595,1.7351,1.731,1.7229,1.7106,1.6943,1.6738,1.6566,1.6402,1.6245,1.6079,1.6087,1.6004,1.5922,1.5922,1.5831,1.5831,1.5831,1.5711,1.5453,3.6537,3.6537,3.6537,3.6342,3.6013,3.5669,3.5424,3.5267,3.4475,3.3762,3.3124,3.2629,3.2259,3.2047,3.1885,3.1641,3.1377,3.1096,3.0861,3.0644,3.0045,2.9733,2.9569,2.9042,2.8786,2.8657,2.815,2.7871,2.773,2.7369,2.7079,2.6875,2.6875,2.676,2.6624,2.6624,2.6568,2.6487,2.6235,2.6063,2.6084,2.5536,2.5247,2.5234,2.4732,2.4443,2.4443,2.3873,2.3602,2.3572,2.3271,2.3095,2.3095,2.3095,2.3078,2.3017,2.303,2.2957,2.2909,2.3133,2.3337,2.3557,2.3328,2.3039,2.2651,2.196,2.1658,2.1835,2.1528,2.1227,2.1174,2.1064,2.0912,2.0705,2.0663,2.0662,2.0691,2.0589,2.0525,2.0702,2.0644,2.0605,2.0615,2.0615,2.0566,2.045,2.0381,2.0147,1.9843,1.9448,1.91,1.8891,1.8571,1.8402,1.8362,1.8121,1.7919,1.7749,1.7627,1.7505,1.731,1.7147,1.7066,1.6935,1.6771,1.6648,1.6648,1.6533,1.6409,1.6286,1.6278,1.6245,1.617,1.6136,1.5922,3.7404,3.7404,3.7404,3.7135,3.6656,3.6148,3.5938,3.589,3.5743,3.5263,3.442,3.348,3.2984,3.2836,3.2641,3.2364,3.2098,3.1998,3.1764,3.1445,3.1,3.074,3.0609,3.0239,2.9985,2.9875,2.9255,2.8905,2.8689,2.8103,2.7613,2.7272,2.7088,2.6943,2.676,2.676,2.6739,2.6602,2.6568,2.6521,2.6474,2.6047,2.5799,2.5762,2.5272,2.4951,2.4938,2.4469,2.418,2.4167,2.3735,2.3484,2.3496,2.3484,2.3484,2.3484,2.3484,2.3496,2.3509,2.376,2.4133,2.4536,2.43,2.4107,2.396,2.3093,2.2544,2.2765,2.2363,2.1989,2.1928,2.1829,2.1639,2.1364,2.1429,2.1423,2.1272,2.1099,2.0955,2.0906,2.078,2.0654,2.0615,2.0693,2.082,2.0898,2.0701,2.0494,2.0296,2.0106,1.9826,1.9509,1.9097,1.878,1.8772,1.8563,1.8362,1.8201,1.8031,1.791,1.7757,1.7676,1.7595,1.7514,1.7343,1.718,1.7131,1.7017,1.6812,1.673,1.6689,1.6607,1.6492,1.6458,1.6294,3.7434,3.7404,3.7464,3.7389,3.7315,3.7225,3.718,3.718,3.7176,3.7088,3.6635,3.5351,3.4593,3.4489,3.423,3.3984,3.3747,3.3525,3.3254,3.2961,3.2298,3.1771,3.1466,3.0753,3.0261,3.0115,2.991,2.98,2.9766,2.9477,2.8887,2.7997,2.7349,2.7037,2.699,2.699,2.6943,2.6956,2.676,2.6611,2.6487,2.6436,2.6411,2.6411,2.5824,2.5523,2.5523,2.5021,2.4713,2.4713,2.4682,2.4625,2.4644,2.4612,2.4625,2.46,2.4612,2.4637,2.4637,2.4675,2.4686,2.4606,2.4591,2.4612,2.4682,2.441,2.3963,2.3502,2.3304,2.3086,2.2904,2.2807,2.2558,2.205,2.1869,2.1693,2.1502,2.1282,2.1099,2.0906,2.0956,2.079,2.0771,2.0957,2.1309,2.1582,2.1409,2.1286,2.1214,2.105,2.0904,2.0664,1.9905,1.9141,1.9074,1.882,1.8798,1.8722,1.8647,1.8602,1.8539,1.8374,1.8241,1.7968,1.7829,1.7627,1.7505,1.7351,1.7351,1.731,1.731,1.727,1.727,1.7229,1.6984,3.8586,3.8566,3.8601,3.8347,3.7973,3.7584,3.7404,3.7404,3.7404,3.7385,3.7272,3.6633,3.6048,3.5408,3.4825,3.4481,3.4278,3.4005,3.3799,3.3626,3.3184,3.2863,3.2591,3.2145,3.1818,3.1566,3.1021,3.0705,3.0616,3.0089,2.9552,2.9113,2.8368,2.7944,2.7816,2.7403,2.7113,2.7024,2.6909,2.6841,2.6786,2.6602,2.6487,2.6474,2.626,2.6135,2.6084,2.5573,2.5285,2.5259,2.4951,2.48,2.48,2.48,2.48,2.48,2.48,2.4958,2.5247,2.5285,2.5402,2.5707,2.561,2.5506,2.5426,2.5277,2.4929,2.4461,2.4082,2.3826,2.3669,2.3298,2.2889,2.2617,2.2327,2.2063,2.1873,2.1655,2.1545,2.1654,2.144,2.1352,2.15,2.1585,2.168,2.1855,2.1792,2.179,2.1751,2.1524,2.1381,2.131,2.0737,2.0309,2.009,2.0076,1.9861,1.9664,1.9599,1.9513,1.9154,1.9029,1.8813,1.8463,1.8357,1.8267,1.821,1.817,1.8129,1.8008,1.7797,1.7716,1.7619,1.7587,1.7343,3.9481,3.9481,3.9409,3.914,3.8646,3.8167,3.7923,3.7958,3.7958,3.7958,3.7943,3.7764,3.7282,3.6551,3.5741,3.5292,3.5059,3.4714,3.4436,3.4284,3.3933,3.364,3.3452,3.3262,3.3072,3.2791,3.2121,3.1689,3.1515,3.0718,3.0261,3.0076,2.9409,2.8945,2.8776,2.8093,2.767,2.748,2.727,2.7113,2.7045,2.6807,2.6636,2.6624,2.6602,2.6555,2.6543,2.6084,2.5837,2.5824,2.5473,2.5272,2.5272,2.5272,2.5272,2.5272,2.5272,2.5435,2.5812,2.5824,2.6047,2.6436,2.6374,2.6201,2.6015,2.5828,2.5606,2.5241,2.4802,2.4455,2.4152,2.3666,2.3261,2.3038,2.2703,2.251,2.2393,2.2185,2.218,2.2386,2.217,2.2009,2.2264,2.2269,2.2235,2.2246,2.2266,2.2236,2.2227,2.2068,2.1964,2.1935,2.1819,2.1484,2.1132,2.0875,2.0773,2.0656,2.0466,2.0314,1.9888,1.981,1.9542,1.93,1.9124,1.882,1.8558,1.858,1.8709,1.8531,1.8322,1.8161,1.8072,1.7991,1.7951,3.9696,3.9676,3.9496,3.9409,3.9313,3.9254,3.929,3.9164,3.9239,3.9254,3.914,3.8631,3.8332,3.8192,3.7407,3.6951,3.6659,3.5922,3.5501,3.527,3.4542,3.4034,3.3848,3.3675,3.3494,3.3347,3.2981,3.2664,3.2307,3.1597,3.1135,3.0931,3.0239,2.984,2.9739,2.9211,2.8817,2.8526,2.7897,2.7462,2.7328,2.7126,2.7011,2.6977,2.6794,2.6692,2.6692,2.653,2.6436,2.6449,2.6373,2.6373,2.6386,2.6373,2.6348,2.6361,2.6373,2.6386,2.6411,2.6399,2.6436,2.6487,2.6452,2.6396,2.6166,2.6131,2.597,2.563,2.5384,2.498,2.4522,2.423,2.3844,2.3242,2.3082,2.3086,2.3079,2.2967,2.2893,2.3058,2.2991,2.2868,2.2864,2.2881,2.287,2.2934,2.2994,2.2964,2.2906,2.2955,2.2892,2.2882,2.2809,2.2577,2.1526,2.1381,2.1333,2.1194,2.1203,2.1123,2.1066,2.0908,2.0485,2.0126,1.9861,1.9476,1.8954,1.8758,1.8847,1.8798,1.878,1.8652,1.8523,1.8612,1.8531,4.0867,4.0351,4.0242,3.9922,3.9403,3.9388,3.9388,3.9388,3.9388,3.9388,3.9358,3.9155,3.905,3.9035,3.874,3.8067,3.7104,3.665,3.6423,3.6324,3.5895,3.5598,3.5379,3.4829,3.4454,3.4186,3.367,3.3178,3.2797,3.2376,3.216,3.1971,3.1338,3.0913,3.0686,3.0062,2.9642,2.9417,2.8783,2.8424,2.833,2.7833,2.749,2.749,2.7113,2.6909,2.6897,2.6726,2.6624,2.6611,2.6521,2.6487,2.6487,2.6487,2.6487,2.6487,2.6487,2.6487,2.6487,2.6487,2.6487,2.6487,2.6487,2.6408,2.6248,2.6179,2.6233,2.6257,2.6116,2.5901,2.5811,2.5189,2.4537,2.431,2.4267,2.4222,2.4048,2.3917,2.3891,2.3853,2.3763,2.3671,2.3476,2.3361,2.3335,2.3333,2.3222,2.3135,2.3101,2.3101,2.3101,2.3101,2.3091,2.296,2.2587,2.2308,2.2179,2.204,2.1944,2.1783,2.1688,2.1575,2.1226,2.0889,2.0601,2.0435,2.0012,1.9819,1.9755,1.9332,1.9314,1.9163,1.8962,1.9002,1.8891,4.1726,4.1148,4.1029,4.0678,4.0141,4.0053,4.0053,4.0023,3.9828,3.9723,3.9672,3.9493,3.9388,3.9388,3.9388,3.8889,3.7933,3.7505,3.7316,3.7266,3.6913,3.6635,3.6406,3.5865,3.5486,3.5174,3.4383,3.3754,3.3297,3.3108,3.2966,3.2868,3.2303,3.1948,3.1648,3.1017,3.058,3.0346,2.9806,2.9429,2.9287,2.8805,2.8385,2.8172,2.7811,2.7462,2.7138,2.6897,2.6794,2.6794,2.6726,2.6624,2.6589,2.6533,2.6487,2.6487,2.6487,2.6487,2.6487,2.6487,2.6487,2.6512,2.6675,2.6694,2.6567,2.6729,2.6897,2.699,2.6931,2.6944,2.6829,2.6257,2.5652,2.5283,2.5244,2.5217,2.4929,2.4792,2.467,2.4533,2.4471,2.4317,2.4067,2.3841,2.3667,2.3537,2.3329,2.3232,2.3135,2.3101,2.3101,2.3101,2.3101,2.3091,2.293,2.2751,2.2708,2.2587,2.249,2.237,2.2259,2.2174,2.1959,2.1617,2.1446,2.1356,2.1172,2.0945,2.0552,2.0064,1.9909,1.9836,1.9586,1.9359,1.9308,4.2251,4.2036,4.1783,4.1685,4.1505,4.1303,4.1347,4.1168,4.0651,4.0397,4.0337,3.9798,3.9604,3.9448,3.9508,3.9388,3.9083,3.8484,3.8175,3.8145,3.7419,3.7063,3.7043,3.6743,3.6435,3.6149,3.5295,3.4517,3.3962,3.3725,3.3536,3.329,3.3066,3.2855,3.2712,3.2096,3.1715,3.1431,3.0814,3.0343,3.0123,2.9925,2.9562,2.9113,2.8979,2.8482,2.7499,2.7185,2.7011,2.7024,2.6977,2.6909,2.6726,2.6589,2.6521,2.6533,2.6546,2.6524,2.6571,2.66,2.6688,2.6738,2.704,2.7293,2.732,2.7659,2.7875,2.7815,2.7767,2.7656,2.7456,2.7468,2.7094,2.6016,2.5835,2.5892,2.579,2.547,2.5226,2.5177,2.4978,2.4786,2.454,2.4282,2.4024,2.3677,2.3547,2.3416,2.3222,2.3188,2.3144,2.3101,2.3101,2.3101,2.3101,2.3091,2.3091,2.3038,2.2974,2.2892,2.2775,2.2698,2.2515,2.2236,2.2083,2.1973,2.1648,2.1428,2.1196,2.0778,2.0673,2.045,2.0235,1.9993,1.9895,4.3716,4.3079,4.2892,4.2431,4.194,4.1708,4.1596,4.1581,4.122,4.1108,4.104,4.0861,4.0531,4.0157,4.0098,3.9858,3.9388,3.9113,3.9038,3.8958,3.857,3.8364,3.8284,3.7765,3.7145,3.6537,3.6077,3.543,3.4807,3.4531,3.422,3.3795,3.3675,3.3521,3.3297,3.301,3.2737,3.2478,3.1764,3.1323,3.1233,3.0753,3.0372,3.0188,2.9909,2.9541,2.9217,2.8035,2.7328,2.7227,2.7092,2.6977,2.6922,2.6875,2.6854,2.6879,2.7119,2.7253,2.7303,2.7488,2.758,2.7607,2.7758,2.7833,2.7846,2.8021,2.8273,2.8475,2.8438,2.8399,2.863,2.8543,2.7981,2.6971,2.7073,2.7006,2.6661,2.6129,2.5721,2.5631,2.5338,2.5031,2.4786,2.4572,2.4282,2.4034,2.3841,2.3624,2.346,2.3363,2.3276,2.3144,2.3144,2.3144,2.3135,2.3144,2.3101,2.3101,2.3101,2.3101,2.3047,2.3038,2.2897,2.2795,2.265,2.2505,2.2177,2.1974,2.1736,2.1483,2.1269,2.1062,2.0835,2.0673,2.0533,4.4626,4.4068,4.3866,4.3425,4.2856,4.2652,4.2538,4.2364,4.2039,4.1835,4.1752,4.1512,4.116,4.0816,4.0771,4.0531,4.0157,3.9903,3.9798,3.9687,3.9375,3.9228,3.9147,3.8646,3.7883,3.721,3.6965,3.6508,3.579,3.5522,3.5107,3.4568,3.4364,3.4111,3.3752,3.3605,3.3452,3.3262,3.2765,3.2465,3.2361,3.1882,3.1461,3.1213,3.0883,3.0602,3.0268,2.918,2.8469,2.8279,2.8018,2.7846,2.7765,2.7699,2.7639,2.7668,2.7841,2.8,2.8038,2.8172,2.8279,2.8255,2.8395,2.8484,2.8448,2.8549,2.8925,2.9126,2.9138,2.9135,2.9305,2.9172,2.8712,2.8132,2.7941,2.7765,2.7267,2.6745,2.6332,2.6135,2.5759,2.5464,2.5253,2.4871,2.4583,2.4315,2.411,2.3841,2.3677,2.359,2.3503,2.3373,2.3319,2.3319,2.3266,2.3178,2.3101,2.3101,2.3101,2.3101,2.3091,2.3091,2.2999,2.2989,2.2906,2.2887,2.2615,2.2605,2.2499,2.2194,2.1861,2.1684,2.1476,2.1313,2.118,4.5129,4.4927,4.4723,4.4472,4.4213,4.4005,4.3797,4.3587,4.3051,4.2664,4.2374,4.2,4.1587,4.1497,4.1444,4.1339,4.1287,4.0726,4.0457,4.0307,3.9926,3.9612,3.9352,3.9103,3.8631,3.8022,3.7948,3.7544,3.6869,3.6679,3.6266,3.5558,3.5317,3.4819,3.4278,3.4037,3.4017,3.3813,3.3632,3.35,3.35,3.3178,3.2751,3.2235,3.1986,3.1606,3.1069,3.0651,3.0267,2.9867,2.9364,2.9091,2.9019,2.8856,2.8682,2.8679,2.8762,2.8777,2.8777,2.8884,2.8837,2.8753,2.9022,2.9176,2.9126,2.9403,2.9668,2.9717,2.9704,2.9651,2.9496,2.938,2.925,2.904,2.8514,2.7978,2.7389,2.7226,2.694,2.6633,2.6271,2.5895,2.5812,2.5295,2.4956,2.4615,2.4411,2.4186,2.397,2.3884,2.3851,2.3721,2.3547,2.3537,2.3493,2.344,2.3363,2.3363,2.3319,2.3222,2.3144,2.3101,2.3101,2.3101,2.3091,2.3081,2.3062,2.2984,2.2886,2.26,2.2376,2.2305,2.2146,2.1945,2.179,4.5625,4.5536,4.5204,4.4942,4.4723,4.4549,4.432,4.4112,4.3805,4.349,4.3305,4.3175,4.2662,4.2171,4.2141,4.1901,4.1489,4.1257,4.113,4.11,4.098,4.0262,3.9589,3.9352,3.9154,3.8801,3.8705,3.8381,3.7683,3.7567,3.7193,3.654,3.6426,3.6014,3.5316,3.5091,3.4643,3.4111,3.3917,3.3842,3.3827,3.3744,3.3604,3.3427,3.3079,3.2821,3.2577,3.2269,3.1346,3.0017,2.9824,2.9719,2.9702,2.9504,2.9437,2.9441,2.9463,2.9525,2.9602,2.9775,2.9869,2.9882,2.9933,3.0049,2.9999,2.9973,3.0037,3.0011,2.9895,2.9779,2.9689,2.9534,2.9326,2.9091,2.8821,2.8371,2.7938,2.7482,2.7144,2.7021,2.6685,2.6357,2.6076,2.5846,2.555,2.52,2.4912,2.4708,2.4586,2.4403,2.4431,2.3954,2.3774,2.3721,2.3711,2.3667,2.3667,2.3667,2.358,2.344,2.3319,2.3144,2.3101,2.3101,2.3101,2.3091,2.3091,2.3052,2.2945,2.2857,2.2828,2.2734,2.2715,2.2584,2.2379,4.5952,4.5771,4.5568,4.5278,4.5002,4.4814,4.4625,4.4396,4.4205,4.4026,4.3832,4.3729,4.3425,4.2962,4.2815,4.2566,4.2207,4.1946,4.1841,4.1782,4.1527,4.0786,3.9993,3.9582,3.9352,3.9228,3.9228,3.8984,3.8578,3.8462,3.8041,3.7538,3.7364,3.6934,3.6226,3.6084,3.5638,3.499,3.4703,3.4528,3.4254,3.4054,3.3971,3.3937,3.3709,3.3536,3.3382,3.3108,3.2288,3.126,3.0926,3.0819,3.0735,3.0534,3.0427,3.044,3.0503,3.0564,3.0566,3.0729,3.0722,3.0672,3.0596,3.0482,3.0394,3.0292,3.0228,3.0228,3.0113,3.0037,2.9933,2.9864,2.9806,2.9695,2.9591,2.9209,2.8463,2.7926,2.7632,2.7487,2.7309,2.7084,2.6802,2.6725,2.6495,2.6217,2.6022,2.5794,2.5532,2.5284,2.5068,2.4766,2.4601,2.4693,2.451,2.4436,2.4291,2.425,2.3898,2.3747,2.3553,2.3281,2.3144,2.3135,2.3135,2.3144,2.3144,2.3144,2.3062,2.3023,2.3091,2.3115,2.3027,2.3012,2.2826,4.6156,4.5916,4.5864,4.5625,4.5294,4.5077,4.4889,4.4663,4.4458,4.4281,4.4065,4.3886,4.3762,4.3714,4.3382,4.3299,4.3264,4.271,4.2545,4.2321,4.1931,4.122,4.0726,3.9948,3.9642,3.9553,3.9448,3.9358,3.9196,3.9133,3.8829,3.8398,3.8151,3.7709,3.7172,3.6989,3.665,3.606,3.5805,3.5546,3.5083,3.4719,3.4495,3.4412,3.4014,3.3793,3.364,3.3417,3.3066,3.2569,3.2372,3.206,3.1905,3.1776,3.164,3.1536,3.1499,3.1479,3.1519,3.1357,3.1248,3.1061,3.0911,3.0736,3.066,3.0649,3.0675,3.0688,3.0586,3.0612,3.0533,3.059,3.0633,3.0521,3.0813,3.0253,2.9197,2.8546,2.8345,2.8138,2.8191,2.8138,2.8034,2.792,2.77,2.7107,2.6911,2.667,2.6462,2.6264,2.6119,2.5994,2.5868,2.5782,2.5533,2.5221,2.5043,2.4876,2.4345,2.4072,2.3901,2.3642,2.3359,2.3222,2.3353,2.3363,2.3319,2.3276,2.3232,2.3276,2.3363,2.3276,2.3212,2.3217,2.3099,4.6719,4.6666,4.6314,4.6008,4.5698,4.5625,4.542,4.5101,4.4883,4.4709,4.4473,4.4258,4.4089,4.3949,4.3714,4.3596,4.3581,4.3229,4.312,4.303,4.2447,4.2171,4.1707,4.0801,4.0247,4.0098,3.9649,3.9454,3.9418,3.9367,3.9277,3.9143,3.8937,3.8692,3.802,3.7901,3.7534,3.6847,3.6659,3.6571,3.6271,3.5756,3.5429,3.5297,3.4596,3.4077,3.3896,3.3793,3.3724,3.3452,3.3022,3.2762,3.2544,3.2322,3.2214,3.2141,3.1986,3.1853,3.183,3.176,3.1548,3.1628,3.1556,3.1386,3.1376,3.1444,3.1499,3.15,3.1642,3.1626,3.1533,3.1552,3.1506,3.1448,3.1304,3.1083,3.0552,3.0002,2.9599,2.9493,2.9241,2.8978,2.8691,2.8677,2.8457,2.8063,2.7767,2.7525,2.7358,2.7246,2.7142,2.7104,2.6958,2.6865,2.6519,2.616,2.5816,2.5616,2.5108,2.4825,2.4598,2.427,2.4058,2.3841,2.3667,2.3624,2.3493,2.358,2.358,2.3624,2.3624,2.358,2.3493,2.345,2.3406,4.8055,4.7896,4.77,4.7413,4.7066,4.6882,4.6644,4.6341,4.5781,4.5392,4.5125,4.4718,4.432,4.4127,4.3949,4.3832,4.3793,4.3581,4.3409,4.3254,4.2955,4.2836,4.2656,4.1848,4.119,4.0831,4.0202,3.9918,3.9828,3.9589,3.9373,3.9388,3.9388,3.9173,3.8838,3.8728,3.835,3.7773,3.7519,3.7366,3.701,3.6625,3.635,3.6246,3.5716,3.5334,3.5239,3.5084,3.5014,3.4775,3.4391,3.3774,3.317,3.2846,3.2704,3.2632,3.2431,3.2491,3.2591,3.2566,3.2577,3.2833,3.271,3.2597,3.2562,3.2574,3.2526,3.2527,3.2516,3.2461,3.226,3.2342,3.2283,3.2222,3.2193,3.2123,3.1905,3.1127,3.0367,3.0302,3.0127,2.9929,2.9754,2.9619,2.951,2.9249,2.9183,2.8892,2.8622,2.8496,2.8282,2.8167,2.8021,2.7817,2.7546,2.7136,2.6658,2.6423,2.6036,2.5887,2.5766,2.536,2.4957,2.4523,2.4051,2.3807,2.3711,2.3797,2.3884,2.3797,2.3754,2.3797,2.3797,2.3711,2.3624,4.9494,4.9226,4.919,4.8974,4.8572,4.8227,4.7993,4.7779,4.6912,4.6396,4.6065,4.5247,4.4872,4.4565,4.4235,4.4065,4.3949,4.3832,4.3621,4.3394,4.3364,4.3264,4.309,4.2656,4.2192,4.1639,4.0905,4.0591,4.0382,3.9933,3.9709,3.9553,3.9439,3.9343,3.9358,3.9394,3.9059,3.8531,3.8415,3.818,3.7704,3.7356,3.7109,3.6832,3.6733,3.657,3.6394,3.6318,3.6249,3.6158,3.6007,3.5254,3.4356,3.3684,3.3444,3.35,3.3398,3.3526,3.3771,3.3735,3.3816,3.4352,3.402,3.3829,3.3777,3.3665,3.3617,3.3553,3.3502,3.3317,3.2852,3.3013,3.3024,3.296,3.3259,3.3318,3.2991,3.1938,3.1363,3.0978,3.1028,3.0975,3.0834,3.069,3.0582,3.0499,3.0352,3.017,2.9852,2.9543,2.9272,2.8987,2.8807,2.8682,2.842,2.8147,2.7661,2.7366,2.7029,2.6899,2.6834,2.6457,2.5864,2.49,2.437,2.4285,2.4204,2.4315,2.4272,2.4013,2.4057,2.4229,2.4143,2.3927,2.3884,4.9964,4.9756,4.9599,4.9316,4.9026,4.8954,4.8762,4.835,4.788,4.7596,4.7388,4.6457,4.5825,4.5526,4.4787,4.4389,4.4134,4.3988,4.3832,4.3636,4.3596,4.3518,4.3324,4.3165,4.3,4.2716,4.1908,4.1309,4.107,4.0591,4.0217,4.0098,3.9723,3.9463,3.9403,3.9388,3.9328,3.9155,3.9053,3.8949,3.8734,3.8361,3.7858,3.7426,3.7277,3.7128,3.6969,3.6875,3.6781,3.6761,3.6564,3.637,3.6033,3.5569,3.531,3.5074,3.4901,3.4804,3.4918,3.4776,3.4631,3.4578,3.4627,3.4537,3.4544,3.4549,3.4612,3.4564,3.462,3.4604,3.4425,3.4151,3.3994,3.3904,3.3707,3.3598,3.3335,3.2988,3.2561,3.2184,3.2124,3.193,3.168,3.1428,3.1247,3.1038,3.0904,3.0679,3.0363,3.0136,2.9954,2.9704,2.9486,2.9383,2.928,2.9028,2.8701,2.8455,2.8191,2.7893,2.7751,2.7435,2.68,2.6104,2.5513,2.5343,2.5207,2.4996,2.4869,2.4814,2.4751,2.47,2.4562,2.4391,2.4272,5.1332,5.114,5.0961,5.073,5.0529,5.0384,5.02,4.9785,4.9203,4.8748,4.8314,4.7558,4.6962,4.6584,4.581,4.5056,4.4473,4.4205,4.4026,4.3871,4.3754,4.3651,4.3463,4.3384,4.3305,4.3125,4.2656,4.2147,4.1886,4.122,4.0786,4.0367,4.0053,3.9747,3.9448,3.9388,3.9388,3.9388,3.9388,3.9388,3.9388,3.9035,3.865,3.84,3.821,3.8118,3.8047,3.8032,3.7976,3.7919,3.7811,3.776,3.7622,3.7419,3.691,3.6143,3.5796,3.5843,3.5932,3.5868,3.5921,3.6155,3.6041,3.5955,3.5844,3.5834,3.5644,3.5463,3.5345,3.5318,3.5087,3.4908,3.4618,3.4314,3.4147,3.3937,3.3683,3.3556,3.3356,3.3099,3.2704,3.2376,3.2164,3.1957,3.1761,3.1584,3.1407,3.1184,3.0916,3.0736,3.0544,3.0318,3.0091,3.0,2.9897,2.968,2.9554,2.9372,2.9237,2.8934,2.8788,2.8555,2.8233,2.7656,2.7184,2.6671,2.6074,2.5782,2.5689,2.5573,2.5349,2.5168,2.503,2.4861,2.4785,5.2607,5.2378,5.225,5.2069,5.1888,5.1684,5.1466,5.1182,5.0402,4.9882,4.9505,4.865,4.8111,4.7709,4.6893,4.5948,4.497,4.4742,4.4503,4.4143,4.3949,4.3847,4.3675,4.3518,4.3423,4.3409,4.3225,4.306,4.2521,4.1931,4.1347,4.101,4.0771,4.0262,3.9798,3.9723,3.9589,3.9403,3.9388,3.9388,3.9388,3.9388,3.9388,3.9388,3.9388,3.9226,3.9013,3.8977,3.8926,3.8832,3.8803,3.8811,3.8841,3.8804,3.8062,3.6845,3.6454,3.6646,3.6845,3.6905,3.7001,3.7201,3.7347,3.7236,3.7053,3.6707,3.6492,3.6191,3.5965,3.5723,3.548,3.5318,3.5031,3.4701,3.4522,3.4397,3.4063,3.3852,3.3725,3.3428,3.3086,3.2797,3.2506,3.2388,3.2201,3.2038,3.1862,3.1761,3.154,3.1273,3.105,3.0871,3.0691,3.0544,3.0408,3.0284,3.0148,3.008,3.0,2.9886,2.9818,2.9761,2.9353,2.897,2.8668,2.8155,2.7369,2.6723,2.6715,2.6552,2.6012,2.5787,2.5829,2.5616,2.537,5.3007,5.2816,5.264,5.2412,5.2252,5.2069,5.1921,5.1688,5.1203,5.1032,5.0795,4.9807,4.919,4.8739,4.7867,4.6924,4.6211,4.5664,4.5226,4.4657,4.4327,4.4089,4.3949,4.3769,4.3651,4.3596,4.3423,4.3275,4.3015,4.2506,4.2231,4.1976,4.1452,4.092,4.0352,4.0172,3.9978,3.9508,3.9403,3.9388,3.9388,3.9388,3.9388,3.9388,3.9388,3.9388,3.9337,3.9316,3.9301,3.9286,3.9141,3.9068,3.9031,3.8892,3.8752,3.8458,3.8333,3.8125,3.7976,3.7797,3.7676,3.7772,3.7649,3.7572,3.7419,3.7187,3.69,3.6665,3.6403,3.6178,3.5871,3.5669,3.544,3.5195,3.499,3.4771,3.4439,3.423,3.4105,3.3852,3.3513,3.3172,3.284,3.2711,3.2593,3.2431,3.2313,3.2213,3.2081,3.1773,3.1596,3.1419,3.1285,3.1139,3.0949,3.0826,3.0703,3.0658,3.0612,3.0601,3.051,3.042,3.0499,3.0154,2.9871,2.9419,2.8599,2.812,2.793,2.7556,2.7161,2.6952,2.6852,2.6528,2.6173,5.328,5.3041,5.2868,5.2729,5.2607,5.248,5.2285,5.2053,5.1831,5.1647,5.145,5.0801,5.0075,4.9387,4.8586,4.7914,4.7132,4.6459,4.5849,4.5256,4.4803,4.4374,4.4166,4.3949,4.3847,4.3729,4.3542,4.3423,4.3249,4.3045,4.2776,4.2396,4.2111,4.1609,4.098,4.0591,4.0277,3.9948,3.9627,3.9403,3.9388,3.9388,3.9388,3.9388,3.9388,3.9388,3.9388,3.9388,3.9388,3.9373,3.9286,3.9265,3.9265,3.9177,3.9126,3.9141,3.8929,3.873,3.856,3.8464,3.8315,3.824,3.8127,3.8028,3.7801,3.7534,3.7341,3.7226,3.6915,3.664,3.6403,3.6204,3.5884,3.5602,3.548,3.5195,3.4908,3.4701,3.4494,3.4243,3.403,3.3781,3.3546,3.3399,3.312,3.268,3.2562,3.2475,3.2388,3.2213,3.2038,3.195,3.1862,3.1773,3.154,3.135,3.1107,3.1017,3.0883,3.0883,3.0894,3.0883,3.1017,3.096,3.0608,3.0161,2.9671,2.9267,2.8864,2.8596,2.8372,2.8115,2.7858,2.7607,2.7235,5.3433,5.3264,5.3041,5.2989,5.2938,5.2764,5.2553,5.2359,5.2214,5.205,5.1831,5.145,5.079,5.0059,4.9611,4.9108,4.8235,4.7318,4.6613,4.5995,4.5378,4.4825,4.4496,4.4243,4.3988,4.3847,4.3714,4.3596,4.3463,4.3269,4.303,4.2626,4.2656,4.2237,4.1669,4.1235,4.0876,4.0292,3.9918,3.9649,3.9433,3.9388,3.9388,3.9388,3.9388,3.9388,3.9388,3.9388,3.9388,3.9388,3.9373,3.9388,3.9388,3.9352,3.9337,3.9316,3.9192,3.9104,3.8943,3.8819,3.8819,3.8745,3.8686,3.8404,3.8118,3.7853,3.7701,3.7663,3.7341,3.7148,3.7031,3.6719,3.6403,3.6125,3.5924,3.5602,3.5399,3.5274,3.5201,3.5042,3.4884,3.4708,3.4448,3.4221,3.3753,3.3088,3.2797,3.2748,3.2618,3.2556,3.2388,3.2257,3.2213,3.2125,3.2025,3.1805,3.1596,3.1463,3.133,3.133,3.1431,3.1475,3.1552,3.1419,3.1297,3.1223,3.0993,3.0379,2.9831,2.9729,2.9525,2.915,2.8857,2.8591,2.8256,5.3518,5.345,5.3264,5.3195,5.3161,5.2972,5.2764,5.2589,5.2395,5.2197,5.205,5.1831,5.1471,5.1091,5.0774,5.0241,4.9367,4.8916,4.795,4.6912,4.6093,4.547,4.5001,4.4588,4.4281,4.4181,4.3949,4.3769,4.3611,4.3423,4.3339,4.323,4.3105,4.2791,4.2417,4.2051,4.1392,4.0771,4.0367,4.0068,3.9738,3.9559,3.9478,3.9433,3.9403,3.9388,3.9388,3.9388,3.9388,3.9388,3.9388,3.9388,3.9388,3.9508,3.9538,3.9553,3.9687,3.9629,3.9556,3.9135,3.8848,3.8797,3.8892,3.898,3.8792,3.8385,3.8147,3.816,3.8112,3.7752,3.7473,3.7099,3.713,3.7016,3.6873,3.6577,3.6334,3.6035,3.5938,3.5847,3.5741,3.5621,3.5469,3.5267,3.4666,3.4007,3.3406,3.3332,3.299,3.2835,3.2618,3.2506,3.2431,3.2388,3.2344,3.2213,3.2081,3.1994,3.1918,3.2006,3.2138,3.2181,3.2006,3.205,3.1918,3.2138,3.2125,3.1392,3.0879,3.0911,3.0683,3.0132,2.9788,2.9505,2.9187,5.3518,5.3467,5.3416,5.3382,5.3382,5.3161,5.3041,5.2938,5.2764,5.2518,5.2233,5.205,5.1831,5.1557,5.128,5.1016,5.0435,4.9591,4.8815,4.7963,4.7045,4.6222,4.5643,4.5053,4.461,4.4435,4.4205,4.391,4.369,4.3557,4.3423,4.3344,4.3305,4.3185,4.294,4.2605,4.1886,4.1347,4.0995,4.0816,4.0666,4.0187,4.0023,4.0023,3.9529,3.9418,3.9388,3.9388,3.9388,3.9433,3.9463,3.9493,3.9597,3.9858,3.9993,4.0083,4.0292,4.0472,4.0337,3.9801,3.9319,3.9684,3.9928,4.0075,3.9797,3.9756,3.9662,3.9552,3.9233,3.8923,3.8832,3.8649,3.8521,3.8265,3.7994,3.7642,3.7357,3.7016,3.6934,3.6983,3.6782,3.6593,3.6442,3.6318,3.563,3.4904,3.4385,3.3875,3.3638,3.3376,3.3208,3.2978,3.2934,3.276,3.2717,3.2636,3.2574,3.2531,3.2444,3.2487,3.2531,3.24,3.2257,3.24,3.2444,3.2444,3.23,3.2081,3.1817,3.154,3.1261,3.0977,3.0652,3.044,3.0141,5.3518,5.3518,5.3518,5.3518,5.3467,5.3348,5.3264,5.3179,5.3041,5.2799,5.2466,5.2321,5.2142,5.1908,5.1631,5.1445,5.1117,5.0478,4.9785,4.8859,4.7886,4.6959,4.6219,4.5481,4.4761,4.4648,4.4396,4.4104,4.3847,4.3729,4.3503,4.3384,4.3305,4.3275,4.317,4.291,4.2312,4.1871,4.1707,4.1542,4.1362,4.095,4.0696,4.0666,4.0307,4.0172,4.0172,4.0187,4.0157,4.0157,4.0127,4.0068,4.0202,4.0382,4.0636,4.0846,4.1085,4.1437,4.1153,4.0741,4.0144,4.0479,4.0792,4.0946,4.0979,4.0888,4.0542,4.0461,4.0364,4.0294,4.0058,3.9672,3.9416,3.9102,3.8916,3.8631,3.8416,3.8184,3.8145,3.8128,3.7886,3.7682,3.7688,3.7462,3.6529,3.5771,3.5058,3.4709,3.4552,3.4262,3.4004,3.3778,3.3552,3.3339,3.3115,3.2997,3.2922,3.2822,3.2748,3.2692,3.2692,3.2605,3.2605,3.2705,3.2748,3.2649,3.2562,3.2419,3.2201,3.1969,3.1737,3.156,3.1601,3.1384,3.1185,5.3518,5.3518,5.3518,5.3518,5.3518,5.3501,5.3382,5.323,5.3179,5.3041,5.2834,5.2676,5.2483,5.2269,5.2069,5.1888,5.1668,5.1273,5.072,4.9818,4.8573,4.7585,4.6617,4.5769,4.5039,4.4799,4.4587,4.4281,4.3988,4.3832,4.3581,4.3384,4.3344,4.3305,4.3305,4.329,4.297,4.2485,4.2396,4.2066,4.1713,4.1489,4.1369,4.1362,4.1153,4.095,4.0935,4.0935,4.092,4.095,4.098,4.0995,4.107,4.1257,4.1392,4.1437,4.1474,4.1519,4.1429,4.1354,4.1384,4.1361,4.1577,4.1628,4.1296,4.1175,4.127,4.1297,4.1042,4.0876,4.0578,4.0382,4.0285,4.0158,3.996,3.9772,3.9625,3.9407,3.9424,3.9298,3.9013,3.8819,3.8864,3.8617,3.7524,3.6658,3.5825,3.5493,3.5448,3.5054,3.4686,3.454,3.4318,3.418,3.3928,3.3476,3.3257,3.3156,3.3101,3.3033,3.2971,3.2909,3.2952,3.305,3.2995,3.2865,3.2865,3.2853,3.2636,3.2419,3.23,3.2213,3.2257,3.2201,3.1896,5.3518,5.3518,5.3518,5.3518,5.3518,5.3518,5.3467,5.3382,5.3264,5.3144,5.3076,5.292,5.2694,5.2518,5.234,5.2161,5.1977,5.1758,5.1243,5.0681,4.9303,4.8461,4.7421,4.6213,4.5368,4.5092,4.483,4.4511,4.4205,4.3988,4.3793,4.3596,4.3384,4.3305,4.3305,4.329,4.3125,4.303,4.2985,4.2841,4.2641,4.2267,4.2066,4.2051,4.1722,4.1557,4.1572,4.1564,4.1602,4.1564,4.1564,4.1534,4.1609,4.1782,4.2066,4.2201,4.2312,4.2671,4.2671,4.2641,4.2447,4.2327,4.2342,4.2482,4.2554,4.2568,4.2451,4.2243,4.2085,4.2011,4.2004,4.1949,4.1792,4.1634,4.1444,4.1225,4.0992,4.0784,4.0646,4.0449,4.0222,3.9707,3.9536,3.9367,3.846,3.7803,3.709,3.6558,3.6398,3.5717,3.5244,3.52,3.5111,3.5041,3.4799,3.4362,3.4021,3.3946,3.3701,3.3439,3.337,3.3268,3.3124,3.3111,3.3124,3.3124,3.3038,3.2982,3.2995,3.2865,3.2705,3.2531,3.2487,3.24,3.2288,5.3518,5.3518,5.3518,5.3518,5.3518,5.3518,5.3518,5.3467,5.3348,5.3298,5.3264,5.3093,5.2938,5.2799,5.2607,5.2395,5.225,5.2053,5.1556,5.101,4.9738,4.8768,4.7762,4.6639,4.5756,4.5368,4.5039,4.4723,4.4381,4.4127,4.3832,4.3542,4.3369,4.3344,4.3305,4.329,4.329,4.323,4.32,4.3215,4.3065,4.2925,4.2716,4.2611,4.2387,4.2132,4.2087,4.2058,4.2043,4.2028,4.2028,4.2028,4.2177,4.2387,4.2701,4.2865,4.3015,4.326,4.3215,4.32,4.297,4.2776,4.311,4.326,4.3305,4.3155,4.313,4.3066,4.3115,4.2981,4.2805,4.2795,4.2673,4.247,4.2333,4.2044,4.1864,4.1629,4.142,4.1226,4.1001,4.0531,4.0099,3.9837,3.9393,3.8901,3.8394,3.7873,3.735,3.6714,3.6153,3.6166,3.5955,3.5769,3.5564,3.5232,3.4958,3.4767,3.44,3.4035,3.375,3.3634,3.3409,3.3197,3.3154,3.3167,3.3124,3.3081,3.3081,3.3038,3.2865,3.2736,3.2661,3.2618,3.2574,5.3484,5.3501,5.3518,5.3518,5.3518,5.3518,5.3518,5.3518,5.3518,5.3518,5.3467,5.3264,5.3144,5.3161,5.2972,5.2764,5.2553,5.2359,5.1768,5.0941,4.9815,4.8878,4.7809,4.6674,4.6016,4.5609,4.5315,4.4911,4.4572,4.4166,4.3778,4.3463,4.3344,4.3305,4.3305,4.3305,4.3305,4.3305,4.3305,4.3305,4.323,4.323,4.3125,4.3065,4.2991,4.2961,4.2961,4.2991,4.305,4.3095,4.314,4.3185,4.3245,4.3275,4.3275,4.3275,4.3275,4.329,4.3305,4.3305,4.329,4.3125,4.323,4.3305,4.3305,4.3305,4.3265,4.325,4.325,4.317,4.3036,4.2996,4.2915,4.2795,4.2688,4.2511,4.2363,4.2143,4.1922,4.1729,4.1493,4.1114,4.0716,4.0416,4.0099,3.9738,3.9292,3.8982,3.8443,3.7911,3.7468,3.7364,3.7066,3.6541,3.6328,3.6232,3.5852,3.5634,3.5142,3.4767,3.4441,3.4015,3.3738,3.347,3.3265,3.3197,3.3283,3.3283,3.3197,3.3111,3.3154,3.3038,3.2952,3.2909,3.2909,5.2976,5.3484,5.3518,5.3518,5.3518,5.3518,5.3518,5.3518,5.3518,5.3518,5.3518,5.3433,5.3332,5.323,5.3161,5.2972,5.2782,5.2524,5.1897,5.1057,4.9969,4.8996,4.7996,4.6985,4.6358,4.5864,4.5484,4.5136,4.4761,4.432,4.391,4.3636,4.3423,4.3344,4.3305,4.3305,4.3305,4.3305,4.3305,4.3305,4.3305,4.3305,4.3305,4.3305,4.3305,4.3305,4.3305,4.3305,4.3305,4.3305,4.3305,4.3305,4.3305,4.3305,4.329,4.329,4.329,4.3305,4.3305,4.3305,4.3305,4.3305,4.3305,4.3305,4.3305,4.3305,4.3305,4.3305,4.3305,4.321,4.317,4.313,4.3076,4.2996,4.293,4.2809,4.2648,4.2526,4.2307,4.2117,4.1883,4.1591,4.1198,4.0972,4.0659,4.0402,4.0156,3.9851,3.9455,3.8845,3.8453,3.831,3.8094,3.752,3.7462,3.7371,3.6916,3.6496,3.6018,3.5504,3.4966,3.455,3.4131,3.376,3.3479,3.3484,3.3556,3.3484,3.3398,3.3471,3.3513,3.3356,3.324,3.3197,3.3197,5.2587,5.3061,5.3382,5.3518,5.3518,5.3518,5.3518,5.3518,5.3518,5.3518,5.3518,5.3518,5.3416,5.3348,5.3298,5.3179,5.299,5.2501,5.1828,5.0804,5.0036,4.8867,4.7903,4.7202,4.6574,4.61,4.5719,4.5373,4.4964,4.4435,4.3988,4.369,4.3503,4.3409,4.3329,4.3305,4.3305,4.3305,4.3305,4.3305,4.3305,4.3305,4.3305,4.3305,4.3305,4.3305,4.3305,4.3305,4.3305,4.3305,4.3305,4.3305,4.3305,4.3305,4.3305,4.3305,4.3305,4.3305,4.3305,4.3305,4.3305,4.3305,4.3305,4.3305,4.3305,4.3305,4.3305,4.3305,4.3305,4.3305,4.3305,4.3305,4.321,4.313,4.3076,4.3036,4.2915,4.2835,4.2688,4.25,4.2254,4.1966,4.166,4.1437,4.1184,4.0944,4.073,4.0459,4.0012,3.9486,3.9114,3.889,3.8697,3.8437,3.844,3.8304,3.7904,3.744,3.708,3.6533,3.576,3.5042,3.456,3.4109,3.3683,3.3713,3.381,3.3713,3.3628,3.3755,3.3797,3.3641,3.3526,3.3441,3.3398,5.2147,5.23,5.3078,5.3416,5.3518,5.3518,5.3518,5.3518,5.3518,5.3518,5.3518,5.3518,5.3518,5.3467,5.3433,5.3247,5.2893,5.2387,5.1463,5.0393,4.9659,4.8661,4.7798,4.7149,4.6789,4.6385,4.5972,4.5557,4.5092,4.4587,4.4143,4.3729,4.369,4.3557,4.3344,4.3305,4.3305,4.3305,4.3305,4.3305,4.3305,4.3305,4.3305,4.3305,4.3305,4.3305,4.3305,4.3305,4.3305,4.3305,4.3305,4.3305,4.3305,4.3305,4.3305,4.3305,4.3305,4.3305,4.3305,4.3305,4.3305,4.3305,4.3305,4.3305,4.3305,4.3305,4.3305,4.3305,4.3305,4.3305,4.3305,4.3305,4.325,4.321,4.321,4.317,4.309,4.2955,4.2835,4.2688,4.2541,4.2254,4.2131,4.1895,4.1646,4.1465,4.1255,4.0972,4.0674,4.0142,3.9763,3.9482,3.9305,3.9114,3.889,3.88,3.8666,3.8381,3.7998,3.7515,3.6819,3.5935,3.5034,3.4689,3.4412,3.4102,3.4021,3.405,3.4092,3.4105,3.4105,3.3937,3.3852,3.3852,3.3683,5.0947,5.1555,5.2283,5.2926,5.3484,5.3518,5.3518,5.3518,5.3518,5.3518,5.3518,5.3518,5.3518,5.3518,5.3416,5.3146,5.2572,5.2,5.1111,5.0175,4.9343,4.8614,4.7803,4.7386,4.708,4.6719,4.6262,4.563,4.5077,4.4663,4.432,4.3949,4.3793,4.3596,4.3344,4.3344,4.3305,4.3305,4.3305,4.3305,4.3305,4.3305,4.3305,4.3305,4.3305,4.3305,4.3305,4.3305,4.3305,4.3305,4.3305,4.3305,4.3305,4.3305,4.3305,4.3305,4.3305,4.3305,4.3305,4.3305,4.3305,4.3305,4.3305,4.3305,4.3305,4.3305,4.3305,4.3305,4.3305,4.3305,4.3305,4.3305,4.3305,4.3305,4.3305,4.3265,4.321,4.313,4.2996,4.289,4.2743,4.2622,4.25,4.2336,4.2131,4.191,4.1702,4.1493,4.1297,4.0901,4.0459,4.0126,3.9865,3.9689,3.9455,3.9278,3.9145,3.9011,3.8693,3.8247,3.7776,3.683,3.5907,3.5568,3.5235,3.4842,3.4601,3.4743,3.4784,3.4618,3.4522,3.4439,3.4522,3.4577,3.423,5.0338,5.0828,5.186,5.2553,5.2993,5.3348,5.3518,5.3518,5.3518,5.3518,5.3518,5.3518,5.3501,5.3365,5.3162,5.279,5.2115,5.1475,5.072,4.9853,4.9123,4.8513,4.7985,4.7588,4.7201,4.6858,4.6259,4.5609,4.5114,4.4799,4.4534,4.4166,4.391,4.3714,4.3503,4.3384,4.3305,4.3305,4.3305,4.3305,4.3305,4.3305,4.3305,4.3305,4.3305,4.3305,4.3305,4.3305,4.3305,4.3305,4.3305,4.3305,4.3305,4.3305,4.3305,4.3305,4.3305,4.3305,4.3305,4.3305,4.3305,4.3305,4.3305,4.3305,4.3305,4.3305,4.3305,4.3305,4.3305,4.3305,4.3305,4.3305,4.3305,4.3305,4.3305,4.3305,4.325,4.321,4.3155,4.313,4.297,4.2835,4.2714,4.2622,4.2444,4.2363,4.2143,4.191,4.1758,4.1633,4.1213,4.0816,4.0559,4.0243,3.9924,3.9749,3.9631,3.9499,3.9353,3.8837,3.83,3.7574,3.6869,3.6373,3.589,3.539,3.5244,3.5289,3.5127,3.4908,3.4949,3.499,3.5113,3.5195,3.4853,4.9982,5.0287,5.1454,5.208,5.2249,5.2892,5.3145,5.3162,5.3162,5.3145,5.3078,5.3078,5.323,5.3078,5.2553,5.2249,5.1742,5.0864,5.0143,4.9529,4.8882,4.8442,4.805,4.7688,4.7302,4.6823,4.6243,4.5792,4.5315,4.5039,4.4739,4.4374,4.4143,4.3949,4.3714,4.3503,4.3384,4.3344,4.3305,4.3305,4.3305,4.3305,4.3305,4.3305,4.3305,4.3305,4.3305,4.3305,4.3305,4.3305,4.3305,4.3305,4.3305,4.3305,4.3305,4.3305,4.3305,4.3305,4.3305,4.3305,4.3305,4.3305,4.3305,4.3305,4.3305,4.3305,4.3305,4.3305,4.3305,4.3305,4.3305,4.3305,4.3305,4.3305,4.3305,4.3305,4.329,4.329,4.329,4.329,4.3155,4.3021,4.2955,4.285,4.2769,4.2688,4.2566,4.2336,4.2172,4.209,4.1827,4.1493,4.1241,4.0873,4.0517,4.0358,4.0243,4.0156,3.997,3.942,3.8874,3.8292,3.7673,3.699,3.6517,3.6127,3.5776,3.5683,3.5493,3.5331,3.5453,3.5616,3.5575,3.5575,3.5399,4.956,5.0118,5.0405,5.0862,5.1403,5.1591,5.1657,5.1624,5.1708,5.164,5.1758,5.1742,5.1928,5.2486,5.1758,5.1285,5.0794,5.0101,4.9567,4.8955,4.8728,4.8438,4.8115,4.7787,4.7354,4.6876,4.642,4.6028,4.5589,4.5278,4.4927,4.4549,4.4358,4.4104,4.3769,4.3611,4.3518,4.3423,4.3305,4.3305,4.3305,4.3305,4.3305,4.3305,4.3305,4.3305,4.3305,4.3305,4.3305,4.3305,4.3305,4.3305,4.3305,4.3305,4.3305,4.3305,4.3305,4.3305,4.3305,4.3305,4.3305,4.3305,4.3305,4.3305,4.3305,4.3305,4.3305,4.3305,4.3305,4.3305,4.3305,4.3305,4.3305,4.3305,4.3305,4.3305,4.329,4.329,4.329,4.329,4.325,4.321,4.321,4.309,4.297,4.2875,4.2754,4.2566,4.2526,4.2444,4.2363,4.2117,4.1827,4.1591,4.1255,4.1071,4.0901,4.0816,4.0617,4.0134,3.9697,3.9219,3.8581,3.7959,3.7427,3.7003,3.6661,3.6116,3.6074,3.5952,3.6112,3.6192,3.6112,3.5992,3.5817]}]]